<?xml version="1.0" encoding="UTF-8" standalone="no" ?>
<gpx xmlns="http://www.topografix.com/GPX/1/1" xmlns:xsi="http://www.w3.org/2001/XMLSchema-instance" xsi:schemaLocation="http://www.topografix.com/GPX/1/1 http://www.topografix.com/GPX/1/1/gpx.xsd" version="1.1" creator="VisuGPX - https://www.visugpx.com">
  <metadata>
    <name>CAMINO PRIMITIVO &quot;GRANDAS DE SALIME -FONSAGRADA</name>
    <desc><![CDATA[Cette étape nous fait quitter les ASTURIES pour entrer en GALICE. les horeos qui nous ont accompagnés tout au long de notre périple jusque là changent d'aspect, mais l'ambiance reste toujours très émouvante et bucolique.]]></desc>
  </metadata>
  <trk>
    <name><![CDATA[2016-07-11-01]]></name>
    <trkseg>
      <trkpt lat="43.21788" lon="-6.8769">
        <ele>547.9</ele>
        <time>2016-07-11T05:24:12Z</time>
      </trkpt>
      <trkpt lat="43.21789" lon="-6.87691">
        <ele>548</ele>
        <time>2016-07-11T05:24:13Z</time>
      </trkpt>
      <trkpt lat="43.21792" lon="-6.87704">
        <ele>551.3</ele>
        <time>2016-07-11T05:24:23Z</time>
      </trkpt>
      <trkpt lat="43.21797" lon="-6.87715">
        <ele>552.3</ele>
        <time>2016-07-11T05:24:32Z</time>
      </trkpt>
      <trkpt lat="43.218" lon="-6.87728">
        <ele>552.9</ele>
        <time>2016-07-11T05:24:41Z</time>
      </trkpt>
      <trkpt lat="43.21802" lon="-6.87741">
        <ele>553.2</ele>
        <time>2016-07-11T05:24:51Z</time>
      </trkpt>
      <trkpt lat="43.218" lon="-6.87753">
        <ele>554.1</ele>
        <time>2016-07-11T05:25:00Z</time>
      </trkpt>
      <trkpt lat="43.21797" lon="-6.87765">
        <ele>555</ele>
        <time>2016-07-11T05:25:09Z</time>
      </trkpt>
      <trkpt lat="43.21795" lon="-6.87778">
        <ele>555.4</ele>
        <time>2016-07-11T05:25:20Z</time>
      </trkpt>
      <trkpt lat="43.21794" lon="-6.87791">
        <ele>556</ele>
        <time>2016-07-11T05:25:31Z</time>
      </trkpt>
      <trkpt lat="43.2179" lon="-6.87803">
        <ele>557</ele>
        <time>2016-07-11T05:25:41Z</time>
      </trkpt>
      <trkpt lat="43.21785" lon="-6.87814">
        <ele>558.1</ele>
        <time>2016-07-11T05:25:52Z</time>
      </trkpt>
      <trkpt lat="43.21791" lon="-6.87804">
        <ele>559.4</ele>
        <time>2016-07-11T05:26:08Z</time>
      </trkpt>
      <trkpt lat="43.21796" lon="-6.87793">
        <ele>559.3</ele>
        <time>2016-07-11T05:26:15Z</time>
      </trkpt>
      <trkpt lat="43.21798" lon="-6.8778">
        <ele>559.3</ele>
        <time>2016-07-11T05:26:21Z</time>
      </trkpt>
      <trkpt lat="43.21801" lon="-6.87768">
        <ele>559.3</ele>
        <time>2016-07-11T05:26:27Z</time>
      </trkpt>
      <trkpt lat="43.21804" lon="-6.87756">
        <ele>559</ele>
        <time>2016-07-11T05:26:32Z</time>
      </trkpt>
      <trkpt lat="43.21803" lon="-6.87742">
        <ele>558.6</ele>
        <time>2016-07-11T05:26:38Z</time>
      </trkpt>
      <trkpt lat="43.218" lon="-6.87728">
        <ele>558.2</ele>
        <time>2016-07-11T05:26:42Z</time>
      </trkpt>
      <trkpt lat="43.21798" lon="-6.87716">
        <ele>557.8</ele>
        <time>2016-07-11T05:26:46Z</time>
      </trkpt>
      <trkpt lat="43.21794" lon="-6.87703">
        <ele>557.1</ele>
        <time>2016-07-11T05:26:52Z</time>
      </trkpt>
      <trkpt lat="43.21801" lon="-6.87694">
        <ele>555.4</ele>
        <time>2016-07-11T05:27:00Z</time>
      </trkpt>
      <trkpt lat="43.2181" lon="-6.8769">
        <ele>554.6</ele>
        <time>2016-07-11T05:27:05Z</time>
      </trkpt>
      <trkpt lat="43.21816" lon="-6.87681">
        <ele>553.9</ele>
        <time>2016-07-11T05:27:12Z</time>
      </trkpt>
      <trkpt lat="43.2181" lon="-6.8769">
        <ele>551.9</ele>
        <time>2016-07-11T05:28:03Z</time>
      </trkpt>
      <trkpt lat="43.218" lon="-6.8769">
        <ele>551.5</ele>
        <time>2016-07-11T05:28:12Z</time>
      </trkpt>
      <trkpt lat="43.21799" lon="-6.87704">
        <ele>551.2</ele>
        <time>2016-07-11T05:28:29Z</time>
      </trkpt>
      <trkpt lat="43.21801" lon="-6.87716">
        <ele>551.4</ele>
        <time>2016-07-11T05:28:37Z</time>
      </trkpt>
      <trkpt lat="43.218" lon="-6.8773">
        <ele>551.7</ele>
        <time>2016-07-11T05:28:46Z</time>
      </trkpt>
      <trkpt lat="43.21802" lon="-6.87742">
        <ele>552.3</ele>
        <time>2016-07-11T05:28:56Z</time>
      </trkpt>
      <trkpt lat="43.21802" lon="-6.87756">
        <ele>553.4</ele>
        <time>2016-07-11T05:29:05Z</time>
      </trkpt>
      <trkpt lat="43.21799" lon="-6.87768">
        <ele>554.8</ele>
        <time>2016-07-11T05:29:15Z</time>
      </trkpt>
      <trkpt lat="43.21796" lon="-6.8778">
        <ele>556</ele>
        <time>2016-07-11T05:29:25Z</time>
      </trkpt>
      <trkpt lat="43.21793" lon="-6.87793">
        <ele>556.8</ele>
        <time>2016-07-11T05:29:35Z</time>
      </trkpt>
      <trkpt lat="43.21789" lon="-6.87805">
        <ele>557.6</ele>
        <time>2016-07-11T05:29:45Z</time>
      </trkpt>
      <trkpt lat="43.21784" lon="-6.87816">
        <ele>558.4</ele>
        <time>2016-07-11T05:29:55Z</time>
      </trkpt>
      <trkpt lat="43.2178" lon="-6.87829">
        <ele>559</ele>
        <time>2016-07-11T05:30:06Z</time>
      </trkpt>
      <trkpt lat="43.21775" lon="-6.87841">
        <ele>559.8</ele>
        <time>2016-07-11T05:30:16Z</time>
      </trkpt>
      <trkpt lat="43.21769" lon="-6.87851">
        <ele>560.3</ele>
        <time>2016-07-11T05:30:25Z</time>
      </trkpt>
      <trkpt lat="43.21764" lon="-6.87861">
        <ele>561</ele>
        <time>2016-07-11T05:30:33Z</time>
      </trkpt>
      <trkpt lat="43.21759" lon="-6.87872">
        <ele>562.1</ele>
        <time>2016-07-11T05:30:41Z</time>
      </trkpt>
      <trkpt lat="43.21753" lon="-6.87881">
        <ele>563</ele>
        <time>2016-07-11T05:30:50Z</time>
      </trkpt>
      <trkpt lat="43.21746" lon="-6.8789">
        <ele>564.8</ele>
        <time>2016-07-11T05:31:05Z</time>
      </trkpt>
      <trkpt lat="43.2174" lon="-6.879">
        <ele>566.7</ele>
        <time>2016-07-11T05:31:20Z</time>
      </trkpt>
      <trkpt lat="43.21733" lon="-6.87907">
        <ele>569.1</ele>
        <time>2016-07-11T05:32:14Z</time>
      </trkpt>
      <trkpt lat="43.21727" lon="-6.87917">
        <ele>569.5</ele>
        <time>2016-07-11T05:32:35Z</time>
      </trkpt>
      <trkpt lat="43.21724" lon="-6.8793">
        <ele>570.5</ele>
        <time>2016-07-11T05:32:49Z</time>
      </trkpt>
      <trkpt lat="43.21723" lon="-6.87943">
        <ele>571.5</ele>
        <time>2016-07-11T05:33:00Z</time>
      </trkpt>
      <trkpt lat="43.21722" lon="-6.87955">
        <ele>572.6</ele>
        <time>2016-07-11T05:33:09Z</time>
      </trkpt>
      <trkpt lat="43.2172" lon="-6.87968">
        <ele>574.1</ele>
        <time>2016-07-11T05:33:19Z</time>
      </trkpt>
      <trkpt lat="43.21717" lon="-6.87981">
        <ele>575.1</ele>
        <time>2016-07-11T05:33:29Z</time>
      </trkpt>
      <trkpt lat="43.21712" lon="-6.87992">
        <ele>576</ele>
        <time>2016-07-11T05:33:37Z</time>
      </trkpt>
      <trkpt lat="43.21706" lon="-6.88003">
        <ele>576.8</ele>
        <time>2016-07-11T05:33:45Z</time>
      </trkpt>
      <trkpt lat="43.21698" lon="-6.8801">
        <ele>576.9</ele>
        <time>2016-07-11T05:33:53Z</time>
      </trkpt>
      <trkpt lat="43.21689" lon="-6.88011">
        <ele>577.2</ele>
        <time>2016-07-11T05:34:00Z</time>
      </trkpt>
      <trkpt lat="43.21679" lon="-6.88012">
        <ele>577.6</ele>
        <time>2016-07-11T05:34:09Z</time>
      </trkpt>
      <trkpt lat="43.21669" lon="-6.8801">
        <ele>578.3</ele>
        <time>2016-07-11T05:34:18Z</time>
      </trkpt>
      <trkpt lat="43.21659" lon="-6.88009">
        <ele>579.4</ele>
        <time>2016-07-11T05:34:27Z</time>
      </trkpt>
      <trkpt lat="43.2165" lon="-6.88009">
        <ele>580.2</ele>
        <time>2016-07-11T05:34:36Z</time>
      </trkpt>
      <trkpt lat="43.2164" lon="-6.8801">
        <ele>581</ele>
        <time>2016-07-11T05:34:45Z</time>
      </trkpt>
      <trkpt lat="43.21631" lon="-6.88011">
        <ele>582</ele>
        <time>2016-07-11T05:34:53Z</time>
      </trkpt>
      <trkpt lat="43.21622" lon="-6.88013">
        <ele>582.8</ele>
        <time>2016-07-11T05:35:00Z</time>
      </trkpt>
      <trkpt lat="43.21612" lon="-6.88017">
        <ele>583.6</ele>
        <time>2016-07-11T05:35:08Z</time>
      </trkpt>
      <trkpt lat="43.21604" lon="-6.88023">
        <ele>584.9</ele>
        <time>2016-07-11T05:35:22Z</time>
      </trkpt>
      <trkpt lat="43.21596" lon="-6.88031">
        <ele>585.7</ele>
        <time>2016-07-11T05:35:30Z</time>
      </trkpt>
      <trkpt lat="43.21589" lon="-6.8804">
        <ele>586.2</ele>
        <time>2016-07-11T05:35:37Z</time>
      </trkpt>
      <trkpt lat="43.21583" lon="-6.88049">
        <ele>586.5</ele>
        <time>2016-07-11T05:35:44Z</time>
      </trkpt>
      <trkpt lat="43.21576" lon="-6.88058">
        <ele>587</ele>
        <time>2016-07-11T05:35:52Z</time>
      </trkpt>
      <trkpt lat="43.2157" lon="-6.88069">
        <ele>587.2</ele>
        <time>2016-07-11T05:36:00Z</time>
      </trkpt>
      <trkpt lat="43.21563" lon="-6.88079">
        <ele>587.6</ele>
        <time>2016-07-11T05:36:08Z</time>
      </trkpt>
      <trkpt lat="43.21557" lon="-6.88087">
        <ele>587.9</ele>
        <time>2016-07-11T05:36:16Z</time>
      </trkpt>
      <trkpt lat="43.21553" lon="-6.88099">
        <ele>588.2</ele>
        <time>2016-07-11T05:36:25Z</time>
      </trkpt>
      <trkpt lat="43.21549" lon="-6.88111">
        <ele>588.9</ele>
        <time>2016-07-11T05:36:33Z</time>
      </trkpt>
      <trkpt lat="43.21545" lon="-6.88123">
        <ele>589.5</ele>
        <time>2016-07-11T05:36:42Z</time>
      </trkpt>
      <trkpt lat="43.21542" lon="-6.88135">
        <ele>590.3</ele>
        <time>2016-07-11T05:36:50Z</time>
      </trkpt>
      <trkpt lat="43.21539" lon="-6.88147">
        <ele>591.1</ele>
        <time>2016-07-11T05:36:58Z</time>
      </trkpt>
      <trkpt lat="43.21535" lon="-6.88159">
        <ele>592</ele>
        <time>2016-07-11T05:37:06Z</time>
      </trkpt>
      <trkpt lat="43.21532" lon="-6.88171">
        <ele>593.1</ele>
        <time>2016-07-11T05:37:14Z</time>
      </trkpt>
      <trkpt lat="43.21528" lon="-6.88183">
        <ele>593.8</ele>
        <time>2016-07-11T05:37:22Z</time>
      </trkpt>
      <trkpt lat="43.21526" lon="-6.88195">
        <ele>594.3</ele>
        <time>2016-07-11T05:37:30Z</time>
      </trkpt>
      <trkpt lat="43.21524" lon="-6.88208">
        <ele>594.6</ele>
        <time>2016-07-11T05:37:38Z</time>
      </trkpt>
      <trkpt lat="43.21521" lon="-6.88221">
        <ele>595.2</ele>
        <time>2016-07-11T05:37:47Z</time>
      </trkpt>
      <trkpt lat="43.21518" lon="-6.88234">
        <ele>596.1</ele>
        <time>2016-07-11T05:37:56Z</time>
      </trkpt>
      <trkpt lat="43.21516" lon="-6.88246">
        <ele>597.1</ele>
        <time>2016-07-11T05:38:05Z</time>
      </trkpt>
      <trkpt lat="43.21513" lon="-6.88259">
        <ele>598.1</ele>
        <time>2016-07-11T05:38:14Z</time>
      </trkpt>
      <trkpt lat="43.21512" lon="-6.88271">
        <ele>598.8</ele>
        <time>2016-07-11T05:38:23Z</time>
      </trkpt>
      <trkpt lat="43.21511" lon="-6.88284">
        <ele>600</ele>
        <time>2016-07-11T05:38:32Z</time>
      </trkpt>
      <trkpt lat="43.21509" lon="-6.88297">
        <ele>600.9</ele>
        <time>2016-07-11T05:38:42Z</time>
      </trkpt>
      <trkpt lat="43.21508" lon="-6.8831">
        <ele>602.3</ele>
        <time>2016-07-11T05:38:52Z</time>
      </trkpt>
      <trkpt lat="43.21506" lon="-6.88323">
        <ele>603.8</ele>
        <time>2016-07-11T05:39:03Z</time>
      </trkpt>
      <trkpt lat="43.21502" lon="-6.88334">
        <ele>605.7</ele>
        <time>2016-07-11T05:39:14Z</time>
      </trkpt>
      <trkpt lat="43.21498" lon="-6.88346">
        <ele>607.3</ele>
        <time>2016-07-11T05:39:24Z</time>
      </trkpt>
      <trkpt lat="43.21496" lon="-6.88359">
        <ele>608.6</ele>
        <time>2016-07-11T05:39:34Z</time>
      </trkpt>
      <trkpt lat="43.21495" lon="-6.88372">
        <ele>609.7</ele>
        <time>2016-07-11T05:39:43Z</time>
      </trkpt>
      <trkpt lat="43.21495" lon="-6.88384">
        <ele>611.2</ele>
        <time>2016-07-11T05:39:52Z</time>
      </trkpt>
      <trkpt lat="43.21491" lon="-6.88396">
        <ele>613</ele>
        <time>2016-07-11T05:40:03Z</time>
      </trkpt>
      <trkpt lat="43.21484" lon="-6.88405">
        <ele>614.1</ele>
        <time>2016-07-11T05:40:12Z</time>
      </trkpt>
      <trkpt lat="43.21476" lon="-6.88413">
        <ele>614.6</ele>
        <time>2016-07-11T05:40:20Z</time>
      </trkpt>
      <trkpt lat="43.21469" lon="-6.88422">
        <ele>614.8</ele>
        <time>2016-07-11T05:40:29Z</time>
      </trkpt>
      <trkpt lat="43.21465" lon="-6.88433">
        <ele>615.2</ele>
        <time>2016-07-11T05:40:40Z</time>
      </trkpt>
      <trkpt lat="43.21459" lon="-6.88444">
        <ele>616</ele>
        <time>2016-07-11T05:40:49Z</time>
      </trkpt>
      <trkpt lat="43.21453" lon="-6.88453">
        <ele>616.9</ele>
        <time>2016-07-11T05:40:58Z</time>
      </trkpt>
      <trkpt lat="43.21448" lon="-6.88464">
        <ele>617.6</ele>
        <time>2016-07-11T05:41:08Z</time>
      </trkpt>
      <trkpt lat="43.21443" lon="-6.88475">
        <ele>618.5</ele>
        <time>2016-07-11T05:41:18Z</time>
      </trkpt>
      <trkpt lat="43.21437" lon="-6.88484">
        <ele>619.1</ele>
        <time>2016-07-11T05:41:26Z</time>
      </trkpt>
      <trkpt lat="43.21431" lon="-6.88495">
        <ele>619.8</ele>
        <time>2016-07-11T05:41:34Z</time>
      </trkpt>
      <trkpt lat="43.21426" lon="-6.88504">
        <ele>620.4</ele>
        <time>2016-07-11T05:41:41Z</time>
      </trkpt>
      <trkpt lat="43.2142" lon="-6.88515">
        <ele>620.8</ele>
        <time>2016-07-11T05:41:49Z</time>
      </trkpt>
      <trkpt lat="43.21416" lon="-6.88527">
        <ele>622</ele>
        <time>2016-07-11T05:41:59Z</time>
      </trkpt>
      <trkpt lat="43.21412" lon="-6.88538">
        <ele>622.8</ele>
        <time>2016-07-11T05:42:08Z</time>
      </trkpt>
      <trkpt lat="43.21406" lon="-6.88549">
        <ele>623.2</ele>
        <time>2016-07-11T05:42:16Z</time>
      </trkpt>
      <trkpt lat="43.21399" lon="-6.88559">
        <ele>623.4</ele>
        <time>2016-07-11T05:42:23Z</time>
      </trkpt>
      <trkpt lat="43.21393" lon="-6.88568">
        <ele>623.7</ele>
        <time>2016-07-11T05:42:30Z</time>
      </trkpt>
      <trkpt lat="43.21389" lon="-6.8858">
        <ele>624</ele>
        <time>2016-07-11T05:42:38Z</time>
      </trkpt>
      <trkpt lat="43.21384" lon="-6.88592">
        <ele>624.3</ele>
        <time>2016-07-11T05:42:47Z</time>
      </trkpt>
      <trkpt lat="43.2138" lon="-6.88604">
        <ele>624.9</ele>
        <time>2016-07-11T05:42:54Z</time>
      </trkpt>
      <trkpt lat="43.21374" lon="-6.88615">
        <ele>625.7</ele>
        <time>2016-07-11T05:43:02Z</time>
      </trkpt>
      <trkpt lat="43.21367" lon="-6.88624">
        <ele>626.2</ele>
        <time>2016-07-11T05:43:10Z</time>
      </trkpt>
      <trkpt lat="43.2136" lon="-6.88634">
        <ele>627.3</ele>
        <time>2016-07-11T05:43:18Z</time>
      </trkpt>
      <trkpt lat="43.21353" lon="-6.88643">
        <ele>628.4</ele>
        <time>2016-07-11T05:43:26Z</time>
      </trkpt>
      <trkpt lat="43.21346" lon="-6.88653">
        <ele>629.5</ele>
        <time>2016-07-11T05:43:35Z</time>
      </trkpt>
      <trkpt lat="43.21338" lon="-6.88661">
        <ele>630.9</ele>
        <time>2016-07-11T05:43:45Z</time>
      </trkpt>
      <trkpt lat="43.2133" lon="-6.88669">
        <ele>631.8</ele>
        <time>2016-07-11T05:43:54Z</time>
      </trkpt>
      <trkpt lat="43.21323" lon="-6.88677">
        <ele>632.7</ele>
        <time>2016-07-11T05:44:04Z</time>
      </trkpt>
      <trkpt lat="43.21314" lon="-6.88683">
        <ele>633.7</ele>
        <time>2016-07-11T05:44:14Z</time>
      </trkpt>
      <trkpt lat="43.21307" lon="-6.8869">
        <ele>635.3</ele>
        <time>2016-07-11T05:44:24Z</time>
      </trkpt>
      <trkpt lat="43.21301" lon="-6.88699">
        <ele>637.1</ele>
        <time>2016-07-11T05:44:35Z</time>
      </trkpt>
      <trkpt lat="43.21292" lon="-6.88705">
        <ele>638.6</ele>
        <time>2016-07-11T05:44:44Z</time>
      </trkpt>
      <trkpt lat="43.21282" lon="-6.88708">
        <ele>640.1</ele>
        <time>2016-07-11T05:44:52Z</time>
      </trkpt>
      <trkpt lat="43.21273" lon="-6.88714">
        <ele>641.5</ele>
        <time>2016-07-11T05:45:01Z</time>
      </trkpt>
      <trkpt lat="43.21264" lon="-6.88718">
        <ele>642.5</ele>
        <time>2016-07-11T05:45:10Z</time>
      </trkpt>
      <trkpt lat="43.21255" lon="-6.88723">
        <ele>643.3</ele>
        <time>2016-07-11T05:45:18Z</time>
      </trkpt>
      <trkpt lat="43.21246" lon="-6.88727">
        <ele>644.4</ele>
        <time>2016-07-11T05:45:27Z</time>
      </trkpt>
      <trkpt lat="43.21237" lon="-6.88732">
        <ele>645.1</ele>
        <time>2016-07-11T05:45:34Z</time>
      </trkpt>
      <trkpt lat="43.21229" lon="-6.88737">
        <ele>645.7</ele>
        <time>2016-07-11T05:45:43Z</time>
      </trkpt>
      <trkpt lat="43.21221" lon="-6.88744">
        <ele>646.6</ele>
        <time>2016-07-11T05:45:52Z</time>
      </trkpt>
      <trkpt lat="43.21212" lon="-6.88751">
        <ele>647.4</ele>
        <time>2016-07-11T05:46:00Z</time>
      </trkpt>
      <trkpt lat="43.21203" lon="-6.88756">
        <ele>647.9</ele>
        <time>2016-07-11T05:46:08Z</time>
      </trkpt>
      <trkpt lat="43.21195" lon="-6.88762">
        <ele>648.2</ele>
        <time>2016-07-11T05:46:17Z</time>
      </trkpt>
      <trkpt lat="43.21186" lon="-6.88768">
        <ele>649.5</ele>
        <time>2016-07-11T05:46:26Z</time>
      </trkpt>
      <trkpt lat="43.21177" lon="-6.88773">
        <ele>650</ele>
        <time>2016-07-11T05:46:34Z</time>
      </trkpt>
      <trkpt lat="43.21169" lon="-6.88777">
        <ele>650.4</ele>
        <time>2016-07-11T05:46:41Z</time>
      </trkpt>
      <trkpt lat="43.2116" lon="-6.88783">
        <ele>650.7</ele>
        <time>2016-07-11T05:46:48Z</time>
      </trkpt>
      <trkpt lat="43.21152" lon="-6.8879">
        <ele>651.4</ele>
        <time>2016-07-11T05:46:56Z</time>
      </trkpt>
      <trkpt lat="43.21144" lon="-6.88796">
        <ele>652</ele>
        <time>2016-07-11T05:47:04Z</time>
      </trkpt>
      <trkpt lat="43.21136" lon="-6.88804">
        <ele>652.7</ele>
        <time>2016-07-11T05:47:12Z</time>
      </trkpt>
      <trkpt lat="43.21128" lon="-6.88812">
        <ele>653.2</ele>
        <time>2016-07-11T05:47:20Z</time>
      </trkpt>
      <trkpt lat="43.2112" lon="-6.8882">
        <ele>654.1</ele>
        <time>2016-07-11T05:47:30Z</time>
      </trkpt>
      <trkpt lat="43.21114" lon="-6.88829">
        <ele>655.8</ele>
        <time>2016-07-11T05:47:56Z</time>
      </trkpt>
      <trkpt lat="43.21117" lon="-6.88841">
        <ele>657</ele>
        <time>2016-07-11T05:48:48Z</time>
      </trkpt>
      <trkpt lat="43.21116" lon="-6.88853">
        <ele>657.1</ele>
        <time>2016-07-11T05:48:56Z</time>
      </trkpt>
      <trkpt lat="43.21114" lon="-6.88865">
        <ele>657.8</ele>
        <time>2016-07-11T05:49:24Z</time>
      </trkpt>
      <trkpt lat="43.21114" lon="-6.8888">
        <ele>658.2</ele>
        <time>2016-07-11T05:49:32Z</time>
      </trkpt>
      <trkpt lat="43.21114" lon="-6.88893">
        <ele>658.4</ele>
        <time>2016-07-11T05:49:40Z</time>
      </trkpt>
      <trkpt lat="43.21116" lon="-6.88906">
        <ele>659.2</ele>
        <time>2016-07-11T05:49:48Z</time>
      </trkpt>
      <trkpt lat="43.21118" lon="-6.88919">
        <ele>660.2</ele>
        <time>2016-07-11T05:49:56Z</time>
      </trkpt>
      <trkpt lat="43.2112" lon="-6.88932">
        <ele>661</ele>
        <time>2016-07-11T05:50:04Z</time>
      </trkpt>
      <trkpt lat="43.21122" lon="-6.88945">
        <ele>661.9</ele>
        <time>2016-07-11T05:50:12Z</time>
      </trkpt>
      <trkpt lat="43.21127" lon="-6.88956">
        <ele>662.6</ele>
        <time>2016-07-11T05:50:20Z</time>
      </trkpt>
      <trkpt lat="43.21132" lon="-6.88966">
        <ele>663.1</ele>
        <time>2016-07-11T05:50:28Z</time>
      </trkpt>
      <trkpt lat="43.21139" lon="-6.88975">
        <ele>663.4</ele>
        <time>2016-07-11T05:50:36Z</time>
      </trkpt>
      <trkpt lat="43.21146" lon="-6.88984">
        <ele>664.5</ele>
        <time>2016-07-11T05:50:44Z</time>
      </trkpt>
      <trkpt lat="43.21154" lon="-6.88992">
        <ele>665.2</ele>
        <time>2016-07-11T05:50:52Z</time>
      </trkpt>
      <trkpt lat="43.21162" lon="-6.89">
        <ele>665.4</ele>
        <time>2016-07-11T05:50:59Z</time>
      </trkpt>
      <trkpt lat="43.2117" lon="-6.89008">
        <ele>665.5</ele>
        <time>2016-07-11T05:51:06Z</time>
      </trkpt>
      <trkpt lat="43.2118" lon="-6.89009">
        <ele>665.6</ele>
        <time>2016-07-11T05:51:13Z</time>
      </trkpt>
      <trkpt lat="43.21189" lon="-6.89012">
        <ele>665.7</ele>
        <time>2016-07-11T05:51:20Z</time>
      </trkpt>
      <trkpt lat="43.21199" lon="-6.89013">
        <ele>665.7</ele>
        <time>2016-07-11T05:51:27Z</time>
      </trkpt>
      <trkpt lat="43.21198" lon="-6.89026">
        <ele>665.9</ele>
        <time>2016-07-11T05:51:46Z</time>
      </trkpt>
      <trkpt lat="43.21204" lon="-6.89036">
        <ele>665.9</ele>
        <time>2016-07-11T05:51:54Z</time>
      </trkpt>
      <trkpt lat="43.21209" lon="-6.89048">
        <ele>665.5</ele>
        <time>2016-07-11T05:52:02Z</time>
      </trkpt>
      <trkpt lat="43.21212" lon="-6.8906">
        <ele>665.5</ele>
        <time>2016-07-11T05:52:10Z</time>
      </trkpt>
      <trkpt lat="43.21214" lon="-6.89074">
        <ele>665.7</ele>
        <time>2016-07-11T05:52:18Z</time>
      </trkpt>
      <trkpt lat="43.21215" lon="-6.89087">
        <ele>665.8</ele>
        <time>2016-07-11T05:52:25Z</time>
      </trkpt>
      <trkpt lat="43.21214" lon="-6.891">
        <ele>665.7</ele>
        <time>2016-07-11T05:52:32Z</time>
      </trkpt>
      <trkpt lat="43.21212" lon="-6.89113">
        <ele>665.8</ele>
        <time>2016-07-11T05:52:40Z</time>
      </trkpt>
      <trkpt lat="43.21211" lon="-6.89127">
        <ele>665.7</ele>
        <time>2016-07-11T05:52:48Z</time>
      </trkpt>
      <trkpt lat="43.2121" lon="-6.89139">
        <ele>665.8</ele>
        <time>2016-07-11T05:52:57Z</time>
      </trkpt>
      <trkpt lat="43.21205" lon="-6.89151">
        <ele>666.1</ele>
        <time>2016-07-11T05:53:06Z</time>
      </trkpt>
      <trkpt lat="43.21199" lon="-6.89161">
        <ele>667</ele>
        <time>2016-07-11T05:53:15Z</time>
      </trkpt>
      <trkpt lat="43.21191" lon="-6.8917">
        <ele>667.5</ele>
        <time>2016-07-11T05:53:24Z</time>
      </trkpt>
      <trkpt lat="43.21183" lon="-6.89176">
        <ele>667.4</ele>
        <time>2016-07-11T05:53:32Z</time>
      </trkpt>
      <trkpt lat="43.21176" lon="-6.89185">
        <ele>667.5</ele>
        <time>2016-07-11T05:53:41Z</time>
      </trkpt>
      <trkpt lat="43.21169" lon="-6.89195">
        <ele>668.3</ele>
        <time>2016-07-11T05:53:51Z</time>
      </trkpt>
      <trkpt lat="43.21165" lon="-6.89206">
        <ele>668.8</ele>
        <time>2016-07-11T05:53:59Z</time>
      </trkpt>
      <trkpt lat="43.21158" lon="-6.89215">
        <ele>669.3</ele>
        <time>2016-07-11T05:54:06Z</time>
      </trkpt>
      <trkpt lat="43.2115" lon="-6.89224">
        <ele>669.8</ele>
        <time>2016-07-11T05:54:13Z</time>
      </trkpt>
      <trkpt lat="43.21143" lon="-6.89233">
        <ele>670.3</ele>
        <time>2016-07-11T05:54:21Z</time>
      </trkpt>
      <trkpt lat="43.21136" lon="-6.89244">
        <ele>670.6</ele>
        <time>2016-07-11T05:54:29Z</time>
      </trkpt>
      <trkpt lat="43.2113" lon="-6.89253">
        <ele>671.4</ele>
        <time>2016-07-11T05:54:37Z</time>
      </trkpt>
      <trkpt lat="43.21126" lon="-6.89265">
        <ele>672</ele>
        <time>2016-07-11T05:54:46Z</time>
      </trkpt>
      <trkpt lat="43.21123" lon="-6.89278">
        <ele>672.4</ele>
        <time>2016-07-11T05:54:54Z</time>
      </trkpt>
      <trkpt lat="43.21121" lon="-6.89292">
        <ele>673</ele>
        <time>2016-07-11T05:55:03Z</time>
      </trkpt>
      <trkpt lat="43.2112" lon="-6.89305">
        <ele>673.9</ele>
        <time>2016-07-11T05:55:11Z</time>
      </trkpt>
      <trkpt lat="43.21119" lon="-6.89317">
        <ele>675</ele>
        <time>2016-07-11T05:55:19Z</time>
      </trkpt>
      <trkpt lat="43.21118" lon="-6.89331">
        <ele>676</ele>
        <time>2016-07-11T05:55:27Z</time>
      </trkpt>
      <trkpt lat="43.2112" lon="-6.89345">
        <ele>676.5</ele>
        <time>2016-07-11T05:55:34Z</time>
      </trkpt>
      <trkpt lat="43.21121" lon="-6.89359">
        <ele>677.1</ele>
        <time>2016-07-11T05:55:41Z</time>
      </trkpt>
      <trkpt lat="43.21122" lon="-6.89372">
        <ele>677.6</ele>
        <time>2016-07-11T05:55:48Z</time>
      </trkpt>
      <trkpt lat="43.21123" lon="-6.89385">
        <ele>678.1</ele>
        <time>2016-07-11T05:55:55Z</time>
      </trkpt>
      <trkpt lat="43.21123" lon="-6.89399">
        <ele>678.5</ele>
        <time>2016-07-11T05:56:03Z</time>
      </trkpt>
      <trkpt lat="43.21123" lon="-6.89412">
        <ele>678.7</ele>
        <time>2016-07-11T05:56:11Z</time>
      </trkpt>
      <trkpt lat="43.21123" lon="-6.89425">
        <ele>679.1</ele>
        <time>2016-07-11T05:56:19Z</time>
      </trkpt>
      <trkpt lat="43.21121" lon="-6.89438">
        <ele>679.2</ele>
        <time>2016-07-11T05:56:27Z</time>
      </trkpt>
      <trkpt lat="43.21119" lon="-6.89451">
        <ele>679.3</ele>
        <time>2016-07-11T05:56:34Z</time>
      </trkpt>
      <trkpt lat="43.21118" lon="-6.89463">
        <ele>679.7</ele>
        <time>2016-07-11T05:56:41Z</time>
      </trkpt>
      <trkpt lat="43.21116" lon="-6.89477">
        <ele>680.2</ele>
        <time>2016-07-11T05:56:49Z</time>
      </trkpt>
      <trkpt lat="43.21113" lon="-6.8949">
        <ele>680.5</ele>
        <time>2016-07-11T05:56:57Z</time>
      </trkpt>
      <trkpt lat="43.2111" lon="-6.89502">
        <ele>680.8</ele>
        <time>2016-07-11T05:57:05Z</time>
      </trkpt>
      <trkpt lat="43.21106" lon="-6.89513">
        <ele>680.9</ele>
        <time>2016-07-11T05:57:13Z</time>
      </trkpt>
      <trkpt lat="43.21102" lon="-6.89525">
        <ele>680.9</ele>
        <time>2016-07-11T05:57:21Z</time>
      </trkpt>
      <trkpt lat="43.21098" lon="-6.89537">
        <ele>681.4</ele>
        <time>2016-07-11T05:57:29Z</time>
      </trkpt>
      <trkpt lat="43.21093" lon="-6.89548">
        <ele>681.9</ele>
        <time>2016-07-11T05:57:37Z</time>
      </trkpt>
      <trkpt lat="43.21088" lon="-6.8956">
        <ele>682.1</ele>
        <time>2016-07-11T05:57:45Z</time>
      </trkpt>
      <trkpt lat="43.21084" lon="-6.89571">
        <ele>682.3</ele>
        <time>2016-07-11T05:57:52Z</time>
      </trkpt>
      <trkpt lat="43.2108" lon="-6.89582">
        <ele>682.4</ele>
        <time>2016-07-11T05:57:59Z</time>
      </trkpt>
      <trkpt lat="43.21075" lon="-6.89595">
        <ele>682.4</ele>
        <time>2016-07-11T05:58:06Z</time>
      </trkpt>
      <trkpt lat="43.21073" lon="-6.89608">
        <ele>682.5</ele>
        <time>2016-07-11T05:58:13Z</time>
      </trkpt>
      <trkpt lat="43.21074" lon="-6.89622">
        <ele>682.1</ele>
        <time>2016-07-11T05:58:20Z</time>
      </trkpt>
      <trkpt lat="43.21077" lon="-6.89634">
        <ele>681.8</ele>
        <time>2016-07-11T05:58:27Z</time>
      </trkpt>
      <trkpt lat="43.2108" lon="-6.89647">
        <ele>681.5</ele>
        <time>2016-07-11T05:58:34Z</time>
      </trkpt>
      <trkpt lat="43.21084" lon="-6.89659">
        <ele>681.2</ele>
        <time>2016-07-11T05:58:41Z</time>
      </trkpt>
      <trkpt lat="43.21089" lon="-6.89671">
        <ele>680.5</ele>
        <time>2016-07-11T05:58:48Z</time>
      </trkpt>
      <trkpt lat="43.21092" lon="-6.89683">
        <ele>680</ele>
        <time>2016-07-11T05:58:55Z</time>
      </trkpt>
      <trkpt lat="43.21097" lon="-6.89694">
        <ele>679.4</ele>
        <time>2016-07-11T05:59:02Z</time>
      </trkpt>
      <trkpt lat="43.21102" lon="-6.89704">
        <ele>679</ele>
        <time>2016-07-11T05:59:09Z</time>
      </trkpt>
      <trkpt lat="43.21108" lon="-6.89715">
        <ele>678.2</ele>
        <time>2016-07-11T05:59:16Z</time>
      </trkpt>
      <trkpt lat="43.21113" lon="-6.89725">
        <ele>677.2</ele>
        <time>2016-07-11T05:59:24Z</time>
      </trkpt>
      <trkpt lat="43.21118" lon="-6.89736">
        <ele>676.7</ele>
        <time>2016-07-11T05:59:32Z</time>
      </trkpt>
      <trkpt lat="43.21125" lon="-6.89747">
        <ele>675.7</ele>
        <time>2016-07-11T05:59:40Z</time>
      </trkpt>
      <trkpt lat="43.21132" lon="-6.89755">
        <ele>674.9</ele>
        <time>2016-07-11T05:59:47Z</time>
      </trkpt>
      <trkpt lat="43.21138" lon="-6.89764">
        <ele>674.2</ele>
        <time>2016-07-11T05:59:54Z</time>
      </trkpt>
      <trkpt lat="43.21142" lon="-6.89777">
        <ele>673.7</ele>
        <time>2016-07-11T06:00:01Z</time>
      </trkpt>
      <trkpt lat="43.2114" lon="-6.8979">
        <ele>673.2</ele>
        <time>2016-07-11T06:00:08Z</time>
      </trkpt>
      <trkpt lat="43.21145" lon="-6.89801">
        <ele>671</ele>
        <time>2016-07-11T06:00:25Z</time>
      </trkpt>
      <trkpt lat="43.21151" lon="-6.89811">
        <ele>670.5</ele>
        <time>2016-07-11T06:00:34Z</time>
      </trkpt>
      <trkpt lat="43.21157" lon="-6.89822">
        <ele>670.4</ele>
        <time>2016-07-11T06:00:43Z</time>
      </trkpt>
      <trkpt lat="43.21161" lon="-6.89833">
        <ele>669.9</ele>
        <time>2016-07-11T06:00:50Z</time>
      </trkpt>
      <trkpt lat="43.21167" lon="-6.89844">
        <ele>668.9</ele>
        <time>2016-07-11T06:00:58Z</time>
      </trkpt>
      <trkpt lat="43.21174" lon="-6.89854">
        <ele>668.4</ele>
        <time>2016-07-11T06:01:06Z</time>
      </trkpt>
      <trkpt lat="43.2118" lon="-6.89864">
        <ele>667.8</ele>
        <time>2016-07-11T06:01:13Z</time>
      </trkpt>
      <trkpt lat="43.21186" lon="-6.89875">
        <ele>667.2</ele>
        <time>2016-07-11T06:01:20Z</time>
      </trkpt>
      <trkpt lat="43.21192" lon="-6.89885">
        <ele>666.4</ele>
        <time>2016-07-11T06:01:27Z</time>
      </trkpt>
      <trkpt lat="43.21199" lon="-6.89895">
        <ele>665.6</ele>
        <time>2016-07-11T06:01:34Z</time>
      </trkpt>
      <trkpt lat="43.21207" lon="-6.89904">
        <ele>664.4</ele>
        <time>2016-07-11T06:01:42Z</time>
      </trkpt>
      <trkpt lat="43.21213" lon="-6.89913">
        <ele>663.3</ele>
        <time>2016-07-11T06:01:50Z</time>
      </trkpt>
      <trkpt lat="43.21218" lon="-6.89925">
        <ele>662.5</ele>
        <time>2016-07-11T06:01:58Z</time>
      </trkpt>
      <trkpt lat="43.21225" lon="-6.89936">
        <ele>661.9</ele>
        <time>2016-07-11T06:02:06Z</time>
      </trkpt>
      <trkpt lat="43.21231" lon="-6.89946">
        <ele>660.8</ele>
        <time>2016-07-11T06:02:13Z</time>
      </trkpt>
      <trkpt lat="43.21234" lon="-6.89959">
        <ele>659.8</ele>
        <time>2016-07-11T06:02:20Z</time>
      </trkpt>
      <trkpt lat="43.21237" lon="-6.89971">
        <ele>658.8</ele>
        <time>2016-07-11T06:02:27Z</time>
      </trkpt>
      <trkpt lat="43.21241" lon="-6.89983">
        <ele>656.8</ele>
        <time>2016-07-11T06:02:39Z</time>
      </trkpt>
      <trkpt lat="43.21245" lon="-6.89996">
        <ele>655.8</ele>
        <time>2016-07-11T06:02:47Z</time>
      </trkpt>
      <trkpt lat="43.21246" lon="-6.90009">
        <ele>654.4</ele>
        <time>2016-07-11T06:02:55Z</time>
      </trkpt>
      <trkpt lat="43.21246" lon="-6.90023">
        <ele>653.3</ele>
        <time>2016-07-11T06:03:02Z</time>
      </trkpt>
      <trkpt lat="43.21252" lon="-6.90033">
        <ele>652.4</ele>
        <time>2016-07-11T06:03:09Z</time>
      </trkpt>
      <trkpt lat="43.21256" lon="-6.90045">
        <ele>651.4</ele>
        <time>2016-07-11T06:03:15Z</time>
      </trkpt>
      <trkpt lat="43.21257" lon="-6.90058">
        <ele>650.4</ele>
        <time>2016-07-11T06:03:22Z</time>
      </trkpt>
      <trkpt lat="43.21254" lon="-6.90071">
        <ele>649.5</ele>
        <time>2016-07-11T06:03:29Z</time>
      </trkpt>
      <trkpt lat="43.21248" lon="-6.90083">
        <ele>648.4</ele>
        <time>2016-07-11T06:03:37Z</time>
      </trkpt>
      <trkpt lat="43.21243" lon="-6.90094">
        <ele>647.7</ele>
        <time>2016-07-11T06:03:44Z</time>
      </trkpt>
      <trkpt lat="43.21239" lon="-6.90106">
        <ele>647.4</ele>
        <time>2016-07-11T06:03:52Z</time>
      </trkpt>
      <trkpt lat="43.21234" lon="-6.90118">
        <ele>647.4</ele>
        <time>2016-07-11T06:04:01Z</time>
      </trkpt>
      <trkpt lat="43.21228" lon="-6.90127">
        <ele>647.3</ele>
        <time>2016-07-11T06:04:08Z</time>
      </trkpt>
      <trkpt lat="43.21223" lon="-6.90138">
        <ele>647.5</ele>
        <time>2016-07-11T06:04:15Z</time>
      </trkpt>
      <trkpt lat="43.21218" lon="-6.9015">
        <ele>647.5</ele>
        <time>2016-07-11T06:04:22Z</time>
      </trkpt>
      <trkpt lat="43.21214" lon="-6.90162">
        <ele>647.5</ele>
        <time>2016-07-11T06:04:29Z</time>
      </trkpt>
      <trkpt lat="43.21211" lon="-6.90174">
        <ele>647.5</ele>
        <time>2016-07-11T06:04:36Z</time>
      </trkpt>
      <trkpt lat="43.21217" lon="-6.90186">
        <ele>647.1</ele>
        <time>2016-07-11T06:05:02Z</time>
      </trkpt>
      <trkpt lat="43.21225" lon="-6.90191">
        <ele>647.1</ele>
        <time>2016-07-11T06:05:06Z</time>
      </trkpt>
      <trkpt lat="43.21234" lon="-6.90193">
        <ele>646</ele>
        <time>2016-07-11T06:06:14Z</time>
      </trkpt>
      <trkpt lat="43.21248" lon="-6.90204">
        <ele>646.9</ele>
        <time>2016-07-11T06:06:21Z</time>
      </trkpt>
      <trkpt lat="43.21239" lon="-6.902">
        <ele>647.1</ele>
        <time>2016-07-11T06:06:30Z</time>
      </trkpt>
      <trkpt lat="43.2123" lon="-6.90194">
        <ele>647.3</ele>
        <time>2016-07-11T06:06:37Z</time>
      </trkpt>
      <trkpt lat="43.21221" lon="-6.90188">
        <ele>646.9</ele>
        <time>2016-07-11T06:06:43Z</time>
      </trkpt>
      <trkpt lat="43.21212" lon="-6.90191">
        <ele>648.3</ele>
        <time>2016-07-11T06:06:51Z</time>
      </trkpt>
      <trkpt lat="43.21221" lon="-6.90188">
        <ele>648.4</ele>
        <time>2016-07-11T06:07:59Z</time>
      </trkpt>
      <trkpt lat="43.21233" lon="-6.90189">
        <ele>648</ele>
        <time>2016-07-11T06:08:24Z</time>
      </trkpt>
      <trkpt lat="43.21223" lon="-6.90189">
        <ele>649</ele>
        <time>2016-07-11T06:09:08Z</time>
      </trkpt>
      <trkpt lat="43.21233" lon="-6.90195">
        <ele>648</ele>
        <time>2016-07-11T06:09:24Z</time>
      </trkpt>
      <trkpt lat="43.21248" lon="-6.90208">
        <ele>649</ele>
        <time>2016-07-11T06:09:53Z</time>
      </trkpt>
      <trkpt lat="43.21237" lon="-6.90203">
        <ele>649</ele>
        <time>2016-07-11T06:10:09Z</time>
      </trkpt>
      <trkpt lat="43.21216" lon="-6.90195">
        <ele>649</ele>
        <time>2016-07-11T06:10:15Z</time>
      </trkpt>
      <trkpt lat="43.21209" lon="-6.90188">
        <ele>650.7</ele>
        <time>2016-07-11T06:10:50Z</time>
      </trkpt>
      <trkpt lat="43.21209" lon="-6.90201">
        <ele>650.5</ele>
        <time>2016-07-11T06:12:30Z</time>
      </trkpt>
      <trkpt lat="43.21207" lon="-6.90214">
        <ele>650.4</ele>
        <time>2016-07-11T06:12:39Z</time>
      </trkpt>
      <trkpt lat="43.21205" lon="-6.90228">
        <ele>650.1</ele>
        <time>2016-07-11T06:12:47Z</time>
      </trkpt>
      <trkpt lat="43.21203" lon="-6.90241">
        <ele>650.3</ele>
        <time>2016-07-11T06:12:56Z</time>
      </trkpt>
      <trkpt lat="43.21201" lon="-6.90255">
        <ele>650.5</ele>
        <time>2016-07-11T06:13:04Z</time>
      </trkpt>
      <trkpt lat="43.21199" lon="-6.90268">
        <ele>650.6</ele>
        <time>2016-07-11T06:13:12Z</time>
      </trkpt>
      <trkpt lat="43.21197" lon="-6.9028">
        <ele>650.6</ele>
        <time>2016-07-11T06:13:20Z</time>
      </trkpt>
      <trkpt lat="43.21193" lon="-6.90293">
        <ele>650.6</ele>
        <time>2016-07-11T06:13:28Z</time>
      </trkpt>
      <trkpt lat="43.21189" lon="-6.90304">
        <ele>650.9</ele>
        <time>2016-07-11T06:13:35Z</time>
      </trkpt>
      <trkpt lat="43.21185" lon="-6.90316">
        <ele>650.9</ele>
        <time>2016-07-11T06:13:43Z</time>
      </trkpt>
      <trkpt lat="43.2118" lon="-6.90327">
        <ele>650.8</ele>
        <time>2016-07-11T06:13:50Z</time>
      </trkpt>
      <trkpt lat="43.21174" lon="-6.90339">
        <ele>650.8</ele>
        <time>2016-07-11T06:13:58Z</time>
      </trkpt>
      <trkpt lat="43.21169" lon="-6.90349">
        <ele>650.6</ele>
        <time>2016-07-11T06:14:05Z</time>
      </trkpt>
      <trkpt lat="43.21163" lon="-6.90358">
        <ele>650.4</ele>
        <time>2016-07-11T06:14:12Z</time>
      </trkpt>
      <trkpt lat="43.21157" lon="-6.90369">
        <ele>650.1</ele>
        <time>2016-07-11T06:14:20Z</time>
      </trkpt>
      <trkpt lat="43.21152" lon="-6.90379">
        <ele>649.8</ele>
        <time>2016-07-11T06:14:35Z</time>
      </trkpt>
      <trkpt lat="43.21148" lon="-6.90392">
        <ele>649.9</ele>
        <time>2016-07-11T06:14:43Z</time>
      </trkpt>
      <trkpt lat="43.21143" lon="-6.90404">
        <ele>649.2</ele>
        <time>2016-07-11T06:14:51Z</time>
      </trkpt>
      <trkpt lat="43.21139" lon="-6.90417">
        <ele>648.8</ele>
        <time>2016-07-11T06:14:59Z</time>
      </trkpt>
      <trkpt lat="43.21134" lon="-6.90429">
        <ele>648.6</ele>
        <time>2016-07-11T06:15:08Z</time>
      </trkpt>
      <trkpt lat="43.2113" lon="-6.9044">
        <ele>648.7</ele>
        <time>2016-07-11T06:15:15Z</time>
      </trkpt>
      <trkpt lat="43.21124" lon="-6.90452">
        <ele>648.6</ele>
        <time>2016-07-11T06:15:22Z</time>
      </trkpt>
      <trkpt lat="43.21119" lon="-6.90462">
        <ele>648.5</ele>
        <time>2016-07-11T06:15:29Z</time>
      </trkpt>
      <trkpt lat="43.21113" lon="-6.90472">
        <ele>648.2</ele>
        <time>2016-07-11T06:15:36Z</time>
      </trkpt>
      <trkpt lat="43.21108" lon="-6.90483">
        <ele>647.8</ele>
        <time>2016-07-11T06:15:43Z</time>
      </trkpt>
      <trkpt lat="43.21104" lon="-6.90495">
        <ele>647.6</ele>
        <time>2016-07-11T06:15:50Z</time>
      </trkpt>
      <trkpt lat="43.21098" lon="-6.90507">
        <ele>646.9</ele>
        <time>2016-07-11T06:15:57Z</time>
      </trkpt>
      <trkpt lat="43.21095" lon="-6.90519">
        <ele>646.5</ele>
        <time>2016-07-11T06:16:04Z</time>
      </trkpt>
      <trkpt lat="43.21091" lon="-6.90531">
        <ele>646.2</ele>
        <time>2016-07-11T06:16:11Z</time>
      </trkpt>
      <trkpt lat="43.21086" lon="-6.90543">
        <ele>645.9</ele>
        <time>2016-07-11T06:16:18Z</time>
      </trkpt>
      <trkpt lat="43.21081" lon="-6.90554">
        <ele>645.5</ele>
        <time>2016-07-11T06:16:26Z</time>
      </trkpt>
      <trkpt lat="43.21076" lon="-6.90566">
        <ele>645.1</ele>
        <time>2016-07-11T06:16:34Z</time>
      </trkpt>
      <trkpt lat="43.2107" lon="-6.90577">
        <ele>644.8</ele>
        <time>2016-07-11T06:16:41Z</time>
      </trkpt>
      <trkpt lat="43.21065" lon="-6.90588">
        <ele>644.7</ele>
        <time>2016-07-11T06:16:48Z</time>
      </trkpt>
      <trkpt lat="43.2106" lon="-6.906">
        <ele>644.6</ele>
        <time>2016-07-11T06:16:56Z</time>
      </trkpt>
      <trkpt lat="43.21059" lon="-6.90613">
        <ele>644.5</ele>
        <time>2016-07-11T06:17:03Z</time>
      </trkpt>
      <trkpt lat="43.21059" lon="-6.90626">
        <ele>644.4</ele>
        <time>2016-07-11T06:17:10Z</time>
      </trkpt>
      <trkpt lat="43.2106" lon="-6.90639">
        <ele>644</ele>
        <time>2016-07-11T06:17:17Z</time>
      </trkpt>
      <trkpt lat="43.21063" lon="-6.90651">
        <ele>643.7</ele>
        <time>2016-07-11T06:17:24Z</time>
      </trkpt>
      <trkpt lat="43.21068" lon="-6.90661">
        <ele>643.5</ele>
        <time>2016-07-11T06:17:31Z</time>
      </trkpt>
      <trkpt lat="43.21074" lon="-6.90673">
        <ele>643.7</ele>
        <time>2016-07-11T06:17:38Z</time>
      </trkpt>
      <trkpt lat="43.21079" lon="-6.90685">
        <ele>643.7</ele>
        <time>2016-07-11T06:17:45Z</time>
      </trkpt>
      <trkpt lat="43.21084" lon="-6.90697">
        <ele>643.9</ele>
        <time>2016-07-11T06:17:52Z</time>
      </trkpt>
      <trkpt lat="43.21089" lon="-6.90708">
        <ele>643.6</ele>
        <time>2016-07-11T06:17:59Z</time>
      </trkpt>
      <trkpt lat="43.21094" lon="-6.90718">
        <ele>643.8</ele>
        <time>2016-07-11T06:18:06Z</time>
      </trkpt>
      <trkpt lat="43.21099" lon="-6.9073">
        <ele>643.9</ele>
        <time>2016-07-11T06:18:13Z</time>
      </trkpt>
      <trkpt lat="43.21104" lon="-6.90741">
        <ele>644</ele>
        <time>2016-07-11T06:18:20Z</time>
      </trkpt>
      <trkpt lat="43.21109" lon="-6.90751">
        <ele>644.1</ele>
        <time>2016-07-11T06:18:27Z</time>
      </trkpt>
      <trkpt lat="43.21114" lon="-6.90763">
        <ele>644.1</ele>
        <time>2016-07-11T06:18:34Z</time>
      </trkpt>
      <trkpt lat="43.21119" lon="-6.90774">
        <ele>644.2</ele>
        <time>2016-07-11T06:18:41Z</time>
      </trkpt>
      <trkpt lat="43.21125" lon="-6.90785">
        <ele>644.2</ele>
        <time>2016-07-11T06:18:49Z</time>
      </trkpt>
      <trkpt lat="43.2113" lon="-6.90796">
        <ele>644.4</ele>
        <time>2016-07-11T06:18:56Z</time>
      </trkpt>
      <trkpt lat="43.21135" lon="-6.90806">
        <ele>644.5</ele>
        <time>2016-07-11T06:19:04Z</time>
      </trkpt>
      <trkpt lat="43.21133" lon="-6.90819">
        <ele>644.4</ele>
        <time>2016-07-11T06:19:12Z</time>
      </trkpt>
      <trkpt lat="43.2113" lon="-6.90833">
        <ele>644.4</ele>
        <time>2016-07-11T06:19:20Z</time>
      </trkpt>
      <trkpt lat="43.21127" lon="-6.90844">
        <ele>644.4</ele>
        <time>2016-07-11T06:19:27Z</time>
      </trkpt>
      <trkpt lat="43.21123" lon="-6.90857">
        <ele>644.4</ele>
        <time>2016-07-11T06:19:34Z</time>
      </trkpt>
      <trkpt lat="43.21119" lon="-6.90869">
        <ele>644.1</ele>
        <time>2016-07-11T06:19:42Z</time>
      </trkpt>
      <trkpt lat="43.21115" lon="-6.90881">
        <ele>643.9</ele>
        <time>2016-07-11T06:19:49Z</time>
      </trkpt>
      <trkpt lat="43.21111" lon="-6.90893">
        <ele>643.7</ele>
        <time>2016-07-11T06:19:57Z</time>
      </trkpt>
      <trkpt lat="43.21107" lon="-6.90905">
        <ele>643.8</ele>
        <time>2016-07-11T06:20:05Z</time>
      </trkpt>
      <trkpt lat="43.21103" lon="-6.90916">
        <ele>644.1</ele>
        <time>2016-07-11T06:20:12Z</time>
      </trkpt>
      <trkpt lat="43.211" lon="-6.90929">
        <ele>644.6</ele>
        <time>2016-07-11T06:20:20Z</time>
      </trkpt>
      <trkpt lat="43.21097" lon="-6.90941">
        <ele>644.7</ele>
        <time>2016-07-11T06:20:27Z</time>
      </trkpt>
      <trkpt lat="43.21093" lon="-6.90954">
        <ele>644.6</ele>
        <time>2016-07-11T06:20:35Z</time>
      </trkpt>
      <trkpt lat="43.2109" lon="-6.90966">
        <ele>644.8</ele>
        <time>2016-07-11T06:20:42Z</time>
      </trkpt>
      <trkpt lat="43.21087" lon="-6.90978">
        <ele>644.9</ele>
        <time>2016-07-11T06:20:50Z</time>
      </trkpt>
      <trkpt lat="43.21084" lon="-6.90992">
        <ele>645</ele>
        <time>2016-07-11T06:20:58Z</time>
      </trkpt>
      <trkpt lat="43.21081" lon="-6.91004">
        <ele>645.2</ele>
        <time>2016-07-11T06:21:06Z</time>
      </trkpt>
      <trkpt lat="43.21079" lon="-6.91017">
        <ele>645.2</ele>
        <time>2016-07-11T06:21:14Z</time>
      </trkpt>
      <trkpt lat="43.21075" lon="-6.9103">
        <ele>645.4</ele>
        <time>2016-07-11T06:21:24Z</time>
      </trkpt>
      <trkpt lat="43.21071" lon="-6.91041">
        <ele>645.7</ele>
        <time>2016-07-11T06:21:33Z</time>
      </trkpt>
      <trkpt lat="43.21066" lon="-6.91053">
        <ele>645.9</ele>
        <time>2016-07-11T06:21:42Z</time>
      </trkpt>
      <trkpt lat="43.21062" lon="-6.91066">
        <ele>646</ele>
        <time>2016-07-11T06:21:51Z</time>
      </trkpt>
      <trkpt lat="43.21059" lon="-6.91078">
        <ele>646.1</ele>
        <time>2016-07-11T06:21:59Z</time>
      </trkpt>
      <trkpt lat="43.21055" lon="-6.9109">
        <ele>646.1</ele>
        <time>2016-07-11T06:22:07Z</time>
      </trkpt>
      <trkpt lat="43.21051" lon="-6.91102">
        <ele>646.1</ele>
        <time>2016-07-11T06:22:15Z</time>
      </trkpt>
      <trkpt lat="43.21047" lon="-6.91113">
        <ele>646.2</ele>
        <time>2016-07-11T06:22:24Z</time>
      </trkpt>
      <trkpt lat="43.21044" lon="-6.91126">
        <ele>646.6</ele>
        <time>2016-07-11T06:22:32Z</time>
      </trkpt>
      <trkpt lat="43.2104" lon="-6.91138">
        <ele>646.9</ele>
        <time>2016-07-11T06:22:40Z</time>
      </trkpt>
      <trkpt lat="43.21035" lon="-6.91149">
        <ele>647.1</ele>
        <time>2016-07-11T06:22:47Z</time>
      </trkpt>
      <trkpt lat="43.2103" lon="-6.91161">
        <ele>647.3</ele>
        <time>2016-07-11T06:22:54Z</time>
      </trkpt>
      <trkpt lat="43.21025" lon="-6.91171">
        <ele>647.2</ele>
        <time>2016-07-11T06:23:01Z</time>
      </trkpt>
      <trkpt lat="43.2102" lon="-6.91182">
        <ele>646.9</ele>
        <time>2016-07-11T06:23:08Z</time>
      </trkpt>
      <trkpt lat="43.2101" lon="-6.91184">
        <ele>646.7</ele>
        <time>2016-07-11T06:23:19Z</time>
      </trkpt>
      <trkpt lat="43.21001" lon="-6.91182">
        <ele>646.6</ele>
        <time>2016-07-11T06:23:27Z</time>
      </trkpt>
      <trkpt lat="43.20992" lon="-6.91178">
        <ele>646.4</ele>
        <time>2016-07-11T06:23:35Z</time>
      </trkpt>
      <trkpt lat="43.20982" lon="-6.91176">
        <ele>646.3</ele>
        <time>2016-07-11T06:23:43Z</time>
      </trkpt>
      <trkpt lat="43.20973" lon="-6.91175">
        <ele>646.3</ele>
        <time>2016-07-11T06:23:51Z</time>
      </trkpt>
      <trkpt lat="43.20964" lon="-6.91173">
        <ele>646.3</ele>
        <time>2016-07-11T06:23:59Z</time>
      </trkpt>
      <trkpt lat="43.20953" lon="-6.91172">
        <ele>645.9</ele>
        <time>2016-07-11T06:24:08Z</time>
      </trkpt>
      <trkpt lat="43.20944" lon="-6.91173">
        <ele>645.7</ele>
        <time>2016-07-11T06:24:15Z</time>
      </trkpt>
      <trkpt lat="43.20934" lon="-6.91172">
        <ele>645.5</ele>
        <time>2016-07-11T06:24:23Z</time>
      </trkpt>
      <trkpt lat="43.20925" lon="-6.91175">
        <ele>645.4</ele>
        <time>2016-07-11T06:24:30Z</time>
      </trkpt>
      <trkpt lat="43.20916" lon="-6.91178">
        <ele>645.1</ele>
        <time>2016-07-11T06:24:38Z</time>
      </trkpt>
      <trkpt lat="43.20907" lon="-6.91183">
        <ele>644.9</ele>
        <time>2016-07-11T06:24:46Z</time>
      </trkpt>
      <trkpt lat="43.20898" lon="-6.91188">
        <ele>644.7</ele>
        <time>2016-07-11T06:24:54Z</time>
      </trkpt>
      <trkpt lat="43.2089" lon="-6.91194">
        <ele>644.9</ele>
        <time>2016-07-11T06:25:01Z</time>
      </trkpt>
      <trkpt lat="43.20883" lon="-6.91202">
        <ele>645.3</ele>
        <time>2016-07-11T06:25:11Z</time>
      </trkpt>
      <trkpt lat="43.20876" lon="-6.91211">
        <ele>645.5</ele>
        <time>2016-07-11T06:25:21Z</time>
      </trkpt>
      <trkpt lat="43.20869" lon="-6.91221">
        <ele>645.6</ele>
        <time>2016-07-11T06:25:29Z</time>
      </trkpt>
      <trkpt lat="43.20863" lon="-6.91232">
        <ele>645.4</ele>
        <time>2016-07-11T06:25:38Z</time>
      </trkpt>
      <trkpt lat="43.20858" lon="-6.91242">
        <ele>645.6</ele>
        <time>2016-07-11T06:25:49Z</time>
      </trkpt>
      <trkpt lat="43.20852" lon="-6.91252">
        <ele>645.6</ele>
        <time>2016-07-11T06:25:56Z</time>
      </trkpt>
      <trkpt lat="43.20846" lon="-6.91262">
        <ele>645.9</ele>
        <time>2016-07-11T06:26:03Z</time>
      </trkpt>
      <trkpt lat="43.20841" lon="-6.91272">
        <ele>646.4</ele>
        <time>2016-07-11T06:26:10Z</time>
      </trkpt>
      <trkpt lat="43.20835" lon="-6.91282">
        <ele>647</ele>
        <time>2016-07-11T06:26:20Z</time>
      </trkpt>
      <trkpt lat="43.20828" lon="-6.9129">
        <ele>646.7</ele>
        <time>2016-07-11T06:26:27Z</time>
      </trkpt>
      <trkpt lat="43.20822" lon="-6.913">
        <ele>646.7</ele>
        <time>2016-07-11T06:26:35Z</time>
      </trkpt>
      <trkpt lat="43.20816" lon="-6.9131">
        <ele>647</ele>
        <time>2016-07-11T06:26:42Z</time>
      </trkpt>
      <trkpt lat="43.2081" lon="-6.91321">
        <ele>647.4</ele>
        <time>2016-07-11T06:26:50Z</time>
      </trkpt>
      <trkpt lat="43.20805" lon="-6.91333">
        <ele>647.6</ele>
        <time>2016-07-11T06:26:58Z</time>
      </trkpt>
      <trkpt lat="43.20799" lon="-6.91343">
        <ele>647.7</ele>
        <time>2016-07-11T06:27:06Z</time>
      </trkpt>
      <trkpt lat="43.20793" lon="-6.91355">
        <ele>647.9</ele>
        <time>2016-07-11T06:27:15Z</time>
      </trkpt>
      <trkpt lat="43.20788" lon="-6.91365">
        <ele>648.2</ele>
        <time>2016-07-11T06:27:22Z</time>
      </trkpt>
      <trkpt lat="43.20784" lon="-6.91377">
        <ele>648.6</ele>
        <time>2016-07-11T06:27:29Z</time>
      </trkpt>
      <trkpt lat="43.2078" lon="-6.91388">
        <ele>649.1</ele>
        <time>2016-07-11T06:27:38Z</time>
      </trkpt>
      <trkpt lat="43.20775" lon="-6.91398">
        <ele>649.4</ele>
        <time>2016-07-11T06:27:45Z</time>
      </trkpt>
      <trkpt lat="43.20768" lon="-6.91409">
        <ele>649.9</ele>
        <time>2016-07-11T06:27:53Z</time>
      </trkpt>
      <trkpt lat="43.2076" lon="-6.91418">
        <ele>650.8</ele>
        <time>2016-07-11T06:28:02Z</time>
      </trkpt>
      <trkpt lat="43.20754" lon="-6.91427">
        <ele>651</ele>
        <time>2016-07-11T06:28:10Z</time>
      </trkpt>
      <trkpt lat="43.20748" lon="-6.91437">
        <ele>651.5</ele>
        <time>2016-07-11T06:28:17Z</time>
      </trkpt>
      <trkpt lat="43.20743" lon="-6.91447">
        <ele>652</ele>
        <time>2016-07-11T06:28:24Z</time>
      </trkpt>
      <trkpt lat="43.20738" lon="-6.91459">
        <ele>652.2</ele>
        <time>2016-07-11T06:28:32Z</time>
      </trkpt>
      <trkpt lat="43.20732" lon="-6.9147">
        <ele>652.4</ele>
        <time>2016-07-11T06:28:39Z</time>
      </trkpt>
      <trkpt lat="43.20726" lon="-6.9148">
        <ele>652.6</ele>
        <time>2016-07-11T06:28:46Z</time>
      </trkpt>
      <trkpt lat="43.20721" lon="-6.9149">
        <ele>653</ele>
        <time>2016-07-11T06:28:57Z</time>
      </trkpt>
      <trkpt lat="43.20714" lon="-6.91499">
        <ele>653.8</ele>
        <time>2016-07-11T06:29:18Z</time>
      </trkpt>
      <trkpt lat="43.20706" lon="-6.91507">
        <ele>654</ele>
        <time>2016-07-11T06:29:27Z</time>
      </trkpt>
      <trkpt lat="43.20699" lon="-6.91516">
        <ele>654.4</ele>
        <time>2016-07-11T06:29:35Z</time>
      </trkpt>
      <trkpt lat="43.20694" lon="-6.91526">
        <ele>654.7</ele>
        <time>2016-07-11T06:29:44Z</time>
      </trkpt>
      <trkpt lat="43.20689" lon="-6.91538">
        <ele>655.1</ele>
        <time>2016-07-11T06:29:53Z</time>
      </trkpt>
      <trkpt lat="43.20684" lon="-6.91548">
        <ele>655.2</ele>
        <time>2016-07-11T06:30:02Z</time>
      </trkpt>
      <trkpt lat="43.20678" lon="-6.91558">
        <ele>655.1</ele>
        <time>2016-07-11T06:30:11Z</time>
      </trkpt>
      <trkpt lat="43.20672" lon="-6.91569">
        <ele>654.9</ele>
        <time>2016-07-11T06:30:21Z</time>
      </trkpt>
      <trkpt lat="43.20667" lon="-6.91581">
        <ele>655.3</ele>
        <time>2016-07-11T06:30:29Z</time>
      </trkpt>
      <trkpt lat="43.20661" lon="-6.91591">
        <ele>655.4</ele>
        <time>2016-07-11T06:30:35Z</time>
      </trkpt>
      <trkpt lat="43.20653" lon="-6.916">
        <ele>655.3</ele>
        <time>2016-07-11T06:30:41Z</time>
      </trkpt>
      <trkpt lat="43.20645" lon="-6.91608">
        <ele>655.1</ele>
        <time>2016-07-11T06:30:47Z</time>
      </trkpt>
      <trkpt lat="43.20639" lon="-6.91618">
        <ele>655.2</ele>
        <time>2016-07-11T06:30:53Z</time>
      </trkpt>
      <trkpt lat="43.20633" lon="-6.91629">
        <ele>655.4</ele>
        <time>2016-07-11T06:31:00Z</time>
      </trkpt>
      <trkpt lat="43.20628" lon="-6.9164">
        <ele>655.6</ele>
        <time>2016-07-11T06:31:07Z</time>
      </trkpt>
      <trkpt lat="43.20622" lon="-6.91651">
        <ele>655.7</ele>
        <time>2016-07-11T06:31:15Z</time>
      </trkpt>
      <trkpt lat="43.20615" lon="-6.91661">
        <ele>655.7</ele>
        <time>2016-07-11T06:31:22Z</time>
      </trkpt>
      <trkpt lat="43.20608" lon="-6.91671">
        <ele>655.9</ele>
        <time>2016-07-11T06:31:30Z</time>
      </trkpt>
      <trkpt lat="43.20601" lon="-6.91679">
        <ele>656.4</ele>
        <time>2016-07-11T06:31:39Z</time>
      </trkpt>
      <trkpt lat="43.20593" lon="-6.91687">
        <ele>656.7</ele>
        <time>2016-07-11T06:31:46Z</time>
      </trkpt>
      <trkpt lat="43.20585" lon="-6.91694">
        <ele>656.4</ele>
        <time>2016-07-11T06:31:56Z</time>
      </trkpt>
      <trkpt lat="43.20577" lon="-6.91702">
        <ele>656.2</ele>
        <time>2016-07-11T06:32:05Z</time>
      </trkpt>
      <trkpt lat="43.2057" lon="-6.9171">
        <ele>656.2</ele>
        <time>2016-07-11T06:32:13Z</time>
      </trkpt>
      <trkpt lat="43.20564" lon="-6.91719">
        <ele>656.4</ele>
        <time>2016-07-11T06:32:22Z</time>
      </trkpt>
      <trkpt lat="43.20557" lon="-6.91728">
        <ele>656.7</ele>
        <time>2016-07-11T06:32:31Z</time>
      </trkpt>
      <trkpt lat="43.2055" lon="-6.91738">
        <ele>656.7</ele>
        <time>2016-07-11T06:32:39Z</time>
      </trkpt>
      <trkpt lat="43.20544" lon="-6.91748">
        <ele>656.8</ele>
        <time>2016-07-11T06:32:48Z</time>
      </trkpt>
      <trkpt lat="43.20536" lon="-6.91757">
        <ele>657.2</ele>
        <time>2016-07-11T06:32:56Z</time>
      </trkpt>
      <trkpt lat="43.2053" lon="-6.91766">
        <ele>657.3</ele>
        <time>2016-07-11T06:33:05Z</time>
      </trkpt>
      <trkpt lat="43.20522" lon="-6.91774">
        <ele>657.2</ele>
        <time>2016-07-11T06:33:15Z</time>
      </trkpt>
      <trkpt lat="43.20516" lon="-6.91783">
        <ele>657.6</ele>
        <time>2016-07-11T06:33:23Z</time>
      </trkpt>
      <trkpt lat="43.20508" lon="-6.91791">
        <ele>657.4</ele>
        <time>2016-07-11T06:33:31Z</time>
      </trkpt>
      <trkpt lat="43.205" lon="-6.91798">
        <ele>657.4</ele>
        <time>2016-07-11T06:33:38Z</time>
      </trkpt>
      <trkpt lat="43.20492" lon="-6.91806">
        <ele>657.4</ele>
        <time>2016-07-11T06:33:45Z</time>
      </trkpt>
      <trkpt lat="43.20483" lon="-6.91812">
        <ele>657.3</ele>
        <time>2016-07-11T06:33:52Z</time>
      </trkpt>
      <trkpt lat="43.20475" lon="-6.91818">
        <ele>657.2</ele>
        <time>2016-07-11T06:33:58Z</time>
      </trkpt>
      <trkpt lat="43.20466" lon="-6.91823">
        <ele>657.1</ele>
        <time>2016-07-11T06:34:05Z</time>
      </trkpt>
      <trkpt lat="43.20456" lon="-6.91827">
        <ele>657.1</ele>
        <time>2016-07-11T06:34:13Z</time>
      </trkpt>
      <trkpt lat="43.20447" lon="-6.91833">
        <ele>657.3</ele>
        <time>2016-07-11T06:34:21Z</time>
      </trkpt>
      <trkpt lat="43.20437" lon="-6.91839">
        <ele>657.4</ele>
        <time>2016-07-11T06:34:28Z</time>
      </trkpt>
      <trkpt lat="43.20429" lon="-6.91843">
        <ele>657.6</ele>
        <time>2016-07-11T06:34:35Z</time>
      </trkpt>
      <trkpt lat="43.2042" lon="-6.91846">
        <ele>657.7</ele>
        <time>2016-07-11T06:34:44Z</time>
      </trkpt>
      <trkpt lat="43.20411" lon="-6.91847">
        <ele>657.8</ele>
        <time>2016-07-11T06:34:51Z</time>
      </trkpt>
      <trkpt lat="43.20401" lon="-6.91849">
        <ele>658</ele>
        <time>2016-07-11T06:35:00Z</time>
      </trkpt>
      <trkpt lat="43.20391" lon="-6.91849">
        <ele>658.2</ele>
        <time>2016-07-11T06:35:09Z</time>
      </trkpt>
      <trkpt lat="43.20382" lon="-6.9185">
        <ele>658.2</ele>
        <time>2016-07-11T06:35:18Z</time>
      </trkpt>
      <trkpt lat="43.20372" lon="-6.91851">
        <ele>658.2</ele>
        <time>2016-07-11T06:35:27Z</time>
      </trkpt>
      <trkpt lat="43.20363" lon="-6.91853">
        <ele>658.6</ele>
        <time>2016-07-11T06:35:34Z</time>
      </trkpt>
      <trkpt lat="43.20354" lon="-6.91856">
        <ele>658.6</ele>
        <time>2016-07-11T06:35:41Z</time>
      </trkpt>
      <trkpt lat="43.20345" lon="-6.91858">
        <ele>658.6</ele>
        <time>2016-07-11T06:35:49Z</time>
      </trkpt>
      <trkpt lat="43.20335" lon="-6.91858">
        <ele>658.7</ele>
        <time>2016-07-11T06:35:58Z</time>
      </trkpt>
      <trkpt lat="43.20326" lon="-6.91858">
        <ele>658.6</ele>
        <time>2016-07-11T06:36:06Z</time>
      </trkpt>
      <trkpt lat="43.20317" lon="-6.91858">
        <ele>658.7</ele>
        <time>2016-07-11T06:36:14Z</time>
      </trkpt>
      <trkpt lat="43.20308" lon="-6.91858">
        <ele>659</ele>
        <time>2016-07-11T06:36:22Z</time>
      </trkpt>
      <trkpt lat="43.20298" lon="-6.91861">
        <ele>660</ele>
        <time>2016-07-11T06:36:31Z</time>
      </trkpt>
      <trkpt lat="43.20288" lon="-6.91864">
        <ele>660.1</ele>
        <time>2016-07-11T06:36:39Z</time>
      </trkpt>
      <trkpt lat="43.20279" lon="-6.91868">
        <ele>660.2</ele>
        <time>2016-07-11T06:36:46Z</time>
      </trkpt>
      <trkpt lat="43.20272" lon="-6.91874">
        <ele>660.3</ele>
        <time>2016-07-11T06:36:54Z</time>
      </trkpt>
      <trkpt lat="43.20263" lon="-6.91879">
        <ele>660.5</ele>
        <time>2016-07-11T06:37:01Z</time>
      </trkpt>
      <trkpt lat="43.20254" lon="-6.91885">
        <ele>660.9</ele>
        <time>2016-07-11T06:37:07Z</time>
      </trkpt>
      <trkpt lat="43.20246" lon="-6.91891">
        <ele>660.9</ele>
        <time>2016-07-11T06:37:13Z</time>
      </trkpt>
      <trkpt lat="43.20237" lon="-6.91897">
        <ele>660.9</ele>
        <time>2016-07-11T06:37:20Z</time>
      </trkpt>
      <trkpt lat="43.20229" lon="-6.91903">
        <ele>660.9</ele>
        <time>2016-07-11T06:37:27Z</time>
      </trkpt>
      <trkpt lat="43.2022" lon="-6.91911">
        <ele>661.6</ele>
        <time>2016-07-11T06:37:35Z</time>
      </trkpt>
      <trkpt lat="43.20213" lon="-6.91919">
        <ele>662</ele>
        <time>2016-07-11T06:37:42Z</time>
      </trkpt>
      <trkpt lat="43.20205" lon="-6.91928">
        <ele>662.5</ele>
        <time>2016-07-11T06:37:50Z</time>
      </trkpt>
      <trkpt lat="43.20198" lon="-6.91937">
        <ele>662.9</ele>
        <time>2016-07-11T06:37:58Z</time>
      </trkpt>
      <trkpt lat="43.20191" lon="-6.91947">
        <ele>663.2</ele>
        <time>2016-07-11T06:38:06Z</time>
      </trkpt>
      <trkpt lat="43.20184" lon="-6.91955">
        <ele>663.3</ele>
        <time>2016-07-11T06:38:13Z</time>
      </trkpt>
      <trkpt lat="43.20176" lon="-6.91963">
        <ele>663.6</ele>
        <time>2016-07-11T06:38:21Z</time>
      </trkpt>
      <trkpt lat="43.20169" lon="-6.91973">
        <ele>664.1</ele>
        <time>2016-07-11T06:38:29Z</time>
      </trkpt>
      <trkpt lat="43.20163" lon="-6.91983">
        <ele>664.6</ele>
        <time>2016-07-11T06:38:37Z</time>
      </trkpt>
      <trkpt lat="43.20157" lon="-6.91993">
        <ele>665.6</ele>
        <time>2016-07-11T06:38:45Z</time>
      </trkpt>
      <trkpt lat="43.20152" lon="-6.92003">
        <ele>666.5</ele>
        <time>2016-07-11T06:38:53Z</time>
      </trkpt>
      <trkpt lat="43.20145" lon="-6.92013">
        <ele>667.4</ele>
        <time>2016-07-11T06:39:02Z</time>
      </trkpt>
      <trkpt lat="43.20139" lon="-6.92023">
        <ele>667.5</ele>
        <time>2016-07-11T06:39:10Z</time>
      </trkpt>
      <trkpt lat="43.20132" lon="-6.92032">
        <ele>667.6</ele>
        <time>2016-07-11T06:39:19Z</time>
      </trkpt>
      <trkpt lat="43.20126" lon="-6.92042">
        <ele>667.9</ele>
        <time>2016-07-11T06:39:27Z</time>
      </trkpt>
      <trkpt lat="43.20119" lon="-6.92052">
        <ele>668.4</ele>
        <time>2016-07-11T06:39:35Z</time>
      </trkpt>
      <trkpt lat="43.20112" lon="-6.92061">
        <ele>668.9</ele>
        <time>2016-07-11T06:39:43Z</time>
      </trkpt>
      <trkpt lat="43.20105" lon="-6.92069">
        <ele>669.3</ele>
        <time>2016-07-11T06:39:51Z</time>
      </trkpt>
      <trkpt lat="43.20097" lon="-6.92077">
        <ele>669.7</ele>
        <time>2016-07-11T06:39:59Z</time>
      </trkpt>
      <trkpt lat="43.20089" lon="-6.92085">
        <ele>670</ele>
        <time>2016-07-11T06:40:07Z</time>
      </trkpt>
      <trkpt lat="43.20083" lon="-6.92096">
        <ele>672.9</ele>
        <time>2016-07-11T06:40:38Z</time>
      </trkpt>
      <trkpt lat="43.20076" lon="-6.92105">
        <ele>673</ele>
        <time>2016-07-11T06:40:48Z</time>
      </trkpt>
      <trkpt lat="43.20068" lon="-6.92113">
        <ele>673.4</ele>
        <time>2016-07-11T06:40:59Z</time>
      </trkpt>
      <trkpt lat="43.20061" lon="-6.92122">
        <ele>674.2</ele>
        <time>2016-07-11T06:41:14Z</time>
      </trkpt>
      <trkpt lat="43.20054" lon="-6.92132">
        <ele>675.8</ele>
        <time>2016-07-11T06:41:33Z</time>
      </trkpt>
      <trkpt lat="43.20047" lon="-6.92139">
        <ele>678.9</ele>
        <time>2016-07-11T06:42:08Z</time>
      </trkpt>
      <trkpt lat="43.20039" lon="-6.92147">
        <ele>678.7</ele>
        <time>2016-07-11T06:42:17Z</time>
      </trkpt>
      <trkpt lat="43.20032" lon="-6.92156">
        <ele>678.6</ele>
        <time>2016-07-11T06:42:26Z</time>
      </trkpt>
      <trkpt lat="43.20026" lon="-6.92166">
        <ele>678.7</ele>
        <time>2016-07-11T06:42:40Z</time>
      </trkpt>
      <trkpt lat="43.20017" lon="-6.92163">
        <ele>679.2</ele>
        <time>2016-07-11T06:42:53Z</time>
      </trkpt>
      <trkpt lat="43.20008" lon="-6.92169">
        <ele>679.4</ele>
        <time>2016-07-11T06:43:48Z</time>
      </trkpt>
      <trkpt lat="43.19999" lon="-6.9217">
        <ele>679.5</ele>
        <time>2016-07-11T06:43:56Z</time>
      </trkpt>
      <trkpt lat="43.19989" lon="-6.9217">
        <ele>679.5</ele>
        <time>2016-07-11T06:44:04Z</time>
      </trkpt>
      <trkpt lat="43.1998" lon="-6.92171">
        <ele>679.5</ele>
        <time>2016-07-11T06:44:13Z</time>
      </trkpt>
      <trkpt lat="43.1997" lon="-6.92171">
        <ele>679.3</ele>
        <time>2016-07-11T06:44:24Z</time>
      </trkpt>
      <trkpt lat="43.19961" lon="-6.92174">
        <ele>679.3</ele>
        <time>2016-07-11T06:44:33Z</time>
      </trkpt>
      <trkpt lat="43.19951" lon="-6.92177">
        <ele>679.1</ele>
        <time>2016-07-11T06:44:42Z</time>
      </trkpt>
      <trkpt lat="43.19942" lon="-6.92182">
        <ele>678.9</ele>
        <time>2016-07-11T06:44:50Z</time>
      </trkpt>
      <trkpt lat="43.19934" lon="-6.92187">
        <ele>678.9</ele>
        <time>2016-07-11T06:44:57Z</time>
      </trkpt>
      <trkpt lat="43.19925" lon="-6.92191">
        <ele>678.4</ele>
        <time>2016-07-11T06:45:05Z</time>
      </trkpt>
      <trkpt lat="43.19916" lon="-6.92195">
        <ele>678.1</ele>
        <time>2016-07-11T06:45:13Z</time>
      </trkpt>
      <trkpt lat="43.19907" lon="-6.92201">
        <ele>678.3</ele>
        <time>2016-07-11T06:45:20Z</time>
      </trkpt>
      <trkpt lat="43.199" lon="-6.92209">
        <ele>678.4</ele>
        <time>2016-07-11T06:45:28Z</time>
      </trkpt>
      <trkpt lat="43.19893" lon="-6.92218">
        <ele>678.5</ele>
        <time>2016-07-11T06:45:36Z</time>
      </trkpt>
      <trkpt lat="43.19885" lon="-6.92226">
        <ele>678.8</ele>
        <time>2016-07-11T06:45:44Z</time>
      </trkpt>
      <trkpt lat="43.19877" lon="-6.92234">
        <ele>679.1</ele>
        <time>2016-07-11T06:45:52Z</time>
      </trkpt>
      <trkpt lat="43.1987" lon="-6.92242">
        <ele>679.4</ele>
        <time>2016-07-11T06:46:03Z</time>
      </trkpt>
      <trkpt lat="43.19862" lon="-6.92248">
        <ele>679.9</ele>
        <time>2016-07-11T06:46:11Z</time>
      </trkpt>
      <trkpt lat="43.19852" lon="-6.92249">
        <ele>680.6</ele>
        <time>2016-07-11T06:46:19Z</time>
      </trkpt>
      <trkpt lat="43.19842" lon="-6.92251">
        <ele>680.9</ele>
        <time>2016-07-11T06:46:30Z</time>
      </trkpt>
      <trkpt lat="43.19833" lon="-6.92249">
        <ele>680.9</ele>
        <time>2016-07-11T06:46:41Z</time>
      </trkpt>
      <trkpt lat="43.19823" lon="-6.9225">
        <ele>681</ele>
        <time>2016-07-11T06:46:48Z</time>
      </trkpt>
      <trkpt lat="43.19814" lon="-6.92256">
        <ele>681</ele>
        <time>2016-07-11T06:46:55Z</time>
      </trkpt>
      <trkpt lat="43.19805" lon="-6.92261">
        <ele>680.6</ele>
        <time>2016-07-11T06:47:02Z</time>
      </trkpt>
      <trkpt lat="43.19797" lon="-6.92267">
        <ele>680.3</ele>
        <time>2016-07-11T06:47:09Z</time>
      </trkpt>
      <trkpt lat="43.19788" lon="-6.92273">
        <ele>680.3</ele>
        <time>2016-07-11T06:47:16Z</time>
      </trkpt>
      <trkpt lat="43.19779" lon="-6.92278">
        <ele>680.7</ele>
        <time>2016-07-11T06:47:26Z</time>
      </trkpt>
      <trkpt lat="43.1977" lon="-6.92283">
        <ele>680.8</ele>
        <time>2016-07-11T06:47:34Z</time>
      </trkpt>
      <trkpt lat="43.19761" lon="-6.92289">
        <ele>680.7</ele>
        <time>2016-07-11T06:47:42Z</time>
      </trkpt>
      <trkpt lat="43.19753" lon="-6.92293">
        <ele>680.8</ele>
        <time>2016-07-11T06:47:49Z</time>
      </trkpt>
      <trkpt lat="43.19744" lon="-6.92298">
        <ele>681.1</ele>
        <time>2016-07-11T06:47:56Z</time>
      </trkpt>
      <trkpt lat="43.19739" lon="-6.92308">
        <ele>681.8</ele>
        <time>2016-07-11T06:48:20Z</time>
      </trkpt>
      <trkpt lat="43.1973" lon="-6.92302">
        <ele>681.9</ele>
        <time>2016-07-11T06:48:45Z</time>
      </trkpt>
      <trkpt lat="43.19721" lon="-6.92304">
        <ele>681.6</ele>
        <time>2016-07-11T06:48:55Z</time>
      </trkpt>
      <trkpt lat="43.19712" lon="-6.92304">
        <ele>681.5</ele>
        <time>2016-07-11T06:49:05Z</time>
      </trkpt>
      <trkpt lat="43.19703" lon="-6.92305">
        <ele>681.5</ele>
        <time>2016-07-11T06:49:15Z</time>
      </trkpt>
      <trkpt lat="43.19694" lon="-6.92304">
        <ele>681.8</ele>
        <time>2016-07-11T06:49:30Z</time>
      </trkpt>
      <trkpt lat="43.19685" lon="-6.92302">
        <ele>682.2</ele>
        <time>2016-07-11T06:49:37Z</time>
      </trkpt>
      <trkpt lat="43.19676" lon="-6.92301">
        <ele>682.6</ele>
        <time>2016-07-11T06:49:49Z</time>
      </trkpt>
      <trkpt lat="43.19666" lon="-6.923">
        <ele>682.7</ele>
        <time>2016-07-11T06:49:57Z</time>
      </trkpt>
      <trkpt lat="43.19656" lon="-6.92298">
        <ele>682.9</ele>
        <time>2016-07-11T06:50:05Z</time>
      </trkpt>
      <trkpt lat="43.19647" lon="-6.92294">
        <ele>683.1</ele>
        <time>2016-07-11T06:50:12Z</time>
      </trkpt>
      <trkpt lat="43.19638" lon="-6.9229">
        <ele>683.2</ele>
        <time>2016-07-11T06:50:19Z</time>
      </trkpt>
      <trkpt lat="43.1963" lon="-6.92285">
        <ele>683.3</ele>
        <time>2016-07-11T06:50:26Z</time>
      </trkpt>
      <trkpt lat="43.19621" lon="-6.92283">
        <ele>683.6</ele>
        <time>2016-07-11T06:50:38Z</time>
      </trkpt>
      <trkpt lat="43.19612" lon="-6.9228">
        <ele>683.6</ele>
        <time>2016-07-11T06:50:48Z</time>
      </trkpt>
      <trkpt lat="43.19603" lon="-6.92275">
        <ele>683.8</ele>
        <time>2016-07-11T06:50:57Z</time>
      </trkpt>
      <trkpt lat="43.19595" lon="-6.92269">
        <ele>684.2</ele>
        <time>2016-07-11T06:51:07Z</time>
      </trkpt>
      <trkpt lat="43.19586" lon="-6.92265">
        <ele>684.5</ele>
        <time>2016-07-11T06:51:17Z</time>
      </trkpt>
      <trkpt lat="43.19577" lon="-6.92258">
        <ele>685.2</ele>
        <time>2016-07-11T06:51:27Z</time>
      </trkpt>
      <trkpt lat="43.19569" lon="-6.92254">
        <ele>686.3</ele>
        <time>2016-07-11T06:51:36Z</time>
      </trkpt>
      <trkpt lat="43.19559" lon="-6.9225">
        <ele>686.8</ele>
        <time>2016-07-11T06:51:44Z</time>
      </trkpt>
      <trkpt lat="43.19551" lon="-6.92245">
        <ele>687.5</ele>
        <time>2016-07-11T06:51:53Z</time>
      </trkpt>
      <trkpt lat="43.19543" lon="-6.92238">
        <ele>688.2</ele>
        <time>2016-07-11T06:52:03Z</time>
      </trkpt>
      <trkpt lat="43.19533" lon="-6.92233">
        <ele>688.9</ele>
        <time>2016-07-11T06:52:13Z</time>
      </trkpt>
      <trkpt lat="43.19525" lon="-6.92228">
        <ele>689.9</ele>
        <time>2016-07-11T06:52:23Z</time>
      </trkpt>
      <trkpt lat="43.19516" lon="-6.92223">
        <ele>690.7</ele>
        <time>2016-07-11T06:52:32Z</time>
      </trkpt>
      <trkpt lat="43.19506" lon="-6.92219">
        <ele>691.7</ele>
        <time>2016-07-11T06:52:40Z</time>
      </trkpt>
      <trkpt lat="43.19498" lon="-6.92215">
        <ele>692.1</ele>
        <time>2016-07-11T06:52:48Z</time>
      </trkpt>
      <trkpt lat="43.19489" lon="-6.92211">
        <ele>692.4</ele>
        <time>2016-07-11T06:52:56Z</time>
      </trkpt>
      <trkpt lat="43.19479" lon="-6.9221">
        <ele>693.3</ele>
        <time>2016-07-11T06:53:07Z</time>
      </trkpt>
      <trkpt lat="43.1947" lon="-6.92207">
        <ele>694.1</ele>
        <time>2016-07-11T06:53:16Z</time>
      </trkpt>
      <trkpt lat="43.1946" lon="-6.92205">
        <ele>694.7</ele>
        <time>2016-07-11T06:53:24Z</time>
      </trkpt>
      <trkpt lat="43.19451" lon="-6.92203">
        <ele>695.2</ele>
        <time>2016-07-11T06:53:31Z</time>
      </trkpt>
      <trkpt lat="43.19441" lon="-6.92201">
        <ele>695.8</ele>
        <time>2016-07-11T06:53:38Z</time>
      </trkpt>
      <trkpt lat="43.19432" lon="-6.92203">
        <ele>696.2</ele>
        <time>2016-07-11T06:53:46Z</time>
      </trkpt>
      <trkpt lat="43.19423" lon="-6.92203">
        <ele>696.2</ele>
        <time>2016-07-11T06:53:53Z</time>
      </trkpt>
      <trkpt lat="43.19413" lon="-6.92204">
        <ele>696.5</ele>
        <time>2016-07-11T06:54:02Z</time>
      </trkpt>
      <trkpt lat="43.19404" lon="-6.92206">
        <ele>697.4</ele>
        <time>2016-07-11T06:54:11Z</time>
      </trkpt>
      <trkpt lat="43.19395" lon="-6.92212">
        <ele>697.9</ele>
        <time>2016-07-11T06:54:20Z</time>
      </trkpt>
      <trkpt lat="43.19385" lon="-6.92214">
        <ele>698.4</ele>
        <time>2016-07-11T06:54:28Z</time>
      </trkpt>
      <trkpt lat="43.19376" lon="-6.92218">
        <ele>698.8</ele>
        <time>2016-07-11T06:54:37Z</time>
      </trkpt>
      <trkpt lat="43.19367" lon="-6.92219">
        <ele>699.5</ele>
        <time>2016-07-11T06:54:56Z</time>
      </trkpt>
      <trkpt lat="43.19359" lon="-6.92224">
        <ele>699.6</ele>
        <time>2016-07-11T06:55:11Z</time>
      </trkpt>
      <trkpt lat="43.19349" lon="-6.92227">
        <ele>699.8</ele>
        <time>2016-07-11T06:55:21Z</time>
      </trkpt>
      <trkpt lat="43.1934" lon="-6.9223">
        <ele>700</ele>
        <time>2016-07-11T06:55:30Z</time>
      </trkpt>
      <trkpt lat="43.19331" lon="-6.92231">
        <ele>700.7</ele>
        <time>2016-07-11T06:55:39Z</time>
      </trkpt>
      <trkpt lat="43.19322" lon="-6.92234">
        <ele>701.3</ele>
        <time>2016-07-11T06:55:48Z</time>
      </trkpt>
      <trkpt lat="43.19312" lon="-6.92236">
        <ele>702.1</ele>
        <time>2016-07-11T06:55:57Z</time>
      </trkpt>
      <trkpt lat="43.19303" lon="-6.92237">
        <ele>702.2</ele>
        <time>2016-07-11T06:56:06Z</time>
      </trkpt>
      <trkpt lat="43.19294" lon="-6.92236">
        <ele>702.6</ele>
        <time>2016-07-11T06:56:14Z</time>
      </trkpt>
      <trkpt lat="43.19284" lon="-6.92235">
        <ele>703.6</ele>
        <time>2016-07-11T06:56:24Z</time>
      </trkpt>
      <trkpt lat="43.19275" lon="-6.92235">
        <ele>704.1</ele>
        <time>2016-07-11T06:56:32Z</time>
      </trkpt>
      <trkpt lat="43.19266" lon="-6.92233">
        <ele>704.5</ele>
        <time>2016-07-11T06:56:41Z</time>
      </trkpt>
      <trkpt lat="43.19256" lon="-6.92234">
        <ele>705.1</ele>
        <time>2016-07-11T06:56:49Z</time>
      </trkpt>
      <trkpt lat="43.19247" lon="-6.92235">
        <ele>705.9</ele>
        <time>2016-07-11T06:56:57Z</time>
      </trkpt>
      <trkpt lat="43.19237" lon="-6.92234">
        <ele>706.3</ele>
        <time>2016-07-11T06:57:04Z</time>
      </trkpt>
      <trkpt lat="43.19228" lon="-6.92234">
        <ele>706.6</ele>
        <time>2016-07-11T06:57:11Z</time>
      </trkpt>
      <trkpt lat="43.19218" lon="-6.92235">
        <ele>706.8</ele>
        <time>2016-07-11T06:57:18Z</time>
      </trkpt>
      <trkpt lat="43.19208" lon="-6.92236">
        <ele>707.2</ele>
        <time>2016-07-11T06:57:26Z</time>
      </trkpt>
      <trkpt lat="43.19198" lon="-6.92239">
        <ele>707.7</ele>
        <time>2016-07-11T06:57:35Z</time>
      </trkpt>
      <trkpt lat="43.19188" lon="-6.9224">
        <ele>708.1</ele>
        <time>2016-07-11T06:57:44Z</time>
      </trkpt>
      <trkpt lat="43.19179" lon="-6.92242">
        <ele>708.2</ele>
        <time>2016-07-11T06:57:52Z</time>
      </trkpt>
      <trkpt lat="43.1917" lon="-6.92244">
        <ele>708.8</ele>
        <time>2016-07-11T06:58:00Z</time>
      </trkpt>
      <trkpt lat="43.1916" lon="-6.92244">
        <ele>709.4</ele>
        <time>2016-07-11T06:58:08Z</time>
      </trkpt>
      <trkpt lat="43.1915" lon="-6.92243">
        <ele>709.8</ele>
        <time>2016-07-11T06:58:16Z</time>
      </trkpt>
      <trkpt lat="43.1914" lon="-6.92242">
        <ele>710.1</ele>
        <time>2016-07-11T06:58:25Z</time>
      </trkpt>
      <trkpt lat="43.19131" lon="-6.92245">
        <ele>710.4</ele>
        <time>2016-07-11T06:58:34Z</time>
      </trkpt>
      <trkpt lat="43.19122" lon="-6.92247">
        <ele>710.7</ele>
        <time>2016-07-11T06:58:42Z</time>
      </trkpt>
      <trkpt lat="43.19112" lon="-6.92249">
        <ele>711</ele>
        <time>2016-07-11T06:58:51Z</time>
      </trkpt>
      <trkpt lat="43.19102" lon="-6.92249">
        <ele>711.6</ele>
        <time>2016-07-11T06:59:03Z</time>
      </trkpt>
      <trkpt lat="43.19093" lon="-6.92253">
        <ele>712.7</ele>
        <time>2016-07-11T06:59:14Z</time>
      </trkpt>
      <trkpt lat="43.19084" lon="-6.92257">
        <ele>713.8</ele>
        <time>2016-07-11T06:59:24Z</time>
      </trkpt>
      <trkpt lat="43.19076" lon="-6.92263">
        <ele>714.7</ele>
        <time>2016-07-11T06:59:34Z</time>
      </trkpt>
      <trkpt lat="43.19067" lon="-6.92267">
        <ele>715</ele>
        <time>2016-07-11T06:59:42Z</time>
      </trkpt>
      <trkpt lat="43.19058" lon="-6.92271">
        <ele>715.1</ele>
        <time>2016-07-11T06:59:50Z</time>
      </trkpt>
      <trkpt lat="43.19048" lon="-6.92274">
        <ele>715.3</ele>
        <time>2016-07-11T06:59:58Z</time>
      </trkpt>
      <trkpt lat="43.19039" lon="-6.92275">
        <ele>716</ele>
        <time>2016-07-11T07:00:05Z</time>
      </trkpt>
      <trkpt lat="43.19029" lon="-6.92279">
        <ele>716.7</ele>
        <time>2016-07-11T07:00:13Z</time>
      </trkpt>
      <trkpt lat="43.1902" lon="-6.92283">
        <ele>717</ele>
        <time>2016-07-11T07:00:21Z</time>
      </trkpt>
      <trkpt lat="43.19012" lon="-6.92292">
        <ele>717</ele>
        <time>2016-07-11T07:00:29Z</time>
      </trkpt>
      <trkpt lat="43.19004" lon="-6.92297">
        <ele>717.7</ele>
        <time>2016-07-11T07:00:38Z</time>
      </trkpt>
      <trkpt lat="43.18995" lon="-6.923">
        <ele>718.1</ele>
        <time>2016-07-11T07:00:47Z</time>
      </trkpt>
      <trkpt lat="43.18985" lon="-6.92302">
        <ele>718.7</ele>
        <time>2016-07-11T07:00:56Z</time>
      </trkpt>
      <trkpt lat="43.18976" lon="-6.92303">
        <ele>719.2</ele>
        <time>2016-07-11T07:01:04Z</time>
      </trkpt>
      <trkpt lat="43.18966" lon="-6.92305">
        <ele>719.5</ele>
        <time>2016-07-11T07:01:12Z</time>
      </trkpt>
      <trkpt lat="43.18957" lon="-6.92304">
        <ele>719.8</ele>
        <time>2016-07-11T07:01:20Z</time>
      </trkpt>
      <trkpt lat="43.18947" lon="-6.92307">
        <ele>720.3</ele>
        <time>2016-07-11T07:01:33Z</time>
      </trkpt>
      <trkpt lat="43.18938" lon="-6.92304">
        <ele>720.9</ele>
        <time>2016-07-11T07:01:42Z</time>
      </trkpt>
      <trkpt lat="43.18928" lon="-6.92302">
        <ele>721.6</ele>
        <time>2016-07-11T07:01:51Z</time>
      </trkpt>
      <trkpt lat="43.18918" lon="-6.923">
        <ele>722.6</ele>
        <time>2016-07-11T07:02:00Z</time>
      </trkpt>
      <trkpt lat="43.18909" lon="-6.92299">
        <ele>723.3</ele>
        <time>2016-07-11T07:02:09Z</time>
      </trkpt>
      <trkpt lat="43.189" lon="-6.92295">
        <ele>723.9</ele>
        <time>2016-07-11T07:02:19Z</time>
      </trkpt>
      <trkpt lat="43.18891" lon="-6.92292">
        <ele>724.5</ele>
        <time>2016-07-11T07:02:29Z</time>
      </trkpt>
      <trkpt lat="43.18882" lon="-6.92286">
        <ele>725.5</ele>
        <time>2016-07-11T07:02:37Z</time>
      </trkpt>
      <trkpt lat="43.18873" lon="-6.92282">
        <ele>725.9</ele>
        <time>2016-07-11T07:02:45Z</time>
      </trkpt>
      <trkpt lat="43.18863" lon="-6.9228">
        <ele>726.2</ele>
        <time>2016-07-11T07:02:53Z</time>
      </trkpt>
      <trkpt lat="43.18853" lon="-6.92279">
        <ele>726.2</ele>
        <time>2016-07-11T07:03:07Z</time>
      </trkpt>
      <trkpt lat="43.18844" lon="-6.92279">
        <ele>726</ele>
        <time>2016-07-11T07:03:17Z</time>
      </trkpt>
      <trkpt lat="43.18835" lon="-6.9228">
        <ele>725.9</ele>
        <time>2016-07-11T07:03:27Z</time>
      </trkpt>
      <trkpt lat="43.18825" lon="-6.92279">
        <ele>725.8</ele>
        <time>2016-07-11T07:03:35Z</time>
      </trkpt>
      <trkpt lat="43.18815" lon="-6.92278">
        <ele>725.9</ele>
        <time>2016-07-11T07:03:45Z</time>
      </trkpt>
      <trkpt lat="43.18806" lon="-6.92277">
        <ele>725.7</ele>
        <time>2016-07-11T07:03:52Z</time>
      </trkpt>
      <trkpt lat="43.18797" lon="-6.92278">
        <ele>725.8</ele>
        <time>2016-07-11T07:04:01Z</time>
      </trkpt>
      <trkpt lat="43.18787" lon="-6.92276">
        <ele>725.9</ele>
        <time>2016-07-11T07:04:08Z</time>
      </trkpt>
      <trkpt lat="43.18777" lon="-6.92276">
        <ele>726</ele>
        <time>2016-07-11T07:04:15Z</time>
      </trkpt>
      <trkpt lat="43.18768" lon="-6.9228">
        <ele>726</ele>
        <time>2016-07-11T07:04:23Z</time>
      </trkpt>
      <trkpt lat="43.18759" lon="-6.92285">
        <ele>725.9</ele>
        <time>2016-07-11T07:04:31Z</time>
      </trkpt>
      <trkpt lat="43.1875" lon="-6.9229">
        <ele>726</ele>
        <time>2016-07-11T07:04:38Z</time>
      </trkpt>
      <trkpt lat="43.18741" lon="-6.92295">
        <ele>726.1</ele>
        <time>2016-07-11T07:04:47Z</time>
      </trkpt>
      <trkpt lat="43.18733" lon="-6.923">
        <ele>725.7</ele>
        <time>2016-07-11T07:04:55Z</time>
      </trkpt>
      <trkpt lat="43.18724" lon="-6.92304">
        <ele>725.5</ele>
        <time>2016-07-11T07:05:03Z</time>
      </trkpt>
      <trkpt lat="43.18714" lon="-6.92308">
        <ele>725.4</ele>
        <time>2016-07-11T07:05:11Z</time>
      </trkpt>
      <trkpt lat="43.18705" lon="-6.9231">
        <ele>725.4</ele>
        <time>2016-07-11T07:05:19Z</time>
      </trkpt>
      <trkpt lat="43.18696" lon="-6.9231">
        <ele>725.4</ele>
        <time>2016-07-11T07:05:27Z</time>
      </trkpt>
      <trkpt lat="43.18686" lon="-6.92309">
        <ele>725.5</ele>
        <time>2016-07-11T07:05:36Z</time>
      </trkpt>
      <trkpt lat="43.18677" lon="-6.92312">
        <ele>725.6</ele>
        <time>2016-07-11T07:05:52Z</time>
      </trkpt>
      <trkpt lat="43.18668" lon="-6.92314">
        <ele>725.3</ele>
        <time>2016-07-11T07:06:18Z</time>
      </trkpt>
      <trkpt lat="43.18661" lon="-6.92322">
        <ele>724.6</ele>
        <time>2016-07-11T07:06:57Z</time>
      </trkpt>
      <trkpt lat="43.18654" lon="-6.92331">
        <ele>724.1</ele>
        <time>2016-07-11T07:07:36Z</time>
      </trkpt>
      <trkpt lat="43.18645" lon="-6.92329">
        <ele>723.8</ele>
        <time>2016-07-11T07:07:46Z</time>
      </trkpt>
      <trkpt lat="43.18635" lon="-6.92326">
        <ele>723.5</ele>
        <time>2016-07-11T07:07:53Z</time>
      </trkpt>
      <trkpt lat="43.18626" lon="-6.92322">
        <ele>723.3</ele>
        <time>2016-07-11T07:08:01Z</time>
      </trkpt>
      <trkpt lat="43.18617" lon="-6.92318">
        <ele>723.2</ele>
        <time>2016-07-11T07:08:09Z</time>
      </trkpt>
      <trkpt lat="43.18607" lon="-6.92316">
        <ele>723.1</ele>
        <time>2016-07-11T07:08:17Z</time>
      </trkpt>
      <trkpt lat="43.18597" lon="-6.92313">
        <ele>723.2</ele>
        <time>2016-07-11T07:08:26Z</time>
      </trkpt>
      <trkpt lat="43.18588" lon="-6.92308">
        <ele>723.3</ele>
        <time>2016-07-11T07:08:34Z</time>
      </trkpt>
      <trkpt lat="43.18579" lon="-6.92303">
        <ele>723.6</ele>
        <time>2016-07-11T07:08:42Z</time>
      </trkpt>
      <trkpt lat="43.18569" lon="-6.923">
        <ele>723.6</ele>
        <time>2016-07-11T07:08:51Z</time>
      </trkpt>
      <trkpt lat="43.1856" lon="-6.92297">
        <ele>724</ele>
        <time>2016-07-11T07:08:58Z</time>
      </trkpt>
      <trkpt lat="43.18552" lon="-6.92292">
        <ele>724</ele>
        <time>2016-07-11T07:09:07Z</time>
      </trkpt>
      <trkpt lat="43.18543" lon="-6.92288">
        <ele>723.9</ele>
        <time>2016-07-11T07:09:14Z</time>
      </trkpt>
      <trkpt lat="43.18534" lon="-6.92286">
        <ele>723.9</ele>
        <time>2016-07-11T07:09:22Z</time>
      </trkpt>
      <trkpt lat="43.18525" lon="-6.92285">
        <ele>724.1</ele>
        <time>2016-07-11T07:09:30Z</time>
      </trkpt>
      <trkpt lat="43.18515" lon="-6.92283">
        <ele>724.1</ele>
        <time>2016-07-11T07:09:37Z</time>
      </trkpt>
      <trkpt lat="43.18506" lon="-6.92283">
        <ele>724.3</ele>
        <time>2016-07-11T07:09:44Z</time>
      </trkpt>
      <trkpt lat="43.18497" lon="-6.92284">
        <ele>724.3</ele>
        <time>2016-07-11T07:09:51Z</time>
      </trkpt>
      <trkpt lat="43.18487" lon="-6.92285">
        <ele>724.5</ele>
        <time>2016-07-11T07:10:00Z</time>
      </trkpt>
      <trkpt lat="43.18478" lon="-6.92286">
        <ele>724.7</ele>
        <time>2016-07-11T07:10:09Z</time>
      </trkpt>
      <trkpt lat="43.18469" lon="-6.92284">
        <ele>724.8</ele>
        <time>2016-07-11T07:10:18Z</time>
      </trkpt>
      <trkpt lat="43.1846" lon="-6.92283">
        <ele>725</ele>
        <time>2016-07-11T07:10:26Z</time>
      </trkpt>
      <trkpt lat="43.1845" lon="-6.92284">
        <ele>725.3</ele>
        <time>2016-07-11T07:10:37Z</time>
      </trkpt>
      <trkpt lat="43.1844" lon="-6.92283">
        <ele>725.3</ele>
        <time>2016-07-11T07:10:46Z</time>
      </trkpt>
      <trkpt lat="43.18431" lon="-6.92281">
        <ele>725.3</ele>
        <time>2016-07-11T07:10:53Z</time>
      </trkpt>
      <trkpt lat="43.18421" lon="-6.92281">
        <ele>725.4</ele>
        <time>2016-07-11T07:11:01Z</time>
      </trkpt>
      <trkpt lat="43.18412" lon="-6.9228">
        <ele>725.7</ele>
        <time>2016-07-11T07:11:07Z</time>
      </trkpt>
      <trkpt lat="43.18402" lon="-6.9228">
        <ele>726</ele>
        <time>2016-07-11T07:11:13Z</time>
      </trkpt>
      <trkpt lat="43.18392" lon="-6.92281">
        <ele>726.3</ele>
        <time>2016-07-11T07:11:19Z</time>
      </trkpt>
      <trkpt lat="43.18382" lon="-6.92282">
        <ele>726.4</ele>
        <time>2016-07-11T07:11:25Z</time>
      </trkpt>
      <trkpt lat="43.18372" lon="-6.92284">
        <ele>726</ele>
        <time>2016-07-11T07:11:31Z</time>
      </trkpt>
      <trkpt lat="43.18362" lon="-6.92287">
        <ele>725.8</ele>
        <time>2016-07-11T07:11:38Z</time>
      </trkpt>
      <trkpt lat="43.18353" lon="-6.92291">
        <ele>725.6</ele>
        <time>2016-07-11T07:11:46Z</time>
      </trkpt>
      <trkpt lat="43.18343" lon="-6.92294">
        <ele>725.7</ele>
        <time>2016-07-11T07:11:55Z</time>
      </trkpt>
      <trkpt lat="43.18334" lon="-6.92294">
        <ele>725.3</ele>
        <time>2016-07-11T07:12:06Z</time>
      </trkpt>
      <trkpt lat="43.18325" lon="-6.92291">
        <ele>725.3</ele>
        <time>2016-07-11T07:12:17Z</time>
      </trkpt>
      <trkpt lat="43.18316" lon="-6.92286">
        <ele>725.7</ele>
        <time>2016-07-11T07:12:28Z</time>
      </trkpt>
      <trkpt lat="43.18306" lon="-6.92283">
        <ele>725.9</ele>
        <time>2016-07-11T07:12:36Z</time>
      </trkpt>
      <trkpt lat="43.18297" lon="-6.92281">
        <ele>726.3</ele>
        <time>2016-07-11T07:12:44Z</time>
      </trkpt>
      <trkpt lat="43.18288" lon="-6.9228">
        <ele>726.9</ele>
        <time>2016-07-11T07:12:52Z</time>
      </trkpt>
      <trkpt lat="43.18278" lon="-6.92279">
        <ele>727.2</ele>
        <time>2016-07-11T07:13:00Z</time>
      </trkpt>
      <trkpt lat="43.18268" lon="-6.92277">
        <ele>727.4</ele>
        <time>2016-07-11T07:13:08Z</time>
      </trkpt>
      <trkpt lat="43.18259" lon="-6.92275">
        <ele>727.3</ele>
        <time>2016-07-11T07:13:15Z</time>
      </trkpt>
      <trkpt lat="43.1825" lon="-6.92274">
        <ele>727.3</ele>
        <time>2016-07-11T07:13:22Z</time>
      </trkpt>
      <trkpt lat="43.1824" lon="-6.92272">
        <ele>727.5</ele>
        <time>2016-07-11T07:13:30Z</time>
      </trkpt>
      <trkpt lat="43.1823" lon="-6.92272">
        <ele>727.7</ele>
        <time>2016-07-11T07:13:38Z</time>
      </trkpt>
      <trkpt lat="43.1822" lon="-6.92271">
        <ele>727.7</ele>
        <time>2016-07-11T07:13:46Z</time>
      </trkpt>
      <trkpt lat="43.1821" lon="-6.92269">
        <ele>728</ele>
        <time>2016-07-11T07:13:55Z</time>
      </trkpt>
      <trkpt lat="43.18201" lon="-6.92268">
        <ele>728.2</ele>
        <time>2016-07-11T07:14:03Z</time>
      </trkpt>
      <trkpt lat="43.18191" lon="-6.92266">
        <ele>727.9</ele>
        <time>2016-07-11T07:14:13Z</time>
      </trkpt>
      <trkpt lat="43.18181" lon="-6.92264">
        <ele>727.8</ele>
        <time>2016-07-11T07:14:21Z</time>
      </trkpt>
      <trkpt lat="43.18172" lon="-6.92262">
        <ele>727.9</ele>
        <time>2016-07-11T07:14:29Z</time>
      </trkpt>
      <trkpt lat="43.18163" lon="-6.92258">
        <ele>727.9</ele>
        <time>2016-07-11T07:14:36Z</time>
      </trkpt>
      <trkpt lat="43.18155" lon="-6.92252">
        <ele>727.9</ele>
        <time>2016-07-11T07:14:42Z</time>
      </trkpt>
      <trkpt lat="43.18147" lon="-6.92243">
        <ele>727.7</ele>
        <time>2016-07-11T07:14:49Z</time>
      </trkpt>
      <trkpt lat="43.18138" lon="-6.92237">
        <ele>727.3</ele>
        <time>2016-07-11T07:14:57Z</time>
      </trkpt>
      <trkpt lat="43.1813" lon="-6.9223">
        <ele>726.9</ele>
        <time>2016-07-11T07:15:05Z</time>
      </trkpt>
      <trkpt lat="43.18122" lon="-6.92224">
        <ele>727.1</ele>
        <time>2016-07-11T07:15:13Z</time>
      </trkpt>
      <trkpt lat="43.18113" lon="-6.92221">
        <ele>727.2</ele>
        <time>2016-07-11T07:15:22Z</time>
      </trkpt>
      <trkpt lat="43.18104" lon="-6.92217">
        <ele>728.1</ele>
        <time>2016-07-11T07:15:30Z</time>
      </trkpt>
      <trkpt lat="43.18094" lon="-6.92214">
        <ele>728.9</ele>
        <time>2016-07-11T07:15:39Z</time>
      </trkpt>
      <trkpt lat="43.18084" lon="-6.9221">
        <ele>729.6</ele>
        <time>2016-07-11T07:15:48Z</time>
      </trkpt>
      <trkpt lat="43.18075" lon="-6.92206">
        <ele>730.4</ele>
        <time>2016-07-11T07:15:56Z</time>
      </trkpt>
      <trkpt lat="43.18066" lon="-6.92204">
        <ele>730.8</ele>
        <time>2016-07-11T07:16:07Z</time>
      </trkpt>
      <trkpt lat="43.18056" lon="-6.92202">
        <ele>730.9</ele>
        <time>2016-07-11T07:16:14Z</time>
      </trkpt>
      <trkpt lat="43.18046" lon="-6.92198">
        <ele>730.9</ele>
        <time>2016-07-11T07:16:21Z</time>
      </trkpt>
      <trkpt lat="43.18036" lon="-6.92198">
        <ele>730.7</ele>
        <time>2016-07-11T07:16:29Z</time>
      </trkpt>
      <trkpt lat="43.18027" lon="-6.92197">
        <ele>730.7</ele>
        <time>2016-07-11T07:16:36Z</time>
      </trkpt>
      <trkpt lat="43.18018" lon="-6.92197">
        <ele>730.2</ele>
        <time>2016-07-11T07:16:44Z</time>
      </trkpt>
      <trkpt lat="43.18008" lon="-6.92196">
        <ele>729.8</ele>
        <time>2016-07-11T07:16:52Z</time>
      </trkpt>
      <trkpt lat="43.17998" lon="-6.92196">
        <ele>729.6</ele>
        <time>2016-07-11T07:17:00Z</time>
      </trkpt>
      <trkpt lat="43.17989" lon="-6.92194">
        <ele>729.4</ele>
        <time>2016-07-11T07:17:07Z</time>
      </trkpt>
      <trkpt lat="43.1798" lon="-6.92192">
        <ele>729.2</ele>
        <time>2016-07-11T07:17:15Z</time>
      </trkpt>
      <trkpt lat="43.1797" lon="-6.9219">
        <ele>728.8</ele>
        <time>2016-07-11T07:17:23Z</time>
      </trkpt>
      <trkpt lat="43.17961" lon="-6.92188">
        <ele>728.8</ele>
        <time>2016-07-11T07:17:31Z</time>
      </trkpt>
      <trkpt lat="43.17952" lon="-6.92187">
        <ele>728.8</ele>
        <time>2016-07-11T07:17:39Z</time>
      </trkpt>
      <trkpt lat="43.17942" lon="-6.92186">
        <ele>728.4</ele>
        <time>2016-07-11T07:17:46Z</time>
      </trkpt>
      <trkpt lat="43.17933" lon="-6.92184">
        <ele>727.4</ele>
        <time>2016-07-11T07:17:54Z</time>
      </trkpt>
      <trkpt lat="43.17924" lon="-6.92179">
        <ele>726.4</ele>
        <time>2016-07-11T07:18:03Z</time>
      </trkpt>
      <trkpt lat="43.17915" lon="-6.92186">
        <ele>725.5</ele>
        <time>2016-07-11T07:18:12Z</time>
      </trkpt>
      <trkpt lat="43.17909" lon="-6.92195">
        <ele>725.1</ele>
        <time>2016-07-11T07:18:20Z</time>
      </trkpt>
      <trkpt lat="43.17903" lon="-6.92204">
        <ele>725.3</ele>
        <time>2016-07-11T07:18:28Z</time>
      </trkpt>
      <trkpt lat="43.17897" lon="-6.92215">
        <ele>725.9</ele>
        <time>2016-07-11T07:18:37Z</time>
      </trkpt>
      <trkpt lat="43.17892" lon="-6.92226">
        <ele>726.6</ele>
        <time>2016-07-11T07:18:45Z</time>
      </trkpt>
      <trkpt lat="43.17886" lon="-6.92236">
        <ele>727.3</ele>
        <time>2016-07-11T07:18:53Z</time>
      </trkpt>
      <trkpt lat="43.17881" lon="-6.92247">
        <ele>727.8</ele>
        <time>2016-07-11T07:19:01Z</time>
      </trkpt>
      <trkpt lat="43.17877" lon="-6.92258">
        <ele>728.3</ele>
        <time>2016-07-11T07:19:09Z</time>
      </trkpt>
      <trkpt lat="43.17869" lon="-6.92264">
        <ele>729.5</ele>
        <time>2016-07-11T07:19:28Z</time>
      </trkpt>
      <trkpt lat="43.1786" lon="-6.92271">
        <ele>729.9</ele>
        <time>2016-07-11T07:19:36Z</time>
      </trkpt>
      <trkpt lat="43.17852" lon="-6.9228">
        <ele>730</ele>
        <time>2016-07-11T07:19:44Z</time>
      </trkpt>
      <trkpt lat="43.17843" lon="-6.92285">
        <ele>730.2</ele>
        <time>2016-07-11T07:19:52Z</time>
      </trkpt>
      <trkpt lat="43.17834" lon="-6.92289">
        <ele>730.5</ele>
        <time>2016-07-11T07:20:00Z</time>
      </trkpt>
      <trkpt lat="43.17826" lon="-6.92298">
        <ele>731.3</ele>
        <time>2016-07-11T07:20:14Z</time>
      </trkpt>
      <trkpt lat="43.17818" lon="-6.92302">
        <ele>731.4</ele>
        <time>2016-07-11T07:20:22Z</time>
      </trkpt>
      <trkpt lat="43.17809" lon="-6.9231">
        <ele>731.8</ele>
        <time>2016-07-11T07:20:31Z</time>
      </trkpt>
      <trkpt lat="43.17801" lon="-6.92317">
        <ele>732.6</ele>
        <time>2016-07-11T07:20:41Z</time>
      </trkpt>
      <trkpt lat="43.17793" lon="-6.92323">
        <ele>733.4</ele>
        <time>2016-07-11T07:20:50Z</time>
      </trkpt>
      <trkpt lat="43.17785" lon="-6.92329">
        <ele>733.9</ele>
        <time>2016-07-11T07:20:58Z</time>
      </trkpt>
      <trkpt lat="43.17777" lon="-6.92337">
        <ele>734.2</ele>
        <time>2016-07-11T07:21:06Z</time>
      </trkpt>
      <trkpt lat="43.17768" lon="-6.92344">
        <ele>734.5</ele>
        <time>2016-07-11T07:21:15Z</time>
      </trkpt>
      <trkpt lat="43.1776" lon="-6.92348">
        <ele>735.2</ele>
        <time>2016-07-11T07:21:23Z</time>
      </trkpt>
      <trkpt lat="43.1775" lon="-6.92352">
        <ele>735.4</ele>
        <time>2016-07-11T07:21:31Z</time>
      </trkpt>
      <trkpt lat="43.17741" lon="-6.92355">
        <ele>735.8</ele>
        <time>2016-07-11T07:21:39Z</time>
      </trkpt>
      <trkpt lat="43.17732" lon="-6.92357">
        <ele>736.2</ele>
        <time>2016-07-11T07:21:48Z</time>
      </trkpt>
      <trkpt lat="43.17722" lon="-6.92357">
        <ele>736.7</ele>
        <time>2016-07-11T07:21:56Z</time>
      </trkpt>
      <trkpt lat="43.17713" lon="-6.9236">
        <ele>737.3</ele>
        <time>2016-07-11T07:22:04Z</time>
      </trkpt>
      <trkpt lat="43.17704" lon="-6.92364">
        <ele>737.7</ele>
        <time>2016-07-11T07:22:12Z</time>
      </trkpt>
      <trkpt lat="43.17696" lon="-6.9237">
        <ele>738</ele>
        <time>2016-07-11T07:22:20Z</time>
      </trkpt>
      <trkpt lat="43.17687" lon="-6.92377">
        <ele>738.7</ele>
        <time>2016-07-11T07:22:28Z</time>
      </trkpt>
      <trkpt lat="43.1768" lon="-6.92385">
        <ele>739.4</ele>
        <time>2016-07-11T07:22:36Z</time>
      </trkpt>
      <trkpt lat="43.17673" lon="-6.92394">
        <ele>740</ele>
        <time>2016-07-11T07:22:44Z</time>
      </trkpt>
      <trkpt lat="43.17672" lon="-6.92407">
        <ele>741.9</ele>
        <time>2016-07-11T07:23:04Z</time>
      </trkpt>
      <trkpt lat="43.17666" lon="-6.92417">
        <ele>742.4</ele>
        <time>2016-07-11T07:23:13Z</time>
      </trkpt>
      <trkpt lat="43.1766" lon="-6.92429">
        <ele>742.9</ele>
        <time>2016-07-11T07:23:21Z</time>
      </trkpt>
      <trkpt lat="43.17654" lon="-6.92439">
        <ele>743</ele>
        <time>2016-07-11T07:23:29Z</time>
      </trkpt>
      <trkpt lat="43.17645" lon="-6.92444">
        <ele>743.7</ele>
        <time>2016-07-11T07:23:38Z</time>
      </trkpt>
      <trkpt lat="43.17635" lon="-6.92446">
        <ele>744.2</ele>
        <time>2016-07-11T07:23:46Z</time>
      </trkpt>
      <trkpt lat="43.17626" lon="-6.9245">
        <ele>744.5</ele>
        <time>2016-07-11T07:23:54Z</time>
      </trkpt>
      <trkpt lat="43.17617" lon="-6.92453">
        <ele>744.7</ele>
        <time>2016-07-11T07:24:01Z</time>
      </trkpt>
      <trkpt lat="43.17609" lon="-6.92458">
        <ele>745.5</ele>
        <time>2016-07-11T07:24:09Z</time>
      </trkpt>
      <trkpt lat="43.17599" lon="-6.92461">
        <ele>746.2</ele>
        <time>2016-07-11T07:24:20Z</time>
      </trkpt>
      <trkpt lat="43.1759" lon="-6.92466">
        <ele>746.5</ele>
        <time>2016-07-11T07:24:28Z</time>
      </trkpt>
      <trkpt lat="43.17581" lon="-6.9247">
        <ele>747.4</ele>
        <time>2016-07-11T07:24:36Z</time>
      </trkpt>
      <trkpt lat="43.17572" lon="-6.92474">
        <ele>748</ele>
        <time>2016-07-11T07:24:44Z</time>
      </trkpt>
      <trkpt lat="43.17563" lon="-6.92478">
        <ele>748.4</ele>
        <time>2016-07-11T07:24:52Z</time>
      </trkpt>
      <trkpt lat="43.17554" lon="-6.92481">
        <ele>748.8</ele>
        <time>2016-07-11T07:25:00Z</time>
      </trkpt>
      <trkpt lat="43.17544" lon="-6.92482">
        <ele>749.3</ele>
        <time>2016-07-11T07:25:07Z</time>
      </trkpt>
      <trkpt lat="43.17535" lon="-6.92487">
        <ele>750.1</ele>
        <time>2016-07-11T07:25:16Z</time>
      </trkpt>
      <trkpt lat="43.17526" lon="-6.92491">
        <ele>750.9</ele>
        <time>2016-07-11T07:25:24Z</time>
      </trkpt>
      <trkpt lat="43.17518" lon="-6.92497">
        <ele>751.3</ele>
        <time>2016-07-11T07:25:32Z</time>
      </trkpt>
      <trkpt lat="43.17509" lon="-6.92501">
        <ele>751.7</ele>
        <time>2016-07-11T07:25:40Z</time>
      </trkpt>
      <trkpt lat="43.175" lon="-6.92506">
        <ele>752</ele>
        <time>2016-07-11T07:25:50Z</time>
      </trkpt>
      <trkpt lat="43.1749" lon="-6.92511">
        <ele>752.7</ele>
        <time>2016-07-11T07:25:59Z</time>
      </trkpt>
      <trkpt lat="43.17482" lon="-6.92516">
        <ele>753.7</ele>
        <time>2016-07-11T07:26:08Z</time>
      </trkpt>
      <trkpt lat="43.17473" lon="-6.9252">
        <ele>754.4</ele>
        <time>2016-07-11T07:26:16Z</time>
      </trkpt>
      <trkpt lat="43.17465" lon="-6.92525">
        <ele>754.7</ele>
        <time>2016-07-11T07:26:24Z</time>
      </trkpt>
      <trkpt lat="43.17457" lon="-6.92529">
        <ele>755</ele>
        <time>2016-07-11T07:26:32Z</time>
      </trkpt>
      <trkpt lat="43.17448" lon="-6.92535">
        <ele>755.4</ele>
        <time>2016-07-11T07:26:41Z</time>
      </trkpt>
      <trkpt lat="43.17439" lon="-6.92541">
        <ele>756</ele>
        <time>2016-07-11T07:26:49Z</time>
      </trkpt>
      <trkpt lat="43.17431" lon="-6.92547">
        <ele>756.7</ele>
        <time>2016-07-11T07:26:57Z</time>
      </trkpt>
      <trkpt lat="43.17422" lon="-6.92553">
        <ele>757.6</ele>
        <time>2016-07-11T07:27:05Z</time>
      </trkpt>
      <trkpt lat="43.17414" lon="-6.92559">
        <ele>757.8</ele>
        <time>2016-07-11T07:27:13Z</time>
      </trkpt>
      <trkpt lat="43.17405" lon="-6.92565">
        <ele>758.4</ele>
        <time>2016-07-11T07:27:20Z</time>
      </trkpt>
      <trkpt lat="43.17397" lon="-6.92572">
        <ele>759.1</ele>
        <time>2016-07-11T07:27:28Z</time>
      </trkpt>
      <trkpt lat="43.17389" lon="-6.92576">
        <ele>759.6</ele>
        <time>2016-07-11T07:27:36Z</time>
      </trkpt>
      <trkpt lat="43.1738" lon="-6.92581">
        <ele>759.9</ele>
        <time>2016-07-11T07:27:44Z</time>
      </trkpt>
      <trkpt lat="43.17372" lon="-6.92585">
        <ele>760.6</ele>
        <time>2016-07-11T07:27:52Z</time>
      </trkpt>
      <trkpt lat="43.17363" lon="-6.92591">
        <ele>761</ele>
        <time>2016-07-11T07:28:01Z</time>
      </trkpt>
      <trkpt lat="43.17354" lon="-6.92595">
        <ele>761.4</ele>
        <time>2016-07-11T07:28:09Z</time>
      </trkpt>
      <trkpt lat="43.17345" lon="-6.926">
        <ele>761.8</ele>
        <time>2016-07-11T07:28:17Z</time>
      </trkpt>
      <trkpt lat="43.17336" lon="-6.92606">
        <ele>762.2</ele>
        <time>2016-07-11T07:28:25Z</time>
      </trkpt>
      <trkpt lat="43.17327" lon="-6.92611">
        <ele>762.9</ele>
        <time>2016-07-11T07:28:33Z</time>
      </trkpt>
      <trkpt lat="43.17319" lon="-6.92616">
        <ele>763.6</ele>
        <time>2016-07-11T07:28:41Z</time>
      </trkpt>
      <trkpt lat="43.1731" lon="-6.92622">
        <ele>764.5</ele>
        <time>2016-07-11T07:28:49Z</time>
      </trkpt>
      <trkpt lat="43.17302" lon="-6.92627">
        <ele>765.3</ele>
        <time>2016-07-11T07:28:58Z</time>
      </trkpt>
      <trkpt lat="43.17293" lon="-6.92632">
        <ele>765.8</ele>
        <time>2016-07-11T07:29:07Z</time>
      </trkpt>
      <trkpt lat="43.17284" lon="-6.92637">
        <ele>766.4</ele>
        <time>2016-07-11T07:29:16Z</time>
      </trkpt>
      <trkpt lat="43.17275" lon="-6.92642">
        <ele>766.7</ele>
        <time>2016-07-11T07:29:25Z</time>
      </trkpt>
      <trkpt lat="43.17267" lon="-6.92648">
        <ele>766.9</ele>
        <time>2016-07-11T07:29:33Z</time>
      </trkpt>
      <trkpt lat="43.17258" lon="-6.92654">
        <ele>767.9</ele>
        <time>2016-07-11T07:29:41Z</time>
      </trkpt>
      <trkpt lat="43.1725" lon="-6.9266">
        <ele>768.4</ele>
        <time>2016-07-11T07:29:49Z</time>
      </trkpt>
      <trkpt lat="43.17241" lon="-6.92667">
        <ele>769</ele>
        <time>2016-07-11T07:29:57Z</time>
      </trkpt>
      <trkpt lat="43.17232" lon="-6.92672">
        <ele>769.5</ele>
        <time>2016-07-11T07:30:05Z</time>
      </trkpt>
      <trkpt lat="43.17225" lon="-6.92679">
        <ele>770.5</ele>
        <time>2016-07-11T07:30:18Z</time>
      </trkpt>
      <trkpt lat="43.17216" lon="-6.92686">
        <ele>770.9</ele>
        <time>2016-07-11T07:30:27Z</time>
      </trkpt>
      <trkpt lat="43.17208" lon="-6.92693">
        <ele>771.2</ele>
        <time>2016-07-11T07:30:36Z</time>
      </trkpt>
      <trkpt lat="43.172" lon="-6.927">
        <ele>771.6</ele>
        <time>2016-07-11T07:30:44Z</time>
      </trkpt>
      <trkpt lat="43.17192" lon="-6.92708">
        <ele>772.3</ele>
        <time>2016-07-11T07:30:53Z</time>
      </trkpt>
      <trkpt lat="43.17184" lon="-6.92716">
        <ele>772.7</ele>
        <time>2016-07-11T07:31:02Z</time>
      </trkpt>
      <trkpt lat="43.17176" lon="-6.92724">
        <ele>773.3</ele>
        <time>2016-07-11T07:31:10Z</time>
      </trkpt>
      <trkpt lat="43.17169" lon="-6.92731">
        <ele>773.6</ele>
        <time>2016-07-11T07:31:18Z</time>
      </trkpt>
      <trkpt lat="43.17161" lon="-6.92739">
        <ele>774.1</ele>
        <time>2016-07-11T07:31:26Z</time>
      </trkpt>
      <trkpt lat="43.17154" lon="-6.92747">
        <ele>775</ele>
        <time>2016-07-11T07:31:34Z</time>
      </trkpt>
      <trkpt lat="43.17147" lon="-6.92755">
        <ele>775.9</ele>
        <time>2016-07-11T07:31:42Z</time>
      </trkpt>
      <trkpt lat="43.1714" lon="-6.92763">
        <ele>776.8</ele>
        <time>2016-07-11T07:31:50Z</time>
      </trkpt>
      <trkpt lat="43.17134" lon="-6.92772">
        <ele>777.3</ele>
        <time>2016-07-11T07:31:58Z</time>
      </trkpt>
      <trkpt lat="43.17127" lon="-6.92781">
        <ele>777.8</ele>
        <time>2016-07-11T07:32:06Z</time>
      </trkpt>
      <trkpt lat="43.1712" lon="-6.92789">
        <ele>778.2</ele>
        <time>2016-07-11T07:32:14Z</time>
      </trkpt>
      <trkpt lat="43.17114" lon="-6.928">
        <ele>778.5</ele>
        <time>2016-07-11T07:32:23Z</time>
      </trkpt>
      <trkpt lat="43.17108" lon="-6.92809">
        <ele>779</ele>
        <time>2016-07-11T07:32:31Z</time>
      </trkpt>
      <trkpt lat="43.17101" lon="-6.92819">
        <ele>779.6</ele>
        <time>2016-07-11T07:32:40Z</time>
      </trkpt>
      <trkpt lat="43.17095" lon="-6.92829">
        <ele>779.8</ele>
        <time>2016-07-11T07:32:49Z</time>
      </trkpt>
      <trkpt lat="43.17089" lon="-6.92839">
        <ele>780</ele>
        <time>2016-07-11T07:32:57Z</time>
      </trkpt>
      <trkpt lat="43.17083" lon="-6.92848">
        <ele>780.4</ele>
        <time>2016-07-11T07:33:05Z</time>
      </trkpt>
      <trkpt lat="43.17077" lon="-6.92858">
        <ele>780.9</ele>
        <time>2016-07-11T07:33:13Z</time>
      </trkpt>
      <trkpt lat="43.1707" lon="-6.92868">
        <ele>781.1</ele>
        <time>2016-07-11T07:33:21Z</time>
      </trkpt>
      <trkpt lat="43.17064" lon="-6.92877">
        <ele>781.2</ele>
        <time>2016-07-11T07:33:29Z</time>
      </trkpt>
      <trkpt lat="43.17058" lon="-6.92888">
        <ele>781.8</ele>
        <time>2016-07-11T07:33:37Z</time>
      </trkpt>
      <trkpt lat="43.17051" lon="-6.92897">
        <ele>782.2</ele>
        <time>2016-07-11T07:33:45Z</time>
      </trkpt>
      <trkpt lat="43.17044" lon="-6.92907">
        <ele>782.4</ele>
        <time>2016-07-11T07:33:53Z</time>
      </trkpt>
      <trkpt lat="43.17038" lon="-6.92916">
        <ele>782.6</ele>
        <time>2016-07-11T07:34:01Z</time>
      </trkpt>
      <trkpt lat="43.17031" lon="-6.92927">
        <ele>782.9</ele>
        <time>2016-07-11T07:34:10Z</time>
      </trkpt>
      <trkpt lat="43.17025" lon="-6.92935">
        <ele>783.1</ele>
        <time>2016-07-11T07:34:18Z</time>
      </trkpt>
      <trkpt lat="43.17018" lon="-6.92945">
        <ele>783.6</ele>
        <time>2016-07-11T07:34:26Z</time>
      </trkpt>
      <trkpt lat="43.17012" lon="-6.92955">
        <ele>783.8</ele>
        <time>2016-07-11T07:34:34Z</time>
      </trkpt>
      <trkpt lat="43.17007" lon="-6.92964">
        <ele>784.2</ele>
        <time>2016-07-11T07:34:42Z</time>
      </trkpt>
      <trkpt lat="43.17" lon="-6.92974">
        <ele>784.8</ele>
        <time>2016-07-11T07:34:50Z</time>
      </trkpt>
      <trkpt lat="43.16994" lon="-6.92984">
        <ele>785.4</ele>
        <time>2016-07-11T07:34:58Z</time>
      </trkpt>
      <trkpt lat="43.16987" lon="-6.92993">
        <ele>785.7</ele>
        <time>2016-07-11T07:35:07Z</time>
      </trkpt>
      <trkpt lat="43.1698" lon="-6.93002">
        <ele>786.2</ele>
        <time>2016-07-11T07:35:16Z</time>
      </trkpt>
      <trkpt lat="43.16972" lon="-6.9301">
        <ele>786.6</ele>
        <time>2016-07-11T07:35:24Z</time>
      </trkpt>
      <trkpt lat="43.16964" lon="-6.93017">
        <ele>787.1</ele>
        <time>2016-07-11T07:35:32Z</time>
      </trkpt>
      <trkpt lat="43.16956" lon="-6.93024">
        <ele>787.6</ele>
        <time>2016-07-11T07:35:40Z</time>
      </trkpt>
      <trkpt lat="43.16948" lon="-6.9303">
        <ele>788.1</ele>
        <time>2016-07-11T07:35:48Z</time>
      </trkpt>
      <trkpt lat="43.1694" lon="-6.93035">
        <ele>788.4</ele>
        <time>2016-07-11T07:35:56Z</time>
      </trkpt>
      <trkpt lat="43.16931" lon="-6.93041">
        <ele>788.6</ele>
        <time>2016-07-11T07:36:04Z</time>
      </trkpt>
      <trkpt lat="43.16922" lon="-6.93047">
        <ele>789.1</ele>
        <time>2016-07-11T07:36:12Z</time>
      </trkpt>
      <trkpt lat="43.16914" lon="-6.93053">
        <ele>790.2</ele>
        <time>2016-07-11T07:36:20Z</time>
      </trkpt>
      <trkpt lat="43.16906" lon="-6.9306">
        <ele>791</ele>
        <time>2016-07-11T07:36:28Z</time>
      </trkpt>
      <trkpt lat="43.16898" lon="-6.93067">
        <ele>791.7</ele>
        <time>2016-07-11T07:36:36Z</time>
      </trkpt>
      <trkpt lat="43.1689" lon="-6.93075">
        <ele>792.9</ele>
        <time>2016-07-11T07:36:50Z</time>
      </trkpt>
      <trkpt lat="43.16882" lon="-6.93082">
        <ele>793.5</ele>
        <time>2016-07-11T07:36:59Z</time>
      </trkpt>
      <trkpt lat="43.16874" lon="-6.93088">
        <ele>793.9</ele>
        <time>2016-07-11T07:37:07Z</time>
      </trkpt>
      <trkpt lat="43.16865" lon="-6.93092">
        <ele>794.6</ele>
        <time>2016-07-11T07:37:15Z</time>
      </trkpt>
      <trkpt lat="43.16857" lon="-6.93098">
        <ele>795.1</ele>
        <time>2016-07-11T07:37:23Z</time>
      </trkpt>
      <trkpt lat="43.16849" lon="-6.93102">
        <ele>795.4</ele>
        <time>2016-07-11T07:37:31Z</time>
      </trkpt>
      <trkpt lat="43.16841" lon="-6.93108">
        <ele>795.8</ele>
        <time>2016-07-11T07:37:39Z</time>
      </trkpt>
      <trkpt lat="43.16833" lon="-6.93116">
        <ele>796.2</ele>
        <time>2016-07-11T07:37:48Z</time>
      </trkpt>
      <trkpt lat="43.16824" lon="-6.93122">
        <ele>796.6</ele>
        <time>2016-07-11T07:37:57Z</time>
      </trkpt>
      <trkpt lat="43.16816" lon="-6.93128">
        <ele>797</ele>
        <time>2016-07-11T07:38:05Z</time>
      </trkpt>
      <trkpt lat="43.16808" lon="-6.93136">
        <ele>797.5</ele>
        <time>2016-07-11T07:38:14Z</time>
      </trkpt>
      <trkpt lat="43.168" lon="-6.93142">
        <ele>798</ele>
        <time>2016-07-11T07:38:22Z</time>
      </trkpt>
      <trkpt lat="43.16791" lon="-6.93148">
        <ele>798.5</ele>
        <time>2016-07-11T07:38:31Z</time>
      </trkpt>
      <trkpt lat="43.16783" lon="-6.93155">
        <ele>799.4</ele>
        <time>2016-07-11T07:38:40Z</time>
      </trkpt>
      <trkpt lat="43.16775" lon="-6.93162">
        <ele>800.3</ele>
        <time>2016-07-11T07:38:48Z</time>
      </trkpt>
      <trkpt lat="43.16767" lon="-6.93169">
        <ele>801.1</ele>
        <time>2016-07-11T07:38:56Z</time>
      </trkpt>
      <trkpt lat="43.1676" lon="-6.93176">
        <ele>801.5</ele>
        <time>2016-07-11T07:39:04Z</time>
      </trkpt>
      <trkpt lat="43.16751" lon="-6.9318">
        <ele>801.9</ele>
        <time>2016-07-11T07:39:12Z</time>
      </trkpt>
      <trkpt lat="43.16742" lon="-6.93186">
        <ele>802.6</ele>
        <time>2016-07-11T07:39:20Z</time>
      </trkpt>
      <trkpt lat="43.16734" lon="-6.93191">
        <ele>803</ele>
        <time>2016-07-11T07:39:28Z</time>
      </trkpt>
      <trkpt lat="43.16725" lon="-6.93196">
        <ele>804.1</ele>
        <time>2016-07-11T07:39:36Z</time>
      </trkpt>
      <trkpt lat="43.16717" lon="-6.93203">
        <ele>804.7</ele>
        <time>2016-07-11T07:39:44Z</time>
      </trkpt>
      <trkpt lat="43.16709" lon="-6.93209">
        <ele>805.1</ele>
        <time>2016-07-11T07:39:52Z</time>
      </trkpt>
      <trkpt lat="43.16701" lon="-6.93217">
        <ele>805.7</ele>
        <time>2016-07-11T07:40:01Z</time>
      </trkpt>
      <trkpt lat="43.16694" lon="-6.93224">
        <ele>806.1</ele>
        <time>2016-07-11T07:40:09Z</time>
      </trkpt>
      <trkpt lat="43.16685" lon="-6.93231">
        <ele>806.7</ele>
        <time>2016-07-11T07:40:18Z</time>
      </trkpt>
      <trkpt lat="43.16677" lon="-6.93238">
        <ele>807.5</ele>
        <time>2016-07-11T07:40:26Z</time>
      </trkpt>
      <trkpt lat="43.16669" lon="-6.93245">
        <ele>808.3</ele>
        <time>2016-07-11T07:40:36Z</time>
      </trkpt>
      <trkpt lat="43.16661" lon="-6.93252">
        <ele>808.8</ele>
        <time>2016-07-11T07:40:45Z</time>
      </trkpt>
      <trkpt lat="43.16653" lon="-6.93258">
        <ele>809.1</ele>
        <time>2016-07-11T07:40:54Z</time>
      </trkpt>
      <trkpt lat="43.16644" lon="-6.93265">
        <ele>809.4</ele>
        <time>2016-07-11T07:41:03Z</time>
      </trkpt>
      <trkpt lat="43.16636" lon="-6.93272">
        <ele>810.4</ele>
        <time>2016-07-11T07:41:12Z</time>
      </trkpt>
      <trkpt lat="43.16628" lon="-6.93277">
        <ele>810.9</ele>
        <time>2016-07-11T07:41:21Z</time>
      </trkpt>
      <trkpt lat="43.16619" lon="-6.93283">
        <ele>811.9</ele>
        <time>2016-07-11T07:41:33Z</time>
      </trkpt>
      <trkpt lat="43.16611" lon="-6.93288">
        <ele>812.7</ele>
        <time>2016-07-11T07:41:42Z</time>
      </trkpt>
      <trkpt lat="43.16602" lon="-6.93293">
        <ele>813.2</ele>
        <time>2016-07-11T07:41:51Z</time>
      </trkpt>
      <trkpt lat="43.16594" lon="-6.933">
        <ele>813.5</ele>
        <time>2016-07-11T07:42:01Z</time>
      </trkpt>
      <trkpt lat="43.16587" lon="-6.93308">
        <ele>814</ele>
        <time>2016-07-11T07:42:10Z</time>
      </trkpt>
      <trkpt lat="43.16578" lon="-6.93314">
        <ele>814.7</ele>
        <time>2016-07-11T07:42:19Z</time>
      </trkpt>
      <trkpt lat="43.1657" lon="-6.93321">
        <ele>815.9</ele>
        <time>2016-07-11T07:42:33Z</time>
      </trkpt>
      <trkpt lat="43.16562" lon="-6.93328">
        <ele>816.3</ele>
        <time>2016-07-11T07:42:41Z</time>
      </trkpt>
      <trkpt lat="43.16553" lon="-6.93333">
        <ele>816.7</ele>
        <time>2016-07-11T07:42:49Z</time>
      </trkpt>
      <trkpt lat="43.16544" lon="-6.93338">
        <ele>817.2</ele>
        <time>2016-07-11T07:42:57Z</time>
      </trkpt>
      <trkpt lat="43.16535" lon="-6.93341">
        <ele>817.7</ele>
        <time>2016-07-11T07:43:05Z</time>
      </trkpt>
      <trkpt lat="43.16525" lon="-6.93345">
        <ele>818.2</ele>
        <time>2016-07-11T07:43:14Z</time>
      </trkpt>
      <trkpt lat="43.16516" lon="-6.93348">
        <ele>818.8</ele>
        <time>2016-07-11T07:43:22Z</time>
      </trkpt>
      <trkpt lat="43.16507" lon="-6.93354">
        <ele>819.5</ele>
        <time>2016-07-11T07:43:31Z</time>
      </trkpt>
      <trkpt lat="43.16498" lon="-6.93358">
        <ele>819.7</ele>
        <time>2016-07-11T07:43:40Z</time>
      </trkpt>
      <trkpt lat="43.16489" lon="-6.93364">
        <ele>820.6</ele>
        <time>2016-07-11T07:43:49Z</time>
      </trkpt>
      <trkpt lat="43.1648" lon="-6.93368">
        <ele>821.5</ele>
        <time>2016-07-11T07:43:57Z</time>
      </trkpt>
      <trkpt lat="43.16471" lon="-6.93373">
        <ele>822.2</ele>
        <time>2016-07-11T07:44:05Z</time>
      </trkpt>
      <trkpt lat="43.16462" lon="-6.93379">
        <ele>822.7</ele>
        <time>2016-07-11T07:44:14Z</time>
      </trkpt>
      <trkpt lat="43.16453" lon="-6.93383">
        <ele>823.6</ele>
        <time>2016-07-11T07:44:22Z</time>
      </trkpt>
      <trkpt lat="43.16444" lon="-6.93387">
        <ele>824.5</ele>
        <time>2016-07-11T07:44:31Z</time>
      </trkpt>
      <trkpt lat="43.16435" lon="-6.9339">
        <ele>825.2</ele>
        <time>2016-07-11T07:44:39Z</time>
      </trkpt>
      <trkpt lat="43.16428" lon="-6.93397">
        <ele>825.7</ele>
        <time>2016-07-11T07:44:48Z</time>
      </trkpt>
      <trkpt lat="43.16419" lon="-6.93401">
        <ele>826.4</ele>
        <time>2016-07-11T07:44:57Z</time>
      </trkpt>
      <trkpt lat="43.1641" lon="-6.93402">
        <ele>827</ele>
        <time>2016-07-11T07:45:05Z</time>
      </trkpt>
      <trkpt lat="43.164" lon="-6.93405">
        <ele>828</ele>
        <time>2016-07-11T07:45:14Z</time>
      </trkpt>
      <trkpt lat="43.1639" lon="-6.93407">
        <ele>828.8</ele>
        <time>2016-07-11T07:45:23Z</time>
      </trkpt>
      <trkpt lat="43.16382" lon="-6.93414">
        <ele>829.4</ele>
        <time>2016-07-11T07:45:32Z</time>
      </trkpt>
      <trkpt lat="43.16375" lon="-6.93423">
        <ele>830</ele>
        <time>2016-07-11T07:45:42Z</time>
      </trkpt>
      <trkpt lat="43.16366" lon="-6.93427">
        <ele>831.1</ele>
        <time>2016-07-11T07:45:54Z</time>
      </trkpt>
      <trkpt lat="43.16357" lon="-6.93422">
        <ele>832.1</ele>
        <time>2016-07-11T07:46:06Z</time>
      </trkpt>
      <trkpt lat="43.16352" lon="-6.93432">
        <ele>833.3</ele>
        <time>2016-07-11T07:49:20Z</time>
      </trkpt>
      <trkpt lat="43.16343" lon="-6.93439">
        <ele>834.7</ele>
        <time>2016-07-11T07:50:56Z</time>
      </trkpt>
      <trkpt lat="43.16335" lon="-6.93445">
        <ele>835.1</ele>
        <time>2016-07-11T07:51:08Z</time>
      </trkpt>
      <trkpt lat="43.16339" lon="-6.93457">
        <ele>837.4</ele>
        <time>2016-07-11T07:51:32Z</time>
      </trkpt>
      <trkpt lat="43.16345" lon="-6.93467">
        <ele>838</ele>
        <time>2016-07-11T07:51:44Z</time>
      </trkpt>
      <trkpt lat="43.16351" lon="-6.93476">
        <ele>839.6</ele>
        <time>2016-07-11T07:51:57Z</time>
      </trkpt>
      <trkpt lat="43.16351" lon="-6.93489">
        <ele>840.9</ele>
        <time>2016-07-11T07:52:08Z</time>
      </trkpt>
      <trkpt lat="43.1635" lon="-6.93501">
        <ele>843.2</ele>
        <time>2016-07-11T07:52:35Z</time>
      </trkpt>
      <trkpt lat="43.16341" lon="-6.93502">
        <ele>844</ele>
        <time>2016-07-11T07:52:48Z</time>
      </trkpt>
      <trkpt lat="43.16332" lon="-6.93508">
        <ele>846.1</ele>
        <time>2016-07-11T07:53:03Z</time>
      </trkpt>
      <trkpt lat="43.1633" lon="-6.9352">
        <ele>846.9</ele>
        <time>2016-07-11T07:53:18Z</time>
      </trkpt>
      <trkpt lat="43.16321" lon="-6.9352">
        <ele>850.4</ele>
        <time>2016-07-11T07:53:48Z</time>
      </trkpt>
      <trkpt lat="43.16314" lon="-6.93528">
        <ele>850.9</ele>
        <time>2016-07-11T07:54:53Z</time>
      </trkpt>
      <trkpt lat="43.16305" lon="-6.93521">
        <ele>850.9</ele>
        <time>2016-07-11T07:55:16Z</time>
      </trkpt>
      <trkpt lat="43.16297" lon="-6.93513">
        <ele>850.9</ele>
        <time>2016-07-11T07:55:24Z</time>
      </trkpt>
      <trkpt lat="43.16288" lon="-6.9351">
        <ele>850.9</ele>
        <time>2016-07-11T07:55:34Z</time>
      </trkpt>
      <trkpt lat="43.16279" lon="-6.93505">
        <ele>850.6</ele>
        <time>2016-07-11T07:55:43Z</time>
      </trkpt>
      <trkpt lat="43.1627" lon="-6.93504">
        <ele>850.8</ele>
        <time>2016-07-11T07:55:53Z</time>
      </trkpt>
      <trkpt lat="43.1626" lon="-6.93501">
        <ele>850.8</ele>
        <time>2016-07-11T07:56:02Z</time>
      </trkpt>
      <trkpt lat="43.16251" lon="-6.93503">
        <ele>851.7</ele>
        <time>2016-07-11T07:56:44Z</time>
      </trkpt>
      <trkpt lat="43.16241" lon="-6.93503">
        <ele>851.9</ele>
        <time>2016-07-11T07:56:54Z</time>
      </trkpt>
      <trkpt lat="43.16232" lon="-6.93504">
        <ele>852.3</ele>
        <time>2016-07-11T07:57:03Z</time>
      </trkpt>
      <trkpt lat="43.16223" lon="-6.93506">
        <ele>852.8</ele>
        <time>2016-07-11T07:57:14Z</time>
      </trkpt>
      <trkpt lat="43.16214" lon="-6.93509">
        <ele>853.4</ele>
        <time>2016-07-11T07:57:25Z</time>
      </trkpt>
      <trkpt lat="43.16205" lon="-6.9351">
        <ele>854.1</ele>
        <time>2016-07-11T07:57:34Z</time>
      </trkpt>
      <trkpt lat="43.16196" lon="-6.93514">
        <ele>855</ele>
        <time>2016-07-11T07:57:43Z</time>
      </trkpt>
      <trkpt lat="43.16187" lon="-6.93516">
        <ele>856.1</ele>
        <time>2016-07-11T07:57:54Z</time>
      </trkpt>
      <trkpt lat="43.16178" lon="-6.93515">
        <ele>856.6</ele>
        <time>2016-07-11T07:58:02Z</time>
      </trkpt>
      <trkpt lat="43.16169" lon="-6.93516">
        <ele>857.6</ele>
        <time>2016-07-11T07:58:11Z</time>
      </trkpt>
      <trkpt lat="43.1616" lon="-6.9352">
        <ele>858.7</ele>
        <time>2016-07-11T07:58:20Z</time>
      </trkpt>
      <trkpt lat="43.16151" lon="-6.93526">
        <ele>859.5</ele>
        <time>2016-07-11T07:58:31Z</time>
      </trkpt>
      <trkpt lat="43.16142" lon="-6.93526">
        <ele>861.9</ele>
        <time>2016-07-11T07:58:54Z</time>
      </trkpt>
      <trkpt lat="43.16133" lon="-6.93525">
        <ele>863</ele>
        <time>2016-07-11T07:59:39Z</time>
      </trkpt>
      <trkpt lat="43.16123" lon="-6.93522">
        <ele>863</ele>
        <time>2016-07-11T07:59:49Z</time>
      </trkpt>
      <trkpt lat="43.16114" lon="-6.9352">
        <ele>863.7</ele>
        <time>2016-07-11T08:00:00Z</time>
      </trkpt>
      <trkpt lat="43.16105" lon="-6.93517">
        <ele>865</ele>
        <time>2016-07-11T08:00:09Z</time>
      </trkpt>
      <trkpt lat="43.16095" lon="-6.93517">
        <ele>866.9</ele>
        <time>2016-07-11T08:00:19Z</time>
      </trkpt>
      <trkpt lat="43.16086" lon="-6.93517">
        <ele>868.5</ele>
        <time>2016-07-11T08:00:28Z</time>
      </trkpt>
      <trkpt lat="43.16076" lon="-6.93515">
        <ele>870.8</ele>
        <time>2016-07-11T08:00:40Z</time>
      </trkpt>
      <trkpt lat="43.16067" lon="-6.93514">
        <ele>875.4</ele>
        <time>2016-07-11T08:01:11Z</time>
      </trkpt>
      <trkpt lat="43.16059" lon="-6.93519">
        <ele>876.1</ele>
        <time>2016-07-11T08:01:25Z</time>
      </trkpt>
      <trkpt lat="43.1605" lon="-6.93524">
        <ele>878.1</ele>
        <time>2016-07-11T08:01:37Z</time>
      </trkpt>
      <trkpt lat="43.16041" lon="-6.93528">
        <ele>880.4</ele>
        <time>2016-07-11T08:01:50Z</time>
      </trkpt>
      <trkpt lat="43.16032" lon="-6.93533">
        <ele>881.8</ele>
        <time>2016-07-11T08:02:02Z</time>
      </trkpt>
      <trkpt lat="43.16023" lon="-6.93537">
        <ele>883.3</ele>
        <time>2016-07-11T08:02:13Z</time>
      </trkpt>
      <trkpt lat="43.16014" lon="-6.93539">
        <ele>885.2</ele>
        <time>2016-07-11T08:02:22Z</time>
      </trkpt>
      <trkpt lat="43.16005" lon="-6.93542">
        <ele>887</ele>
        <time>2016-07-11T08:02:32Z</time>
      </trkpt>
      <trkpt lat="43.15996" lon="-6.93547">
        <ele>888</ele>
        <time>2016-07-11T08:02:43Z</time>
      </trkpt>
      <trkpt lat="43.15988" lon="-6.9355">
        <ele>890.9</ele>
        <time>2016-07-11T08:03:01Z</time>
      </trkpt>
      <trkpt lat="43.1598" lon="-6.93557">
        <ele>891.5</ele>
        <time>2016-07-11T08:03:12Z</time>
      </trkpt>
      <trkpt lat="43.15972" lon="-6.93563">
        <ele>892.2</ele>
        <time>2016-07-11T08:03:22Z</time>
      </trkpt>
      <trkpt lat="43.15963" lon="-6.93567">
        <ele>893.7</ele>
        <time>2016-07-11T08:03:33Z</time>
      </trkpt>
      <trkpt lat="43.15955" lon="-6.93571">
        <ele>895.1</ele>
        <time>2016-07-11T08:03:46Z</time>
      </trkpt>
      <trkpt lat="43.15945" lon="-6.93576">
        <ele>896.4</ele>
        <time>2016-07-11T08:03:57Z</time>
      </trkpt>
      <trkpt lat="43.15937" lon="-6.93582">
        <ele>897.7</ele>
        <time>2016-07-11T08:04:07Z</time>
      </trkpt>
      <trkpt lat="43.15929" lon="-6.93589">
        <ele>899</ele>
        <time>2016-07-11T08:04:18Z</time>
      </trkpt>
      <trkpt lat="43.15921" lon="-6.93596">
        <ele>900.3</ele>
        <time>2016-07-11T08:04:28Z</time>
      </trkpt>
      <trkpt lat="43.15913" lon="-6.93602">
        <ele>901.2</ele>
        <time>2016-07-11T08:04:38Z</time>
      </trkpt>
      <trkpt lat="43.15905" lon="-6.9361">
        <ele>902.3</ele>
        <time>2016-07-11T08:04:49Z</time>
      </trkpt>
      <trkpt lat="43.15897" lon="-6.93618">
        <ele>903.5</ele>
        <time>2016-07-11T08:04:59Z</time>
      </trkpt>
      <trkpt lat="43.1589" lon="-6.93626">
        <ele>904.5</ele>
        <time>2016-07-11T08:05:09Z</time>
      </trkpt>
      <trkpt lat="43.15883" lon="-6.93634">
        <ele>905.6</ele>
        <time>2016-07-11T08:05:20Z</time>
      </trkpt>
      <trkpt lat="43.15876" lon="-6.93643">
        <ele>906.4</ele>
        <time>2016-07-11T08:05:30Z</time>
      </trkpt>
      <trkpt lat="43.15869" lon="-6.93652">
        <ele>907.7</ele>
        <time>2016-07-11T08:05:40Z</time>
      </trkpt>
      <trkpt lat="43.15862" lon="-6.93659">
        <ele>909.1</ele>
        <time>2016-07-11T08:05:51Z</time>
      </trkpt>
      <trkpt lat="43.15856" lon="-6.9367">
        <ele>910.6</ele>
        <time>2016-07-11T08:06:02Z</time>
      </trkpt>
      <trkpt lat="43.15851" lon="-6.9368">
        <ele>911.8</ele>
        <time>2016-07-11T08:06:12Z</time>
      </trkpt>
      <trkpt lat="43.15845" lon="-6.9369">
        <ele>913.2</ele>
        <time>2016-07-11T08:06:22Z</time>
      </trkpt>
      <trkpt lat="43.15838" lon="-6.93699">
        <ele>916.4</ele>
        <time>2016-07-11T08:06:47Z</time>
      </trkpt>
      <trkpt lat="43.15831" lon="-6.93708">
        <ele>917.4</ele>
        <time>2016-07-11T08:07:00Z</time>
      </trkpt>
      <trkpt lat="43.15825" lon="-6.93719">
        <ele>918.1</ele>
        <time>2016-07-11T08:07:12Z</time>
      </trkpt>
      <trkpt lat="43.15821" lon="-6.9373">
        <ele>919.5</ele>
        <time>2016-07-11T08:07:23Z</time>
      </trkpt>
      <trkpt lat="43.15817" lon="-6.93742">
        <ele>920.6</ele>
        <time>2016-07-11T08:07:35Z</time>
      </trkpt>
      <trkpt lat="43.15812" lon="-6.93754">
        <ele>921.8</ele>
        <time>2016-07-11T08:07:45Z</time>
      </trkpt>
      <trkpt lat="43.15807" lon="-6.93764">
        <ele>923.1</ele>
        <time>2016-07-11T08:07:55Z</time>
      </trkpt>
      <trkpt lat="43.15804" lon="-6.93776">
        <ele>925.9</ele>
        <time>2016-07-11T08:08:21Z</time>
      </trkpt>
      <trkpt lat="43.15798" lon="-6.93786">
        <ele>926.6</ele>
        <time>2016-07-11T08:08:34Z</time>
      </trkpt>
      <trkpt lat="43.15793" lon="-6.93797">
        <ele>926.4</ele>
        <time>2016-07-11T08:08:44Z</time>
      </trkpt>
      <trkpt lat="43.15787" lon="-6.93808">
        <ele>927.1</ele>
        <time>2016-07-11T08:08:55Z</time>
      </trkpt>
      <trkpt lat="43.15782" lon="-6.93819">
        <ele>927.6</ele>
        <time>2016-07-11T08:09:07Z</time>
      </trkpt>
      <trkpt lat="43.15778" lon="-6.93832">
        <ele>928.7</ele>
        <time>2016-07-11T08:09:17Z</time>
      </trkpt>
      <trkpt lat="43.15774" lon="-6.93844">
        <ele>929.5</ele>
        <time>2016-07-11T08:09:26Z</time>
      </trkpt>
      <trkpt lat="43.1577" lon="-6.93855">
        <ele>930.4</ele>
        <time>2016-07-11T08:09:35Z</time>
      </trkpt>
      <trkpt lat="43.15763" lon="-6.93865">
        <ele>931.5</ele>
        <time>2016-07-11T08:09:45Z</time>
      </trkpt>
      <trkpt lat="43.15757" lon="-6.93876">
        <ele>932.8</ele>
        <time>2016-07-11T08:09:55Z</time>
      </trkpt>
      <trkpt lat="43.15752" lon="-6.93887">
        <ele>933.4</ele>
        <time>2016-07-11T08:10:05Z</time>
      </trkpt>
      <trkpt lat="43.15745" lon="-6.93895">
        <ele>933.9</ele>
        <time>2016-07-11T08:10:15Z</time>
      </trkpt>
      <trkpt lat="43.15737" lon="-6.93902">
        <ele>934.8</ele>
        <time>2016-07-11T08:10:25Z</time>
      </trkpt>
      <trkpt lat="43.1573" lon="-6.93911">
        <ele>935.5</ele>
        <time>2016-07-11T08:10:34Z</time>
      </trkpt>
      <trkpt lat="43.15723" lon="-6.9392">
        <ele>935.9</ele>
        <time>2016-07-11T08:10:43Z</time>
      </trkpt>
      <trkpt lat="43.15716" lon="-6.93928">
        <ele>936.9</ele>
        <time>2016-07-11T08:10:52Z</time>
      </trkpt>
      <trkpt lat="43.15708" lon="-6.93935">
        <ele>938</ele>
        <time>2016-07-11T08:11:02Z</time>
      </trkpt>
      <trkpt lat="43.15699" lon="-6.9394">
        <ele>938.7</ele>
        <time>2016-07-11T08:11:11Z</time>
      </trkpt>
      <trkpt lat="43.15692" lon="-6.93947">
        <ele>939.2</ele>
        <time>2016-07-11T08:11:20Z</time>
      </trkpt>
      <trkpt lat="43.15683" lon="-6.93954">
        <ele>940.2</ele>
        <time>2016-07-11T08:11:31Z</time>
      </trkpt>
      <trkpt lat="43.15675" lon="-6.93959">
        <ele>941.1</ele>
        <time>2016-07-11T08:11:41Z</time>
      </trkpt>
      <trkpt lat="43.15666" lon="-6.93964">
        <ele>942.4</ele>
        <time>2016-07-11T08:11:51Z</time>
      </trkpt>
      <trkpt lat="43.15656" lon="-6.93969">
        <ele>943.3</ele>
        <time>2016-07-11T08:12:00Z</time>
      </trkpt>
      <trkpt lat="43.15648" lon="-6.93973">
        <ele>943.9</ele>
        <time>2016-07-11T08:12:11Z</time>
      </trkpt>
      <trkpt lat="43.1564" lon="-6.93981">
        <ele>944.8</ele>
        <time>2016-07-11T08:12:21Z</time>
      </trkpt>
      <trkpt lat="43.15632" lon="-6.9399">
        <ele>946.3</ele>
        <time>2016-07-11T08:12:30Z</time>
      </trkpt>
      <trkpt lat="43.15625" lon="-6.93999">
        <ele>947.3</ele>
        <time>2016-07-11T08:12:40Z</time>
      </trkpt>
      <trkpt lat="43.15617" lon="-6.94006">
        <ele>948.2</ele>
        <time>2016-07-11T08:12:49Z</time>
      </trkpt>
      <trkpt lat="43.1561" lon="-6.94013">
        <ele>948.9</ele>
        <time>2016-07-11T08:12:59Z</time>
      </trkpt>
      <trkpt lat="43.15602" lon="-6.94021">
        <ele>949.6</ele>
        <time>2016-07-11T08:13:10Z</time>
      </trkpt>
      <trkpt lat="43.15594" lon="-6.94027">
        <ele>950.7</ele>
        <time>2016-07-11T08:13:20Z</time>
      </trkpt>
      <trkpt lat="43.15585" lon="-6.94034">
        <ele>951.6</ele>
        <time>2016-07-11T08:13:31Z</time>
      </trkpt>
      <trkpt lat="43.15577" lon="-6.94041">
        <ele>953</ele>
        <time>2016-07-11T08:13:41Z</time>
      </trkpt>
      <trkpt lat="43.1557" lon="-6.94048">
        <ele>953.9</ele>
        <time>2016-07-11T08:13:51Z</time>
      </trkpt>
      <trkpt lat="43.15562" lon="-6.94056">
        <ele>954.8</ele>
        <time>2016-07-11T08:14:01Z</time>
      </trkpt>
      <trkpt lat="43.15556" lon="-6.94065">
        <ele>956.6</ele>
        <time>2016-07-11T08:14:33Z</time>
      </trkpt>
      <trkpt lat="43.15551" lon="-6.94076">
        <ele>956.3</ele>
        <time>2016-07-11T08:14:43Z</time>
      </trkpt>
      <trkpt lat="43.15547" lon="-6.94088">
        <ele>956.3</ele>
        <time>2016-07-11T08:14:53Z</time>
      </trkpt>
      <trkpt lat="43.15543" lon="-6.941">
        <ele>957.1</ele>
        <time>2016-07-11T08:15:03Z</time>
      </trkpt>
      <trkpt lat="43.15539" lon="-6.94112">
        <ele>958.3</ele>
        <time>2016-07-11T08:15:13Z</time>
      </trkpt>
      <trkpt lat="43.15536" lon="-6.94124">
        <ele>959</ele>
        <time>2016-07-11T08:15:23Z</time>
      </trkpt>
      <trkpt lat="43.15532" lon="-6.94136">
        <ele>959.5</ele>
        <time>2016-07-11T08:15:33Z</time>
      </trkpt>
      <trkpt lat="43.15528" lon="-6.94147">
        <ele>960</ele>
        <time>2016-07-11T08:15:43Z</time>
      </trkpt>
      <trkpt lat="43.15524" lon="-6.9416">
        <ele>960.7</ele>
        <time>2016-07-11T08:15:52Z</time>
      </trkpt>
      <trkpt lat="43.15521" lon="-6.94172">
        <ele>961</ele>
        <time>2016-07-11T08:16:00Z</time>
      </trkpt>
      <trkpt lat="43.15519" lon="-6.94185">
        <ele>961.7</ele>
        <time>2016-07-11T08:16:08Z</time>
      </trkpt>
      <trkpt lat="43.15519" lon="-6.94199">
        <ele>962.5</ele>
        <time>2016-07-11T08:16:17Z</time>
      </trkpt>
      <trkpt lat="43.15518" lon="-6.94211">
        <ele>963.3</ele>
        <time>2016-07-11T08:16:25Z</time>
      </trkpt>
      <trkpt lat="43.15518" lon="-6.94224">
        <ele>963.5</ele>
        <time>2016-07-11T08:16:33Z</time>
      </trkpt>
      <trkpt lat="43.15517" lon="-6.94237">
        <ele>963.7</ele>
        <time>2016-07-11T08:16:42Z</time>
      </trkpt>
      <trkpt lat="43.15516" lon="-6.9425">
        <ele>964.2</ele>
        <time>2016-07-11T08:16:50Z</time>
      </trkpt>
      <trkpt lat="43.15515" lon="-6.94263">
        <ele>964.4</ele>
        <time>2016-07-11T08:16:58Z</time>
      </trkpt>
      <trkpt lat="43.15514" lon="-6.94276">
        <ele>965</ele>
        <time>2016-07-11T08:17:06Z</time>
      </trkpt>
      <trkpt lat="43.15514" lon="-6.94288">
        <ele>965.7</ele>
        <time>2016-07-11T08:17:14Z</time>
      </trkpt>
      <trkpt lat="43.15513" lon="-6.94301">
        <ele>966.2</ele>
        <time>2016-07-11T08:17:22Z</time>
      </trkpt>
      <trkpt lat="43.15512" lon="-6.94315">
        <ele>967.3</ele>
        <time>2016-07-11T08:17:32Z</time>
      </trkpt>
      <trkpt lat="43.1551" lon="-6.94327">
        <ele>967.8</ele>
        <time>2016-07-11T08:17:41Z</time>
      </trkpt>
      <trkpt lat="43.15508" lon="-6.94341">
        <ele>969</ele>
        <time>2016-07-11T08:17:51Z</time>
      </trkpt>
      <trkpt lat="43.15507" lon="-6.94354">
        <ele>970.2</ele>
        <time>2016-07-11T08:18:00Z</time>
      </trkpt>
      <trkpt lat="43.15505" lon="-6.94366">
        <ele>970.9</ele>
        <time>2016-07-11T08:18:09Z</time>
      </trkpt>
      <trkpt lat="43.15505" lon="-6.94379">
        <ele>971.3</ele>
        <time>2016-07-11T08:18:18Z</time>
      </trkpt>
      <trkpt lat="43.15503" lon="-6.94392">
        <ele>971.5</ele>
        <time>2016-07-11T08:18:27Z</time>
      </trkpt>
      <trkpt lat="43.155" lon="-6.94404">
        <ele>972.1</ele>
        <time>2016-07-11T08:18:36Z</time>
      </trkpt>
      <trkpt lat="43.15495" lon="-6.94416">
        <ele>973.2</ele>
        <time>2016-07-11T08:18:45Z</time>
      </trkpt>
      <trkpt lat="43.15493" lon="-6.94429">
        <ele>973.5</ele>
        <time>2016-07-11T08:18:54Z</time>
      </trkpt>
      <trkpt lat="43.15493" lon="-6.94442">
        <ele>974</ele>
        <time>2016-07-11T08:19:03Z</time>
      </trkpt>
      <trkpt lat="43.15494" lon="-6.94455">
        <ele>975.2</ele>
        <time>2016-07-11T08:19:12Z</time>
      </trkpt>
      <trkpt lat="43.15492" lon="-6.94469">
        <ele>976.4</ele>
        <time>2016-07-11T08:19:22Z</time>
      </trkpt>
      <trkpt lat="43.1549" lon="-6.94481">
        <ele>977.2</ele>
        <time>2016-07-11T08:19:32Z</time>
      </trkpt>
      <trkpt lat="43.15488" lon="-6.94493">
        <ele>978.2</ele>
        <time>2016-07-11T08:19:40Z</time>
      </trkpt>
      <trkpt lat="43.15488" lon="-6.94506">
        <ele>979.2</ele>
        <time>2016-07-11T08:19:49Z</time>
      </trkpt>
      <trkpt lat="43.15489" lon="-6.94519">
        <ele>980</ele>
        <time>2016-07-11T08:19:59Z</time>
      </trkpt>
      <trkpt lat="43.1549" lon="-6.94532">
        <ele>981.1</ele>
        <time>2016-07-11T08:20:07Z</time>
      </trkpt>
      <trkpt lat="43.15492" lon="-6.94545">
        <ele>981.7</ele>
        <time>2016-07-11T08:20:15Z</time>
      </trkpt>
      <trkpt lat="43.15495" lon="-6.94558">
        <ele>982.3</ele>
        <time>2016-07-11T08:20:23Z</time>
      </trkpt>
      <trkpt lat="43.15499" lon="-6.94571">
        <ele>982.9</ele>
        <time>2016-07-11T08:20:31Z</time>
      </trkpt>
      <trkpt lat="43.15503" lon="-6.94582">
        <ele>983.3</ele>
        <time>2016-07-11T08:20:38Z</time>
      </trkpt>
      <trkpt lat="43.15508" lon="-6.94593">
        <ele>983.1</ele>
        <time>2016-07-11T08:20:45Z</time>
      </trkpt>
      <trkpt lat="43.15513" lon="-6.94604">
        <ele>983.6</ele>
        <time>2016-07-11T08:20:52Z</time>
      </trkpt>
      <trkpt lat="43.1552" lon="-6.94614">
        <ele>983.9</ele>
        <time>2016-07-11T08:20:59Z</time>
      </trkpt>
      <trkpt lat="43.15526" lon="-6.94624">
        <ele>984.1</ele>
        <time>2016-07-11T08:21:07Z</time>
      </trkpt>
      <trkpt lat="43.15533" lon="-6.94634">
        <ele>984.2</ele>
        <time>2016-07-11T08:21:15Z</time>
      </trkpt>
      <trkpt lat="43.1554" lon="-6.94643">
        <ele>984.6</ele>
        <time>2016-07-11T08:21:23Z</time>
      </trkpt>
      <trkpt lat="43.15548" lon="-6.94652">
        <ele>984.9</ele>
        <time>2016-07-11T08:21:31Z</time>
      </trkpt>
      <trkpt lat="43.15554" lon="-6.94663">
        <ele>985</ele>
        <time>2016-07-11T08:21:39Z</time>
      </trkpt>
      <trkpt lat="43.15561" lon="-6.94672">
        <ele>985</ele>
        <time>2016-07-11T08:21:47Z</time>
      </trkpt>
      <trkpt lat="43.15567" lon="-6.94683">
        <ele>985.2</ele>
        <time>2016-07-11T08:21:55Z</time>
      </trkpt>
      <trkpt lat="43.15575" lon="-6.94692">
        <ele>985.4</ele>
        <time>2016-07-11T08:22:03Z</time>
      </trkpt>
      <trkpt lat="43.15582" lon="-6.94702">
        <ele>985.7</ele>
        <time>2016-07-11T08:22:11Z</time>
      </trkpt>
      <trkpt lat="43.15588" lon="-6.94711">
        <ele>985.9</ele>
        <time>2016-07-11T08:22:19Z</time>
      </trkpt>
      <trkpt lat="43.15595" lon="-6.94721">
        <ele>986.2</ele>
        <time>2016-07-11T08:22:27Z</time>
      </trkpt>
      <trkpt lat="43.15601" lon="-6.94732">
        <ele>986.4</ele>
        <time>2016-07-11T08:22:36Z</time>
      </trkpt>
      <trkpt lat="43.15607" lon="-6.94741">
        <ele>986.4</ele>
        <time>2016-07-11T08:22:44Z</time>
      </trkpt>
      <trkpt lat="43.15611" lon="-6.94753">
        <ele>986.8</ele>
        <time>2016-07-11T08:22:54Z</time>
      </trkpt>
      <trkpt lat="43.15613" lon="-6.94765">
        <ele>987.5</ele>
        <time>2016-07-11T08:23:04Z</time>
      </trkpt>
      <trkpt lat="43.15614" lon="-6.94778">
        <ele>987.6</ele>
        <time>2016-07-11T08:23:13Z</time>
      </trkpt>
      <trkpt lat="43.15616" lon="-6.94791">
        <ele>988</ele>
        <time>2016-07-11T08:23:24Z</time>
      </trkpt>
      <trkpt lat="43.15617" lon="-6.94804">
        <ele>988.2</ele>
        <time>2016-07-11T08:23:33Z</time>
      </trkpt>
      <trkpt lat="43.15616" lon="-6.94817">
        <ele>989</ele>
        <time>2016-07-11T08:23:40Z</time>
      </trkpt>
      <trkpt lat="43.15614" lon="-6.94831">
        <ele>989.9</ele>
        <time>2016-07-11T08:23:48Z</time>
      </trkpt>
      <trkpt lat="43.15612" lon="-6.94844">
        <ele>990.7</ele>
        <time>2016-07-11T08:23:57Z</time>
      </trkpt>
      <trkpt lat="43.15606" lon="-6.94854">
        <ele>991.5</ele>
        <time>2016-07-11T08:24:06Z</time>
      </trkpt>
      <trkpt lat="43.15599" lon="-6.94863">
        <ele>992</ele>
        <time>2016-07-11T08:24:15Z</time>
      </trkpt>
      <trkpt lat="43.15591" lon="-6.94871">
        <ele>992.8</ele>
        <time>2016-07-11T08:24:24Z</time>
      </trkpt>
      <trkpt lat="43.15584" lon="-6.94879">
        <ele>992.6</ele>
        <time>2016-07-11T08:24:33Z</time>
      </trkpt>
      <trkpt lat="43.15579" lon="-6.9489">
        <ele>992.6</ele>
        <time>2016-07-11T08:24:46Z</time>
      </trkpt>
      <trkpt lat="43.15575" lon="-6.94901">
        <ele>992.5</ele>
        <time>2016-07-11T08:24:56Z</time>
      </trkpt>
      <trkpt lat="43.1557" lon="-6.94913">
        <ele>992.5</ele>
        <time>2016-07-11T08:25:07Z</time>
      </trkpt>
      <trkpt lat="43.15567" lon="-6.94926">
        <ele>993.5</ele>
        <time>2016-07-11T08:25:18Z</time>
      </trkpt>
      <trkpt lat="43.15564" lon="-6.94938">
        <ele>994.5</ele>
        <time>2016-07-11T08:25:27Z</time>
      </trkpt>
      <trkpt lat="43.15559" lon="-6.94948">
        <ele>995.1</ele>
        <time>2016-07-11T08:25:37Z</time>
      </trkpt>
      <trkpt lat="43.15556" lon="-6.9496">
        <ele>996.1</ele>
        <time>2016-07-11T08:25:47Z</time>
      </trkpt>
      <trkpt lat="43.15553" lon="-6.94974">
        <ele>997</ele>
        <time>2016-07-11T08:25:57Z</time>
      </trkpt>
      <trkpt lat="43.1555" lon="-6.94985">
        <ele>998.5</ele>
        <time>2016-07-11T08:26:08Z</time>
      </trkpt>
      <trkpt lat="43.15547" lon="-6.94997">
        <ele>999.6</ele>
        <time>2016-07-11T08:26:18Z</time>
      </trkpt>
      <trkpt lat="43.15544" lon="-6.95009">
        <ele>1000.8</ele>
        <time>2016-07-11T08:26:30Z</time>
      </trkpt>
      <trkpt lat="43.15541" lon="-6.95022">
        <ele>1002.1</ele>
        <time>2016-07-11T08:26:41Z</time>
      </trkpt>
      <trkpt lat="43.15539" lon="-6.95035">
        <ele>1003.1</ele>
        <time>2016-07-11T08:26:51Z</time>
      </trkpt>
      <trkpt lat="43.15535" lon="-6.95047">
        <ele>1004.1</ele>
        <time>2016-07-11T08:27:01Z</time>
      </trkpt>
      <trkpt lat="43.15531" lon="-6.95059">
        <ele>1005.3</ele>
        <time>2016-07-11T08:27:12Z</time>
      </trkpt>
      <trkpt lat="43.15529" lon="-6.95071">
        <ele>1006.5</ele>
        <time>2016-07-11T08:27:22Z</time>
      </trkpt>
      <trkpt lat="43.15526" lon="-6.95083">
        <ele>1008.1</ele>
        <time>2016-07-11T08:27:34Z</time>
      </trkpt>
      <trkpt lat="43.15521" lon="-6.95093">
        <ele>1009.5</ele>
        <time>2016-07-11T08:27:44Z</time>
      </trkpt>
      <trkpt lat="43.15519" lon="-6.95106">
        <ele>1013.1</ele>
        <time>2016-07-11T08:28:20Z</time>
      </trkpt>
      <trkpt lat="43.15515" lon="-6.95118">
        <ele>1013.2</ele>
        <time>2016-07-11T08:28:40Z</time>
      </trkpt>
      <trkpt lat="43.15512" lon="-6.9513">
        <ele>1013.9</ele>
        <time>2016-07-11T08:28:53Z</time>
      </trkpt>
      <trkpt lat="43.15509" lon="-6.95142">
        <ele>1015.2</ele>
        <time>2016-07-11T08:29:04Z</time>
      </trkpt>
      <trkpt lat="43.15505" lon="-6.95154">
        <ele>1016</ele>
        <time>2016-07-11T08:29:15Z</time>
      </trkpt>
      <trkpt lat="43.15503" lon="-6.95167">
        <ele>1017.5</ele>
        <time>2016-07-11T08:29:26Z</time>
      </trkpt>
      <trkpt lat="43.15501" lon="-6.9518">
        <ele>1019</ele>
        <time>2016-07-11T08:29:36Z</time>
      </trkpt>
      <trkpt lat="43.15498" lon="-6.95192">
        <ele>1020</ele>
        <time>2016-07-11T08:29:47Z</time>
      </trkpt>
      <trkpt lat="43.15496" lon="-6.95205">
        <ele>1021.1</ele>
        <time>2016-07-11T08:29:58Z</time>
      </trkpt>
      <trkpt lat="43.15494" lon="-6.95218">
        <ele>1022</ele>
        <time>2016-07-11T08:30:08Z</time>
      </trkpt>
      <trkpt lat="43.15487" lon="-6.95227">
        <ele>1023.2</ele>
        <time>2016-07-11T08:30:19Z</time>
      </trkpt>
      <trkpt lat="43.15479" lon="-6.95232">
        <ele>1024.7</ele>
        <time>2016-07-11T08:30:32Z</time>
      </trkpt>
      <trkpt lat="43.15469" lon="-6.95232">
        <ele>1026.7</ele>
        <time>2016-07-11T08:30:56Z</time>
      </trkpt>
      <trkpt lat="43.1546" lon="-6.95228">
        <ele>1028.1</ele>
        <time>2016-07-11T08:31:09Z</time>
      </trkpt>
      <trkpt lat="43.15451" lon="-6.95227">
        <ele>1030.3</ele>
        <time>2016-07-11T08:31:22Z</time>
      </trkpt>
      <trkpt lat="43.15441" lon="-6.95225">
        <ele>1031.6</ele>
        <time>2016-07-11T08:31:36Z</time>
      </trkpt>
      <trkpt lat="43.15432" lon="-6.95227">
        <ele>1036.6</ele>
        <time>2016-07-11T08:32:35Z</time>
      </trkpt>
      <trkpt lat="43.15424" lon="-6.9523">
        <ele>1036.8</ele>
        <time>2016-07-11T08:32:51Z</time>
      </trkpt>
      <trkpt lat="43.15415" lon="-6.95231">
        <ele>1039.6</ele>
        <time>2016-07-11T08:33:24Z</time>
      </trkpt>
      <trkpt lat="43.15406" lon="-6.95235">
        <ele>1040.1</ele>
        <time>2016-07-11T08:33:39Z</time>
      </trkpt>
      <trkpt lat="43.15397" lon="-6.9524">
        <ele>1041.4</ele>
        <time>2016-07-11T08:33:52Z</time>
      </trkpt>
      <trkpt lat="43.15388" lon="-6.95245">
        <ele>1043.3</ele>
        <time>2016-07-11T08:34:05Z</time>
      </trkpt>
      <trkpt lat="43.15381" lon="-6.95251">
        <ele>1045.6</ele>
        <time>2016-07-11T08:34:21Z</time>
      </trkpt>
      <trkpt lat="43.15373" lon="-6.95258">
        <ele>1047.1</ele>
        <time>2016-07-11T08:34:34Z</time>
      </trkpt>
      <trkpt lat="43.15365" lon="-6.95265">
        <ele>1048.4</ele>
        <time>2016-07-11T08:34:45Z</time>
      </trkpt>
      <trkpt lat="43.15356" lon="-6.95271">
        <ele>1049</ele>
        <time>2016-07-11T08:34:56Z</time>
      </trkpt>
      <trkpt lat="43.1535" lon="-6.9528">
        <ele>1049.9</ele>
        <time>2016-07-11T08:35:06Z</time>
      </trkpt>
      <trkpt lat="43.15343" lon="-6.95289">
        <ele>1052</ele>
        <time>2016-07-11T08:35:18Z</time>
      </trkpt>
      <trkpt lat="43.15337" lon="-6.95298">
        <ele>1053.6</ele>
        <time>2016-07-11T08:35:29Z</time>
      </trkpt>
      <trkpt lat="43.1533" lon="-6.95308">
        <ele>1054.9</ele>
        <time>2016-07-11T08:35:40Z</time>
      </trkpt>
      <trkpt lat="43.15325" lon="-6.95319">
        <ele>1056.4</ele>
        <time>2016-07-11T08:35:51Z</time>
      </trkpt>
      <trkpt lat="43.15319" lon="-6.95329">
        <ele>1057.4</ele>
        <time>2016-07-11T08:36:01Z</time>
      </trkpt>
      <trkpt lat="43.15312" lon="-6.95337">
        <ele>1059.6</ele>
        <time>2016-07-11T08:36:13Z</time>
      </trkpt>
      <trkpt lat="43.15306" lon="-6.95347">
        <ele>1063.1</ele>
        <time>2016-07-11T08:36:56Z</time>
      </trkpt>
      <trkpt lat="43.15301" lon="-6.95358">
        <ele>1063.5</ele>
        <time>2016-07-11T08:37:08Z</time>
      </trkpt>
      <trkpt lat="43.15295" lon="-6.95368">
        <ele>1064.4</ele>
        <time>2016-07-11T08:37:19Z</time>
      </trkpt>
      <trkpt lat="43.15289" lon="-6.95379">
        <ele>1065.5</ele>
        <time>2016-07-11T08:37:31Z</time>
      </trkpt>
      <trkpt lat="43.15284" lon="-6.95389">
        <ele>1067.1</ele>
        <time>2016-07-11T08:37:42Z</time>
      </trkpt>
      <trkpt lat="43.15278" lon="-6.95399">
        <ele>1068.6</ele>
        <time>2016-07-11T08:37:53Z</time>
      </trkpt>
      <trkpt lat="43.15272" lon="-6.9541">
        <ele>1070.3</ele>
        <time>2016-07-11T08:38:04Z</time>
      </trkpt>
      <trkpt lat="43.15268" lon="-6.95421">
        <ele>1071.7</ele>
        <time>2016-07-11T08:38:14Z</time>
      </trkpt>
      <trkpt lat="43.15263" lon="-6.95432">
        <ele>1073</ele>
        <time>2016-07-11T08:38:24Z</time>
      </trkpt>
      <trkpt lat="43.15258" lon="-6.95443">
        <ele>1073.9</ele>
        <time>2016-07-11T08:38:34Z</time>
      </trkpt>
      <trkpt lat="43.15252" lon="-6.95452">
        <ele>1075.1</ele>
        <time>2016-07-11T08:38:44Z</time>
      </trkpt>
      <trkpt lat="43.15245" lon="-6.95461">
        <ele>1076.3</ele>
        <time>2016-07-11T08:38:54Z</time>
      </trkpt>
      <trkpt lat="43.15237" lon="-6.95468">
        <ele>1077.8</ele>
        <time>2016-07-11T08:39:05Z</time>
      </trkpt>
      <trkpt lat="43.15228" lon="-6.9547">
        <ele>1079.2</ele>
        <time>2016-07-11T08:39:18Z</time>
      </trkpt>
      <trkpt lat="43.15219" lon="-6.95464">
        <ele>1080.4</ele>
        <time>2016-07-11T08:39:31Z</time>
      </trkpt>
      <trkpt lat="43.1521" lon="-6.95462">
        <ele>1081.8</ele>
        <time>2016-07-11T08:39:45Z</time>
      </trkpt>
      <trkpt lat="43.152" lon="-6.95463">
        <ele>1083.1</ele>
        <time>2016-07-11T08:39:56Z</time>
      </trkpt>
      <trkpt lat="43.15191" lon="-6.95464">
        <ele>1085.8</ele>
        <time>2016-07-11T08:40:12Z</time>
      </trkpt>
      <trkpt lat="43.15182" lon="-6.95466">
        <ele>1088</ele>
        <time>2016-07-11T08:40:37Z</time>
      </trkpt>
      <trkpt lat="43.15172" lon="-6.95469">
        <ele>1088.4</ele>
        <time>2016-07-11T08:40:48Z</time>
      </trkpt>
      <trkpt lat="43.15164" lon="-6.95474">
        <ele>1089</ele>
        <time>2016-07-11T08:40:59Z</time>
      </trkpt>
      <trkpt lat="43.15156" lon="-6.95479">
        <ele>1090.2</ele>
        <time>2016-07-11T08:41:10Z</time>
      </trkpt>
      <trkpt lat="43.15147" lon="-6.95481">
        <ele>1091.9</ele>
        <time>2016-07-11T08:41:34Z</time>
      </trkpt>
      <trkpt lat="43.15137" lon="-6.95481">
        <ele>1092.3</ele>
        <time>2016-07-11T08:44:07Z</time>
      </trkpt>
      <trkpt lat="43.15128" lon="-6.95484">
        <ele>1092.3</ele>
        <time>2016-07-11T08:44:16Z</time>
      </trkpt>
      <trkpt lat="43.15119" lon="-6.95487">
        <ele>1092.7</ele>
        <time>2016-07-11T08:44:24Z</time>
      </trkpt>
      <trkpt lat="43.1511" lon="-6.95489">
        <ele>1093.2</ele>
        <time>2016-07-11T08:44:32Z</time>
      </trkpt>
      <trkpt lat="43.151" lon="-6.95492">
        <ele>1093.9</ele>
        <time>2016-07-11T08:44:41Z</time>
      </trkpt>
      <trkpt lat="43.15091" lon="-6.95495">
        <ele>1094.3</ele>
        <time>2016-07-11T08:44:50Z</time>
      </trkpt>
      <trkpt lat="43.15083" lon="-6.95501">
        <ele>1094.7</ele>
        <time>2016-07-11T08:44:59Z</time>
      </trkpt>
      <trkpt lat="43.15074" lon="-6.95506">
        <ele>1095.2</ele>
        <time>2016-07-11T08:45:07Z</time>
      </trkpt>
      <trkpt lat="43.15067" lon="-6.95513">
        <ele>1095.3</ele>
        <time>2016-07-11T08:45:14Z</time>
      </trkpt>
      <trkpt lat="43.15059" lon="-6.9552">
        <ele>1095.6</ele>
        <time>2016-07-11T08:45:22Z</time>
      </trkpt>
      <trkpt lat="43.15051" lon="-6.95526">
        <ele>1095.8</ele>
        <time>2016-07-11T08:45:30Z</time>
      </trkpt>
      <trkpt lat="43.15042" lon="-6.95534">
        <ele>1096</ele>
        <time>2016-07-11T08:45:39Z</time>
      </trkpt>
      <trkpt lat="43.15034" lon="-6.95539">
        <ele>1096.5</ele>
        <time>2016-07-11T08:45:47Z</time>
      </trkpt>
      <trkpt lat="43.15025" lon="-6.95543">
        <ele>1097</ele>
        <time>2016-07-11T08:45:56Z</time>
      </trkpt>
      <trkpt lat="43.15016" lon="-6.95547">
        <ele>1097.4</ele>
        <time>2016-07-11T08:46:05Z</time>
      </trkpt>
      <trkpt lat="43.15007" lon="-6.9555">
        <ele>1097.6</ele>
        <time>2016-07-11T08:46:14Z</time>
      </trkpt>
      <trkpt lat="43.14998" lon="-6.95553">
        <ele>1098.4</ele>
        <time>2016-07-11T08:46:23Z</time>
      </trkpt>
      <trkpt lat="43.14989" lon="-6.95554">
        <ele>1098.8</ele>
        <time>2016-07-11T08:46:31Z</time>
      </trkpt>
      <trkpt lat="43.1498" lon="-6.95556">
        <ele>1099</ele>
        <time>2016-07-11T08:46:40Z</time>
      </trkpt>
      <trkpt lat="43.1497" lon="-6.95557">
        <ele>1099.1</ele>
        <time>2016-07-11T08:46:49Z</time>
      </trkpt>
      <trkpt lat="43.14961" lon="-6.9556">
        <ele>1098.9</ele>
        <time>2016-07-11T08:46:58Z</time>
      </trkpt>
      <trkpt lat="43.14952" lon="-6.95566">
        <ele>1099.2</ele>
        <time>2016-07-11T08:47:08Z</time>
      </trkpt>
      <trkpt lat="43.14945" lon="-6.95573">
        <ele>1100</ele>
        <time>2016-07-11T08:47:21Z</time>
      </trkpt>
      <trkpt lat="43.14938" lon="-6.95582">
        <ele>1103.5</ele>
        <time>2016-07-11T08:48:02Z</time>
      </trkpt>
      <trkpt lat="43.14933" lon="-6.95591">
        <ele>1104.5</ele>
        <time>2016-07-11T08:48:17Z</time>
      </trkpt>
      <trkpt lat="43.14927" lon="-6.95602">
        <ele>1106.2</ele>
        <time>2016-07-11T08:48:33Z</time>
      </trkpt>
      <trkpt lat="43.14921" lon="-6.95611">
        <ele>1108.4</ele>
        <time>2016-07-11T08:48:46Z</time>
      </trkpt>
      <trkpt lat="43.14916" lon="-6.95623">
        <ele>1111.1</ele>
        <time>2016-07-11T08:49:03Z</time>
      </trkpt>
      <trkpt lat="43.1491" lon="-6.95633">
        <ele>1112.9</ele>
        <time>2016-07-11T08:49:18Z</time>
      </trkpt>
      <trkpt lat="43.14904" lon="-6.95643">
        <ele>1114.2</ele>
        <time>2016-07-11T08:49:30Z</time>
      </trkpt>
      <trkpt lat="43.149" lon="-6.95655">
        <ele>1116.3</ele>
        <time>2016-07-11T08:49:42Z</time>
      </trkpt>
      <trkpt lat="43.14901" lon="-6.95667">
        <ele>1118</ele>
        <time>2016-07-11T08:49:52Z</time>
      </trkpt>
      <trkpt lat="43.14903" lon="-6.9568">
        <ele>1119.7</ele>
        <time>2016-07-11T08:50:02Z</time>
      </trkpt>
      <trkpt lat="43.14906" lon="-6.95692">
        <ele>1122.5</ele>
        <time>2016-07-11T08:50:45Z</time>
      </trkpt>
      <trkpt lat="43.14907" lon="-6.95706">
        <ele>1122.6</ele>
        <time>2016-07-11T08:50:55Z</time>
      </trkpt>
      <trkpt lat="43.14906" lon="-6.95719">
        <ele>1122.5</ele>
        <time>2016-07-11T08:51:05Z</time>
      </trkpt>
      <trkpt lat="43.14907" lon="-6.95731">
        <ele>1122.6</ele>
        <time>2016-07-11T08:51:13Z</time>
      </trkpt>
      <trkpt lat="43.1491" lon="-6.95745">
        <ele>1122.6</ele>
        <time>2016-07-11T08:51:22Z</time>
      </trkpt>
      <trkpt lat="43.14911" lon="-6.95758">
        <ele>1122.6</ele>
        <time>2016-07-11T08:51:33Z</time>
      </trkpt>
      <trkpt lat="43.14912" lon="-6.9577">
        <ele>1122.5</ele>
        <time>2016-07-11T08:51:41Z</time>
      </trkpt>
      <trkpt lat="43.14911" lon="-6.95783">
        <ele>1122.4</ele>
        <time>2016-07-11T08:51:49Z</time>
      </trkpt>
      <trkpt lat="43.14908" lon="-6.95796">
        <ele>1121.6</ele>
        <time>2016-07-11T08:51:58Z</time>
      </trkpt>
      <trkpt lat="43.1491" lon="-6.9581">
        <ele>1121</ele>
        <time>2016-07-11T08:52:13Z</time>
      </trkpt>
      <trkpt lat="43.1491" lon="-6.95823">
        <ele>1120.5</ele>
        <time>2016-07-11T08:52:23Z</time>
      </trkpt>
      <trkpt lat="43.14908" lon="-6.95835">
        <ele>1120</ele>
        <time>2016-07-11T08:52:31Z</time>
      </trkpt>
      <trkpt lat="43.14908" lon="-6.95848">
        <ele>1120</ele>
        <time>2016-07-11T08:52:39Z</time>
      </trkpt>
      <trkpt lat="43.14907" lon="-6.95861">
        <ele>1120</ele>
        <time>2016-07-11T08:52:47Z</time>
      </trkpt>
      <trkpt lat="43.14904" lon="-6.95874">
        <ele>1119.9</ele>
        <time>2016-07-11T08:52:55Z</time>
      </trkpt>
      <trkpt lat="43.14903" lon="-6.95887">
        <ele>1119.6</ele>
        <time>2016-07-11T08:53:03Z</time>
      </trkpt>
      <trkpt lat="43.14901" lon="-6.95899">
        <ele>1119.6</ele>
        <time>2016-07-11T08:53:11Z</time>
      </trkpt>
      <trkpt lat="43.14895" lon="-6.95909">
        <ele>1119.9</ele>
        <time>2016-07-11T08:53:45Z</time>
      </trkpt>
      <trkpt lat="43.14892" lon="-6.95921">
        <ele>1119.8</ele>
        <time>2016-07-11T08:53:59Z</time>
      </trkpt>
      <trkpt lat="43.14892" lon="-6.95934">
        <ele>1120.1</ele>
        <time>2016-07-11T08:54:11Z</time>
      </trkpt>
      <trkpt lat="43.1489" lon="-6.95947">
        <ele>1119.5</ele>
        <time>2016-07-11T08:54:20Z</time>
      </trkpt>
      <trkpt lat="43.14888" lon="-6.9596">
        <ele>1119.7</ele>
        <time>2016-07-11T08:54:29Z</time>
      </trkpt>
      <trkpt lat="43.14887" lon="-6.95973">
        <ele>1119.9</ele>
        <time>2016-07-11T08:54:40Z</time>
      </trkpt>
      <trkpt lat="43.14884" lon="-6.95987">
        <ele>1120.2</ele>
        <time>2016-07-11T08:54:48Z</time>
      </trkpt>
      <trkpt lat="43.14882" lon="-6.95999">
        <ele>1120.4</ele>
        <time>2016-07-11T08:54:56Z</time>
      </trkpt>
      <trkpt lat="43.14879" lon="-6.96012">
        <ele>1120.8</ele>
        <time>2016-07-11T08:55:04Z</time>
      </trkpt>
      <trkpt lat="43.14877" lon="-6.96024">
        <ele>1121.3</ele>
        <time>2016-07-11T08:55:12Z</time>
      </trkpt>
      <trkpt lat="43.14874" lon="-6.96037">
        <ele>1121.2</ele>
        <time>2016-07-11T08:55:20Z</time>
      </trkpt>
      <trkpt lat="43.1487" lon="-6.96049">
        <ele>1121.1</ele>
        <time>2016-07-11T08:55:28Z</time>
      </trkpt>
      <trkpt lat="43.14866" lon="-6.96062">
        <ele>1120.8</ele>
        <time>2016-07-11T08:55:37Z</time>
      </trkpt>
      <trkpt lat="43.14862" lon="-6.96073">
        <ele>1120.4</ele>
        <time>2016-07-11T08:55:45Z</time>
      </trkpt>
      <trkpt lat="43.14859" lon="-6.96085">
        <ele>1119.8</ele>
        <time>2016-07-11T08:55:53Z</time>
      </trkpt>
      <trkpt lat="43.14855" lon="-6.96098">
        <ele>1118.9</ele>
        <time>2016-07-11T08:56:01Z</time>
      </trkpt>
      <trkpt lat="43.14852" lon="-6.96111">
        <ele>1118.2</ele>
        <time>2016-07-11T08:56:09Z</time>
      </trkpt>
      <trkpt lat="43.14848" lon="-6.96122">
        <ele>1117.4</ele>
        <time>2016-07-11T08:56:16Z</time>
      </trkpt>
      <trkpt lat="43.1484" lon="-6.9613">
        <ele>1116.2</ele>
        <time>2016-07-11T08:56:24Z</time>
      </trkpt>
      <trkpt lat="43.14831" lon="-6.96136">
        <ele>1115.7</ele>
        <time>2016-07-11T08:56:32Z</time>
      </trkpt>
      <trkpt lat="43.14822" lon="-6.96139">
        <ele>1115.6</ele>
        <time>2016-07-11T08:56:41Z</time>
      </trkpt>
      <trkpt lat="43.14814" lon="-6.96146">
        <ele>1116.3</ele>
        <time>2016-07-11T08:56:58Z</time>
      </trkpt>
      <trkpt lat="43.14805" lon="-6.96149">
        <ele>1116.6</ele>
        <time>2016-07-11T08:57:08Z</time>
      </trkpt>
      <trkpt lat="43.14796" lon="-6.96151">
        <ele>1116.7</ele>
        <time>2016-07-11T08:57:18Z</time>
      </trkpt>
      <trkpt lat="43.14787" lon="-6.96153">
        <ele>1117.1</ele>
        <time>2016-07-11T08:57:26Z</time>
      </trkpt>
      <trkpt lat="43.14778" lon="-6.96159">
        <ele>1117.4</ele>
        <time>2016-07-11T08:57:34Z</time>
      </trkpt>
      <trkpt lat="43.14769" lon="-6.96164">
        <ele>1118</ele>
        <time>2016-07-11T08:57:42Z</time>
      </trkpt>
      <trkpt lat="43.1476" lon="-6.96166">
        <ele>1119.1</ele>
        <time>2016-07-11T08:57:50Z</time>
      </trkpt>
      <trkpt lat="43.14752" lon="-6.9617">
        <ele>1119.6</ele>
        <time>2016-07-11T08:57:58Z</time>
      </trkpt>
      <trkpt lat="43.14743" lon="-6.96174">
        <ele>1120.1</ele>
        <time>2016-07-11T08:58:06Z</time>
      </trkpt>
      <trkpt lat="43.14735" lon="-6.9618">
        <ele>1120.8</ele>
        <time>2016-07-11T08:58:14Z</time>
      </trkpt>
      <trkpt lat="43.14726" lon="-6.96185">
        <ele>1121.4</ele>
        <time>2016-07-11T08:58:22Z</time>
      </trkpt>
      <trkpt lat="43.14717" lon="-6.96189">
        <ele>1121.9</ele>
        <time>2016-07-11T08:58:30Z</time>
      </trkpt>
      <trkpt lat="43.14707" lon="-6.96194">
        <ele>1122.5</ele>
        <time>2016-07-11T08:58:37Z</time>
      </trkpt>
      <trkpt lat="43.14699" lon="-6.962">
        <ele>1123.4</ele>
        <time>2016-07-11T08:58:45Z</time>
      </trkpt>
      <trkpt lat="43.14691" lon="-6.96206">
        <ele>1123.9</ele>
        <time>2016-07-11T08:58:53Z</time>
      </trkpt>
      <trkpt lat="43.14683" lon="-6.96213">
        <ele>1124.6</ele>
        <time>2016-07-11T08:59:02Z</time>
      </trkpt>
      <trkpt lat="43.14675" lon="-6.96219">
        <ele>1125</ele>
        <time>2016-07-11T09:00:05Z</time>
      </trkpt>
      <trkpt lat="43.14667" lon="-6.96225">
        <ele>1124.6</ele>
        <time>2016-07-11T09:00:15Z</time>
      </trkpt>
      <trkpt lat="43.14658" lon="-6.96231">
        <ele>1124.5</ele>
        <time>2016-07-11T09:00:26Z</time>
      </trkpt>
      <trkpt lat="43.14651" lon="-6.96239">
        <ele>1124.6</ele>
        <time>2016-07-11T09:00:34Z</time>
      </trkpt>
      <trkpt lat="43.14643" lon="-6.96247">
        <ele>1124.6</ele>
        <time>2016-07-11T09:00:42Z</time>
      </trkpt>
      <trkpt lat="43.14635" lon="-6.96256">
        <ele>1124.5</ele>
        <time>2016-07-11T09:00:49Z</time>
      </trkpt>
      <trkpt lat="43.14628" lon="-6.96263">
        <ele>1124.5</ele>
        <time>2016-07-11T09:00:56Z</time>
      </trkpt>
      <trkpt lat="43.14623" lon="-6.96274">
        <ele>1123.4</ele>
        <time>2016-07-11T09:01:11Z</time>
      </trkpt>
      <trkpt lat="43.14617" lon="-6.96285">
        <ele>1122.7</ele>
        <time>2016-07-11T09:01:20Z</time>
      </trkpt>
      <trkpt lat="43.1461" lon="-6.96294">
        <ele>1121.5</ele>
        <time>2016-07-11T09:01:30Z</time>
      </trkpt>
      <trkpt lat="43.14604" lon="-6.96304">
        <ele>1120.4</ele>
        <time>2016-07-11T09:01:37Z</time>
      </trkpt>
      <trkpt lat="43.14598" lon="-6.96313">
        <ele>1119</ele>
        <time>2016-07-11T09:01:45Z</time>
      </trkpt>
      <trkpt lat="43.14592" lon="-6.96322">
        <ele>1117.5</ele>
        <time>2016-07-11T09:01:52Z</time>
      </trkpt>
      <trkpt lat="43.14586" lon="-6.96331">
        <ele>1114</ele>
        <time>2016-07-11T09:02:00Z</time>
      </trkpt>
      <trkpt lat="43.14579" lon="-6.96341">
        <ele>1115</ele>
        <time>2016-07-11T09:02:08Z</time>
      </trkpt>
      <trkpt lat="43.14573" lon="-6.96351">
        <ele>1114</ele>
        <time>2016-07-11T09:02:16Z</time>
      </trkpt>
      <trkpt lat="43.14566" lon="-6.96359">
        <ele>1107.2</ele>
        <time>2016-07-11T09:02:24Z</time>
      </trkpt>
      <trkpt lat="43.1456" lon="-6.96371">
        <ele>1112.6</ele>
        <time>2016-07-11T09:02:32Z</time>
      </trkpt>
      <trkpt lat="43.14554" lon="-6.96381">
        <ele>1112.7</ele>
        <time>2016-07-11T09:02:35Z</time>
      </trkpt>
      <trkpt lat="43.14548" lon="-6.96391">
        <ele>1112.2</ele>
        <time>2016-07-11T09:02:38Z</time>
      </trkpt>
      <trkpt lat="43.14541" lon="-6.96401">
        <ele>1111.1</ele>
        <time>2016-07-11T09:02:41Z</time>
      </trkpt>
      <trkpt lat="43.14534" lon="-6.96411">
        <ele>1109.7</ele>
        <time>2016-07-11T09:02:44Z</time>
      </trkpt>
      <trkpt lat="43.14526" lon="-6.9642">
        <ele>1107.2</ele>
        <time>2016-07-11T09:02:49Z</time>
      </trkpt>
      <trkpt lat="43.14525" lon="-6.96432">
        <ele>1097.4</ele>
        <time>2016-07-11T09:03:10Z</time>
      </trkpt>
      <trkpt lat="43.14521" lon="-6.96443">
        <ele>1093.2</ele>
        <time>2016-07-11T09:03:32Z</time>
      </trkpt>
      <trkpt lat="43.14514" lon="-6.96453">
        <ele>1091.7</ele>
        <time>2016-07-11T09:03:40Z</time>
      </trkpt>
      <trkpt lat="43.14507" lon="-6.9646">
        <ele>1090.6</ele>
        <time>2016-07-11T09:03:49Z</time>
      </trkpt>
      <trkpt lat="43.14501" lon="-6.9647">
        <ele>1090.1</ele>
        <time>2016-07-11T09:03:57Z</time>
      </trkpt>
      <trkpt lat="43.14496" lon="-6.96482">
        <ele>1089.8</ele>
        <time>2016-07-11T09:04:05Z</time>
      </trkpt>
      <trkpt lat="43.14491" lon="-6.96493">
        <ele>1088.2</ele>
        <time>2016-07-11T09:04:23Z</time>
      </trkpt>
      <trkpt lat="43.14486" lon="-6.96504">
        <ele>1087.3</ele>
        <time>2016-07-11T09:04:49Z</time>
      </trkpt>
      <trkpt lat="43.14487" lon="-6.96517">
        <ele>1087.3</ele>
        <time>2016-07-11T09:05:01Z</time>
      </trkpt>
      <trkpt lat="43.14489" lon="-6.96529">
        <ele>1086.7</ele>
        <time>2016-07-11T09:05:11Z</time>
      </trkpt>
      <trkpt lat="43.14489" lon="-6.96542">
        <ele>1085.8</ele>
        <time>2016-07-11T09:05:21Z</time>
      </trkpt>
      <trkpt lat="43.14488" lon="-6.96555">
        <ele>1084.5</ele>
        <time>2016-07-11T09:05:30Z</time>
      </trkpt>
      <trkpt lat="43.14485" lon="-6.96568">
        <ele>1083.1</ele>
        <time>2016-07-11T09:05:39Z</time>
      </trkpt>
      <trkpt lat="43.14481" lon="-6.96581">
        <ele>1081.9</ele>
        <time>2016-07-11T09:05:47Z</time>
      </trkpt>
      <trkpt lat="43.14476" lon="-6.96592">
        <ele>1080.1</ele>
        <time>2016-07-11T09:05:57Z</time>
      </trkpt>
      <trkpt lat="43.14473" lon="-6.96603">
        <ele>1078.2</ele>
        <time>2016-07-11T09:06:07Z</time>
      </trkpt>
      <trkpt lat="43.14469" lon="-6.96615">
        <ele>1075.9</ele>
        <time>2016-07-11T09:06:16Z</time>
      </trkpt>
      <trkpt lat="43.14465" lon="-6.96627">
        <ele>1075.4</ele>
        <time>2016-07-11T09:06:24Z</time>
      </trkpt>
      <trkpt lat="43.14459" lon="-6.96637">
        <ele>1074.3</ele>
        <time>2016-07-11T09:06:33Z</time>
      </trkpt>
      <trkpt lat="43.14452" lon="-6.96647">
        <ele>1072.4</ele>
        <time>2016-07-11T09:06:42Z</time>
      </trkpt>
      <trkpt lat="43.14445" lon="-6.96655">
        <ele>1071</ele>
        <time>2016-07-11T09:06:50Z</time>
      </trkpt>
      <trkpt lat="43.14437" lon="-6.96663">
        <ele>1069.6</ele>
        <time>2016-07-11T09:06:58Z</time>
      </trkpt>
      <trkpt lat="43.14429" lon="-6.9667">
        <ele>1068.2</ele>
        <time>2016-07-11T09:07:06Z</time>
      </trkpt>
      <trkpt lat="43.1442" lon="-6.96675">
        <ele>1066.7</ele>
        <time>2016-07-11T09:07:15Z</time>
      </trkpt>
      <trkpt lat="43.14411" lon="-6.96681">
        <ele>1065.5</ele>
        <time>2016-07-11T09:07:23Z</time>
      </trkpt>
      <trkpt lat="43.14402" lon="-6.96686">
        <ele>1063.9</ele>
        <time>2016-07-11T09:07:31Z</time>
      </trkpt>
      <trkpt lat="43.14394" lon="-6.96691">
        <ele>1062.2</ele>
        <time>2016-07-11T09:07:39Z</time>
      </trkpt>
      <trkpt lat="43.14386" lon="-6.96698">
        <ele>1060.8</ele>
        <time>2016-07-11T09:07:47Z</time>
      </trkpt>
      <trkpt lat="43.14376" lon="-6.96703">
        <ele>1059.1</ele>
        <time>2016-07-11T09:07:56Z</time>
      </trkpt>
      <trkpt lat="43.14367" lon="-6.96706">
        <ele>1057.8</ele>
        <time>2016-07-11T09:08:04Z</time>
      </trkpt>
      <trkpt lat="43.14357" lon="-6.9671">
        <ele>1056.4</ele>
        <time>2016-07-11T09:08:11Z</time>
      </trkpt>
      <trkpt lat="43.14348" lon="-6.96716">
        <ele>1054.5</ele>
        <time>2016-07-11T09:08:20Z</time>
      </trkpt>
      <trkpt lat="43.14351" lon="-6.96728">
        <ele>1052.1</ele>
        <time>2016-07-11T09:08:29Z</time>
      </trkpt>
      <trkpt lat="43.14358" lon="-6.96738">
        <ele>1050.6</ele>
        <time>2016-07-11T09:08:37Z</time>
      </trkpt>
      <trkpt lat="43.14367" lon="-6.96744">
        <ele>1048.8</ele>
        <time>2016-07-11T09:08:46Z</time>
      </trkpt>
      <trkpt lat="43.14374" lon="-6.96752">
        <ele>1047.7</ele>
        <time>2016-07-11T09:08:54Z</time>
      </trkpt>
      <trkpt lat="43.14382" lon="-6.96759">
        <ele>1046.4</ele>
        <time>2016-07-11T09:09:01Z</time>
      </trkpt>
      <trkpt lat="43.14389" lon="-6.96768">
        <ele>1045</ele>
        <time>2016-07-11T09:09:10Z</time>
      </trkpt>
      <trkpt lat="43.14391" lon="-6.96781">
        <ele>1042.5</ele>
        <time>2016-07-11T09:09:22Z</time>
      </trkpt>
      <trkpt lat="43.14386" lon="-6.96794">
        <ele>1040.8</ele>
        <time>2016-07-11T09:09:30Z</time>
      </trkpt>
      <trkpt lat="43.14382" lon="-6.96806">
        <ele>1039.8</ele>
        <time>2016-07-11T09:09:36Z</time>
      </trkpt>
      <trkpt lat="43.1438" lon="-6.96819">
        <ele>1039</ele>
        <time>2016-07-11T09:09:43Z</time>
      </trkpt>
      <trkpt lat="43.14377" lon="-6.96832">
        <ele>1038.1</ele>
        <time>2016-07-11T09:09:51Z</time>
      </trkpt>
      <trkpt lat="43.14377" lon="-6.96845">
        <ele>1037</ele>
        <time>2016-07-11T09:10:12Z</time>
      </trkpt>
      <trkpt lat="43.14376" lon="-6.96858">
        <ele>1036.8</ele>
        <time>2016-07-11T09:10:21Z</time>
      </trkpt>
      <trkpt lat="43.14375" lon="-6.9687">
        <ele>1036.3</ele>
        <time>2016-07-11T09:10:29Z</time>
      </trkpt>
      <trkpt lat="43.14371" lon="-6.96883">
        <ele>1036</ele>
        <time>2016-07-11T09:10:37Z</time>
      </trkpt>
      <trkpt lat="43.14368" lon="-6.96895">
        <ele>1035.9</ele>
        <time>2016-07-11T09:10:46Z</time>
      </trkpt>
      <trkpt lat="43.14364" lon="-6.96907">
        <ele>1035.9</ele>
        <time>2016-07-11T09:10:58Z</time>
      </trkpt>
      <trkpt lat="43.14363" lon="-6.9692">
        <ele>1035.8</ele>
        <time>2016-07-11T09:13:01Z</time>
      </trkpt>
      <trkpt lat="43.14355" lon="-6.96929">
        <ele>1035.3</ele>
        <time>2016-07-11T09:13:13Z</time>
      </trkpt>
      <trkpt lat="43.14348" lon="-6.96938">
        <ele>1035.6</ele>
        <time>2016-07-11T09:13:24Z</time>
      </trkpt>
      <trkpt lat="43.1434" lon="-6.96945">
        <ele>1036</ele>
        <time>2016-07-11T09:13:33Z</time>
      </trkpt>
      <trkpt lat="43.14332" lon="-6.9695">
        <ele>1037.3</ele>
        <time>2016-07-11T09:13:46Z</time>
      </trkpt>
      <trkpt lat="43.14324" lon="-6.96956">
        <ele>1038.7</ele>
        <time>2016-07-11T09:13:58Z</time>
      </trkpt>
      <trkpt lat="43.14315" lon="-6.96962">
        <ele>1041.1</ele>
        <time>2016-07-11T09:14:11Z</time>
      </trkpt>
      <trkpt lat="43.14307" lon="-6.96968">
        <ele>1042.4</ele>
        <time>2016-07-11T09:14:21Z</time>
      </trkpt>
      <trkpt lat="43.14298" lon="-6.96973">
        <ele>1043.8</ele>
        <time>2016-07-11T09:14:30Z</time>
      </trkpt>
      <trkpt lat="43.1429" lon="-6.96977">
        <ele>1045.1</ele>
        <time>2016-07-11T09:14:39Z</time>
      </trkpt>
      <trkpt lat="43.14281" lon="-6.96982">
        <ele>1045.7</ele>
        <time>2016-07-11T09:14:50Z</time>
      </trkpt>
      <trkpt lat="43.14289" lon="-6.9699">
        <ele>1049</ele>
        <time>2016-07-11T09:15:16Z</time>
      </trkpt>
      <trkpt lat="43.14298" lon="-6.96991">
        <ele>1050.2</ele>
        <time>2016-07-11T09:15:26Z</time>
      </trkpt>
      <trkpt lat="43.14307" lon="-6.96993">
        <ele>1051.9</ele>
        <time>2016-07-11T09:15:37Z</time>
      </trkpt>
      <trkpt lat="43.14315" lon="-6.96997">
        <ele>1053.1</ele>
        <time>2016-07-11T09:15:47Z</time>
      </trkpt>
      <trkpt lat="43.14324" lon="-6.97002">
        <ele>1054.5</ele>
        <time>2016-07-11T09:16:00Z</time>
      </trkpt>
      <trkpt lat="43.14332" lon="-6.97006">
        <ele>1055.6</ele>
        <time>2016-07-11T09:16:10Z</time>
      </trkpt>
      <trkpt lat="43.14341" lon="-6.97013">
        <ele>1057.2</ele>
        <time>2016-07-11T09:16:22Z</time>
      </trkpt>
      <trkpt lat="43.1435" lon="-6.97017">
        <ele>1058.1</ele>
        <time>2016-07-11T09:16:31Z</time>
      </trkpt>
      <trkpt lat="43.14359" lon="-6.97022">
        <ele>1059.3</ele>
        <time>2016-07-11T09:16:42Z</time>
      </trkpt>
      <trkpt lat="43.14367" lon="-6.97027">
        <ele>1060.6</ele>
        <time>2016-07-11T09:16:52Z</time>
      </trkpt>
      <trkpt lat="43.14373" lon="-6.97036">
        <ele>1063.3</ele>
        <time>2016-07-11T09:17:50Z</time>
      </trkpt>
      <trkpt lat="43.14382" lon="-6.97039">
        <ele>1063.1</ele>
        <time>2016-07-11T09:18:00Z</time>
      </trkpt>
      <trkpt lat="43.14391" lon="-6.97044">
        <ele>1063.3</ele>
        <time>2016-07-11T09:18:10Z</time>
      </trkpt>
      <trkpt lat="43.14395" lon="-6.97056">
        <ele>1064.3</ele>
        <time>2016-07-11T09:18:20Z</time>
      </trkpt>
      <trkpt lat="43.14395" lon="-6.97069">
        <ele>1066.4</ele>
        <time>2016-07-11T09:18:37Z</time>
      </trkpt>
      <trkpt lat="43.14393" lon="-6.97082">
        <ele>1066.8</ele>
        <time>2016-07-11T09:18:47Z</time>
      </trkpt>
      <trkpt lat="43.1439" lon="-6.97094">
        <ele>1067.5</ele>
        <time>2016-07-11T09:18:58Z</time>
      </trkpt>
      <trkpt lat="43.14385" lon="-6.97105">
        <ele>1068</ele>
        <time>2016-07-11T09:19:08Z</time>
      </trkpt>
      <trkpt lat="43.14385" lon="-6.97118">
        <ele>1069</ele>
        <time>2016-07-11T09:19:22Z</time>
      </trkpt>
      <trkpt lat="43.14385" lon="-6.97131">
        <ele>1069.9</ele>
        <time>2016-07-11T09:19:36Z</time>
      </trkpt>
      <trkpt lat="43.14384" lon="-6.97143">
        <ele>1070.5</ele>
        <time>2016-07-11T09:19:46Z</time>
      </trkpt>
      <trkpt lat="43.14382" lon="-6.97156">
        <ele>1070.8</ele>
        <time>2016-07-11T09:19:55Z</time>
      </trkpt>
      <trkpt lat="43.14379" lon="-6.97169">
        <ele>1070.8</ele>
        <time>2016-07-11T09:20:03Z</time>
      </trkpt>
      <trkpt lat="43.14376" lon="-6.97182">
        <ele>1069.9</ele>
        <time>2016-07-11T09:20:11Z</time>
      </trkpt>
      <trkpt lat="43.14375" lon="-6.97195">
        <ele>1069</ele>
        <time>2016-07-11T09:20:20Z</time>
      </trkpt>
      <trkpt lat="43.14376" lon="-6.97208">
        <ele>1064.3</ele>
        <time>2016-07-11T09:20:26Z</time>
      </trkpt>
      <trkpt lat="43.14377" lon="-6.9722">
        <ele>1068.1</ele>
        <time>2016-07-11T09:20:35Z</time>
      </trkpt>
      <trkpt lat="43.14378" lon="-6.97234">
        <ele>1069.5</ele>
        <time>2016-07-11T09:20:45Z</time>
      </trkpt>
      <trkpt lat="43.14379" lon="-6.97246">
        <ele>1069</ele>
        <time>2016-07-11T09:20:55Z</time>
      </trkpt>
      <trkpt lat="43.14381" lon="-6.9726">
        <ele>1067.9</ele>
        <time>2016-07-11T09:21:03Z</time>
      </trkpt>
      <trkpt lat="43.14382" lon="-6.97274">
        <ele>1066.2</ele>
        <time>2016-07-11T09:21:10Z</time>
      </trkpt>
      <trkpt lat="43.14387" lon="-6.97287">
        <ele>1064.6</ele>
        <time>2016-07-11T09:21:17Z</time>
      </trkpt>
      <trkpt lat="43.14392" lon="-6.97298">
        <ele>1062.4</ele>
        <time>2016-07-11T09:21:25Z</time>
      </trkpt>
      <trkpt lat="43.14395" lon="-6.9731">
        <ele>1060</ele>
        <time>2016-07-11T09:21:33Z</time>
      </trkpt>
      <trkpt lat="43.14398" lon="-6.97323">
        <ele>1057.6</ele>
        <time>2016-07-11T09:21:41Z</time>
      </trkpt>
      <trkpt lat="43.144" lon="-6.97336">
        <ele>1055.3</ele>
        <time>2016-07-11T09:21:49Z</time>
      </trkpt>
      <trkpt lat="43.14403" lon="-6.97347">
        <ele>1053.5</ele>
        <time>2016-07-11T09:21:57Z</time>
      </trkpt>
      <trkpt lat="43.14406" lon="-6.9736">
        <ele>1051.5</ele>
        <time>2016-07-11T09:22:05Z</time>
      </trkpt>
      <trkpt lat="43.14409" lon="-6.97372">
        <ele>1050.1</ele>
        <time>2016-07-11T09:22:12Z</time>
      </trkpt>
      <trkpt lat="43.14411" lon="-6.97385">
        <ele>1047.9</ele>
        <time>2016-07-11T09:22:20Z</time>
      </trkpt>
      <trkpt lat="43.14414" lon="-6.97398">
        <ele>1046.5</ele>
        <time>2016-07-11T09:22:28Z</time>
      </trkpt>
      <trkpt lat="43.14412" lon="-6.97411">
        <ele>1045</ele>
        <time>2016-07-11T09:22:36Z</time>
      </trkpt>
      <trkpt lat="43.14408" lon="-6.97423">
        <ele>1044.1</ele>
        <time>2016-07-11T09:22:44Z</time>
      </trkpt>
      <trkpt lat="43.14405" lon="-6.97435">
        <ele>1042.8</ele>
        <time>2016-07-11T09:22:51Z</time>
      </trkpt>
      <trkpt lat="43.14403" lon="-6.97448">
        <ele>1041.2</ele>
        <time>2016-07-11T09:22:59Z</time>
      </trkpt>
      <trkpt lat="43.14404" lon="-6.97461">
        <ele>1039.5</ele>
        <time>2016-07-11T09:23:07Z</time>
      </trkpt>
      <trkpt lat="43.14405" lon="-6.97474">
        <ele>1038.2</ele>
        <time>2016-07-11T09:23:15Z</time>
      </trkpt>
      <trkpt lat="43.14406" lon="-6.97487">
        <ele>1037.2</ele>
        <time>2016-07-11T09:23:23Z</time>
      </trkpt>
      <trkpt lat="43.14402" lon="-6.97498">
        <ele>1036.6</ele>
        <time>2016-07-11T09:23:31Z</time>
      </trkpt>
      <trkpt lat="43.14393" lon="-6.97502">
        <ele>1036.2</ele>
        <time>2016-07-11T09:23:39Z</time>
      </trkpt>
      <trkpt lat="43.14383" lon="-6.97506">
        <ele>1035.9</ele>
        <time>2016-07-11T09:23:47Z</time>
      </trkpt>
      <trkpt lat="43.14374" lon="-6.97509">
        <ele>1035.6</ele>
        <time>2016-07-11T09:23:55Z</time>
      </trkpt>
      <trkpt lat="43.14365" lon="-6.97513">
        <ele>1035.4</ele>
        <time>2016-07-11T09:24:02Z</time>
      </trkpt>
      <trkpt lat="43.14356" lon="-6.97518">
        <ele>1035.3</ele>
        <time>2016-07-11T09:24:10Z</time>
      </trkpt>
      <trkpt lat="43.14347" lon="-6.97523">
        <ele>1035.2</ele>
        <time>2016-07-11T09:24:17Z</time>
      </trkpt>
      <trkpt lat="43.14339" lon="-6.97529">
        <ele>1035.2</ele>
        <time>2016-07-11T09:24:25Z</time>
      </trkpt>
      <trkpt lat="43.14331" lon="-6.97535">
        <ele>1035.2</ele>
        <time>2016-07-11T09:24:32Z</time>
      </trkpt>
      <trkpt lat="43.14322" lon="-6.9754">
        <ele>1035.2</ele>
        <time>2016-07-11T09:24:39Z</time>
      </trkpt>
      <trkpt lat="43.14314" lon="-6.97546">
        <ele>1035.1</ele>
        <time>2016-07-11T09:24:46Z</time>
      </trkpt>
      <trkpt lat="43.14306" lon="-6.97555">
        <ele>1035</ele>
        <time>2016-07-11T09:24:54Z</time>
      </trkpt>
      <trkpt lat="43.143" lon="-6.97566">
        <ele>1034.9</ele>
        <time>2016-07-11T09:25:02Z</time>
      </trkpt>
      <trkpt lat="43.14295" lon="-6.97576">
        <ele>1034.6</ele>
        <time>2016-07-11T09:25:10Z</time>
      </trkpt>
      <trkpt lat="43.1429" lon="-6.97588">
        <ele>1034.2</ele>
        <time>2016-07-11T09:25:18Z</time>
      </trkpt>
      <trkpt lat="43.14286" lon="-6.97599">
        <ele>1033.8</ele>
        <time>2016-07-11T09:25:26Z</time>
      </trkpt>
      <trkpt lat="43.14282" lon="-6.97612">
        <ele>1033.2</ele>
        <time>2016-07-11T09:25:34Z</time>
      </trkpt>
      <trkpt lat="43.14278" lon="-6.97623">
        <ele>1032.8</ele>
        <time>2016-07-11T09:25:42Z</time>
      </trkpt>
      <trkpt lat="43.14274" lon="-6.97636">
        <ele>1032.5</ele>
        <time>2016-07-11T09:25:50Z</time>
      </trkpt>
      <trkpt lat="43.14271" lon="-6.97648">
        <ele>1032.1</ele>
        <time>2016-07-11T09:25:58Z</time>
      </trkpt>
      <trkpt lat="43.1427" lon="-6.97661">
        <ele>1031.7</ele>
        <time>2016-07-11T09:26:06Z</time>
      </trkpt>
      <trkpt lat="43.14266" lon="-6.97673">
        <ele>1031.4</ele>
        <time>2016-07-11T09:26:14Z</time>
      </trkpt>
      <trkpt lat="43.14264" lon="-6.97686">
        <ele>1031.3</ele>
        <time>2016-07-11T09:26:23Z</time>
      </trkpt>
      <trkpt lat="43.14259" lon="-6.97698">
        <ele>1031.1</ele>
        <time>2016-07-11T09:26:31Z</time>
      </trkpt>
      <trkpt lat="43.14256" lon="-6.97711">
        <ele>1030.9</ele>
        <time>2016-07-11T09:26:39Z</time>
      </trkpt>
      <trkpt lat="43.14251" lon="-6.97723">
        <ele>1031</ele>
        <time>2016-07-11T09:26:47Z</time>
      </trkpt>
      <trkpt lat="43.14245" lon="-6.97732">
        <ele>1031</ele>
        <time>2016-07-11T09:26:54Z</time>
      </trkpt>
      <trkpt lat="43.14238" lon="-6.9774">
        <ele>1031</ele>
        <time>2016-07-11T09:27:01Z</time>
      </trkpt>
      <trkpt lat="43.14232" lon="-6.97749">
        <ele>1031</ele>
        <time>2016-07-11T09:27:08Z</time>
      </trkpt>
      <trkpt lat="43.14225" lon="-6.97758">
        <ele>1030.9</ele>
        <time>2016-07-11T09:27:15Z</time>
      </trkpt>
      <trkpt lat="43.1422" lon="-6.97769">
        <ele>1030.9</ele>
        <time>2016-07-11T09:27:22Z</time>
      </trkpt>
      <trkpt lat="43.14216" lon="-6.97781">
        <ele>1030.8</ele>
        <time>2016-07-11T09:27:29Z</time>
      </trkpt>
      <trkpt lat="43.14214" lon="-6.97793">
        <ele>1030.8</ele>
        <time>2016-07-11T09:27:37Z</time>
      </trkpt>
      <trkpt lat="43.14212" lon="-6.97807">
        <ele>1030.8</ele>
        <time>2016-07-11T09:27:46Z</time>
      </trkpt>
      <trkpt lat="43.14211" lon="-6.9782">
        <ele>1030.6</ele>
        <time>2016-07-11T09:27:54Z</time>
      </trkpt>
      <trkpt lat="43.14213" lon="-6.97834">
        <ele>1030.4</ele>
        <time>2016-07-11T09:28:02Z</time>
      </trkpt>
      <trkpt lat="43.14215" lon="-6.97847">
        <ele>1030</ele>
        <time>2016-07-11T09:28:09Z</time>
      </trkpt>
      <trkpt lat="43.14217" lon="-6.9786">
        <ele>1029.8</ele>
        <time>2016-07-11T09:28:17Z</time>
      </trkpt>
      <trkpt lat="43.14217" lon="-6.97873">
        <ele>1029.6</ele>
        <time>2016-07-11T09:28:25Z</time>
      </trkpt>
      <trkpt lat="43.14216" lon="-6.97885">
        <ele>1029.5</ele>
        <time>2016-07-11T09:28:33Z</time>
      </trkpt>
      <trkpt lat="43.14211" lon="-6.97896">
        <ele>1029.5</ele>
        <time>2016-07-11T09:28:40Z</time>
      </trkpt>
      <trkpt lat="43.14205" lon="-6.97906">
        <ele>1029.4</ele>
        <time>2016-07-11T09:28:46Z</time>
      </trkpt>
      <trkpt lat="43.14197" lon="-6.97915">
        <ele>1029.3</ele>
        <time>2016-07-11T09:28:53Z</time>
      </trkpt>
      <trkpt lat="43.1419" lon="-6.97923">
        <ele>1029.3</ele>
        <time>2016-07-11T09:29:00Z</time>
      </trkpt>
      <trkpt lat="43.14182" lon="-6.9793">
        <ele>1029.4</ele>
        <time>2016-07-11T09:29:08Z</time>
      </trkpt>
      <trkpt lat="43.14174" lon="-6.97937">
        <ele>1029.2</ele>
        <time>2016-07-11T09:29:15Z</time>
      </trkpt>
      <trkpt lat="43.14166" lon="-6.97945">
        <ele>1029.2</ele>
        <time>2016-07-11T09:29:22Z</time>
      </trkpt>
      <trkpt lat="43.14158" lon="-6.97952">
        <ele>1029.3</ele>
        <time>2016-07-11T09:29:29Z</time>
      </trkpt>
      <trkpt lat="43.1415" lon="-6.97959">
        <ele>1029.3</ele>
        <time>2016-07-11T09:29:37Z</time>
      </trkpt>
      <trkpt lat="43.14142" lon="-6.97965">
        <ele>1029.3</ele>
        <time>2016-07-11T09:29:44Z</time>
      </trkpt>
      <trkpt lat="43.14133" lon="-6.97972">
        <ele>1029.1</ele>
        <time>2016-07-11T09:29:52Z</time>
      </trkpt>
      <trkpt lat="43.14125" lon="-6.97978">
        <ele>1028.9</ele>
        <time>2016-07-11T09:30:00Z</time>
      </trkpt>
      <trkpt lat="43.14116" lon="-6.97985">
        <ele>1029</ele>
        <time>2016-07-11T09:30:08Z</time>
      </trkpt>
      <trkpt lat="43.14113" lon="-6.97997">
        <ele>1029.3</ele>
        <time>2016-07-11T09:30:16Z</time>
      </trkpt>
      <trkpt lat="43.14118" lon="-6.98008">
        <ele>1029.6</ele>
        <time>2016-07-11T09:30:26Z</time>
      </trkpt>
      <trkpt lat="43.14124" lon="-6.98018">
        <ele>1030.2</ele>
        <time>2016-07-11T09:30:35Z</time>
      </trkpt>
      <trkpt lat="43.14123" lon="-6.98032">
        <ele>1031</ele>
        <time>2016-07-11T09:30:44Z</time>
      </trkpt>
      <trkpt lat="43.14116" lon="-6.9804">
        <ele>1031.7</ele>
        <time>2016-07-11T09:30:52Z</time>
      </trkpt>
      <trkpt lat="43.14109" lon="-6.98048">
        <ele>1032.1</ele>
        <time>2016-07-11T09:31:00Z</time>
      </trkpt>
      <trkpt lat="43.14101" lon="-6.98057">
        <ele>1032.3</ele>
        <time>2016-07-11T09:31:08Z</time>
      </trkpt>
      <trkpt lat="43.14093" lon="-6.98064">
        <ele>1032.1</ele>
        <time>2016-07-11T09:31:16Z</time>
      </trkpt>
      <trkpt lat="43.14085" lon="-6.98073">
        <ele>1032</ele>
        <time>2016-07-11T09:31:24Z</time>
      </trkpt>
      <trkpt lat="43.14078" lon="-6.9808">
        <ele>1032.1</ele>
        <time>2016-07-11T09:31:31Z</time>
      </trkpt>
      <trkpt lat="43.1407" lon="-6.98089">
        <ele>1032.2</ele>
        <time>2016-07-11T09:31:39Z</time>
      </trkpt>
      <trkpt lat="43.14063" lon="-6.98099">
        <ele>1032.2</ele>
        <time>2016-07-11T09:31:47Z</time>
      </trkpt>
      <trkpt lat="43.14055" lon="-6.98107">
        <ele>1032.3</ele>
        <time>2016-07-11T09:31:55Z</time>
      </trkpt>
      <trkpt lat="43.14047" lon="-6.98115">
        <ele>1032.2</ele>
        <time>2016-07-11T09:32:03Z</time>
      </trkpt>
      <trkpt lat="43.14039" lon="-6.98123">
        <ele>1032.2</ele>
        <time>2016-07-11T09:32:11Z</time>
      </trkpt>
      <trkpt lat="43.14032" lon="-6.98131">
        <ele>1032.4</ele>
        <time>2016-07-11T09:32:19Z</time>
      </trkpt>
      <trkpt lat="43.14024" lon="-6.98139">
        <ele>1032.6</ele>
        <time>2016-07-11T09:32:27Z</time>
      </trkpt>
      <trkpt lat="43.14017" lon="-6.98146">
        <ele>1032.5</ele>
        <time>2016-07-11T09:32:35Z</time>
      </trkpt>
      <trkpt lat="43.14009" lon="-6.98154">
        <ele>1032.5</ele>
        <time>2016-07-11T09:32:43Z</time>
      </trkpt>
      <trkpt lat="43.14001" lon="-6.98162">
        <ele>1032.6</ele>
        <time>2016-07-11T09:32:51Z</time>
      </trkpt>
      <trkpt lat="43.13994" lon="-6.9817">
        <ele>1032.4</ele>
        <time>2016-07-11T09:32:59Z</time>
      </trkpt>
      <trkpt lat="43.13986" lon="-6.98178">
        <ele>1031.6</ele>
        <time>2016-07-11T09:33:07Z</time>
      </trkpt>
      <trkpt lat="43.13978" lon="-6.98186">
        <ele>1030.8</ele>
        <time>2016-07-11T09:33:15Z</time>
      </trkpt>
      <trkpt lat="43.1397" lon="-6.98194">
        <ele>1030.3</ele>
        <time>2016-07-11T09:33:23Z</time>
      </trkpt>
      <trkpt lat="43.13962" lon="-6.98202">
        <ele>1029.6</ele>
        <time>2016-07-11T09:33:31Z</time>
      </trkpt>
      <trkpt lat="43.13954" lon="-6.98209">
        <ele>1028.6</ele>
        <time>2016-07-11T09:33:38Z</time>
      </trkpt>
      <trkpt lat="43.13946" lon="-6.98216">
        <ele>1027.4</ele>
        <time>2016-07-11T09:33:46Z</time>
      </trkpt>
      <trkpt lat="43.13938" lon="-6.98222">
        <ele>1026.5</ele>
        <time>2016-07-11T09:33:54Z</time>
      </trkpt>
      <trkpt lat="43.13929" lon="-6.98229">
        <ele>1026</ele>
        <time>2016-07-11T09:34:02Z</time>
      </trkpt>
      <trkpt lat="43.13921" lon="-6.98237">
        <ele>1025.5</ele>
        <time>2016-07-11T09:34:10Z</time>
      </trkpt>
      <trkpt lat="43.13913" lon="-6.98244">
        <ele>1025.2</ele>
        <time>2016-07-11T09:34:18Z</time>
      </trkpt>
      <trkpt lat="43.13905" lon="-6.98251">
        <ele>1024.7</ele>
        <time>2016-07-11T09:34:26Z</time>
      </trkpt>
      <trkpt lat="43.13897" lon="-6.98257">
        <ele>1024.1</ele>
        <time>2016-07-11T09:34:35Z</time>
      </trkpt>
      <trkpt lat="43.13889" lon="-6.98263">
        <ele>1023</ele>
        <time>2016-07-11T09:34:43Z</time>
      </trkpt>
      <trkpt lat="43.13879" lon="-6.98269">
        <ele>1021.9</ele>
        <time>2016-07-11T09:34:51Z</time>
      </trkpt>
      <trkpt lat="43.13871" lon="-6.98274">
        <ele>1020.8</ele>
        <time>2016-07-11T09:34:59Z</time>
      </trkpt>
      <trkpt lat="43.13862" lon="-6.98279">
        <ele>1019.7</ele>
        <time>2016-07-11T09:35:07Z</time>
      </trkpt>
      <trkpt lat="43.13853" lon="-6.98285">
        <ele>1018.4</ele>
        <time>2016-07-11T09:35:15Z</time>
      </trkpt>
      <trkpt lat="43.13844" lon="-6.9829">
        <ele>1016.9</ele>
        <time>2016-07-11T09:35:23Z</time>
      </trkpt>
      <trkpt lat="43.13836" lon="-6.98294">
        <ele>1015.8</ele>
        <time>2016-07-11T09:35:31Z</time>
      </trkpt>
      <trkpt lat="43.13826" lon="-6.98298">
        <ele>1015</ele>
        <time>2016-07-11T09:35:39Z</time>
      </trkpt>
      <trkpt lat="43.13817" lon="-6.98302">
        <ele>1014.1</ele>
        <time>2016-07-11T09:35:47Z</time>
      </trkpt>
      <trkpt lat="43.13808" lon="-6.98306">
        <ele>1013.6</ele>
        <time>2016-07-11T09:35:54Z</time>
      </trkpt>
      <trkpt lat="43.13798" lon="-6.9831">
        <ele>1013.2</ele>
        <time>2016-07-11T09:36:02Z</time>
      </trkpt>
      <trkpt lat="43.1379" lon="-6.98314">
        <ele>1012.9</ele>
        <time>2016-07-11T09:36:09Z</time>
      </trkpt>
      <trkpt lat="43.1378" lon="-6.98319">
        <ele>1012.5</ele>
        <time>2016-07-11T09:36:17Z</time>
      </trkpt>
      <trkpt lat="43.13771" lon="-6.98325">
        <ele>1012</ele>
        <time>2016-07-11T09:36:25Z</time>
      </trkpt>
      <trkpt lat="43.13764" lon="-6.98332">
        <ele>1011.1</ele>
        <time>2016-07-11T09:36:33Z</time>
      </trkpt>
      <trkpt lat="43.13757" lon="-6.98342">
        <ele>1010.6</ele>
        <time>2016-07-11T09:36:41Z</time>
      </trkpt>
      <trkpt lat="43.13751" lon="-6.98351">
        <ele>1009.6</ele>
        <time>2016-07-11T09:37:00Z</time>
      </trkpt>
      <trkpt lat="43.13742" lon="-6.98357">
        <ele>1008.3</ele>
        <time>2016-07-11T09:37:12Z</time>
      </trkpt>
      <trkpt lat="43.13733" lon="-6.98364">
        <ele>1007.8</ele>
        <time>2016-07-11T09:37:20Z</time>
      </trkpt>
      <trkpt lat="43.13725" lon="-6.9837">
        <ele>1007.6</ele>
        <time>2016-07-11T09:37:27Z</time>
      </trkpt>
      <trkpt lat="43.13716" lon="-6.98377">
        <ele>1007.2</ele>
        <time>2016-07-11T09:37:34Z</time>
      </trkpt>
      <trkpt lat="43.13708" lon="-6.98383">
        <ele>1006.5</ele>
        <time>2016-07-11T09:37:41Z</time>
      </trkpt>
      <trkpt lat="43.137" lon="-6.98389">
        <ele>1006.3</ele>
        <time>2016-07-11T09:37:48Z</time>
      </trkpt>
      <trkpt lat="43.13692" lon="-6.98396">
        <ele>1006.1</ele>
        <time>2016-07-11T09:37:55Z</time>
      </trkpt>
      <trkpt lat="43.13684" lon="-6.98404">
        <ele>1005.9</ele>
        <time>2016-07-11T09:38:02Z</time>
      </trkpt>
      <trkpt lat="43.13676" lon="-6.98411">
        <ele>1005.3</ele>
        <time>2016-07-11T09:38:10Z</time>
      </trkpt>
      <trkpt lat="43.13669" lon="-6.9842">
        <ele>1004.7</ele>
        <time>2016-07-11T09:38:18Z</time>
      </trkpt>
      <trkpt lat="43.13662" lon="-6.9843">
        <ele>1003.7</ele>
        <time>2016-07-11T09:38:34Z</time>
      </trkpt>
      <trkpt lat="43.13656" lon="-6.98441">
        <ele>1003.3</ele>
        <time>2016-07-11T09:38:42Z</time>
      </trkpt>
      <trkpt lat="43.1365" lon="-6.98451">
        <ele>1002.8</ele>
        <time>2016-07-11T09:38:49Z</time>
      </trkpt>
      <trkpt lat="43.13645" lon="-6.98462">
        <ele>1002.3</ele>
        <time>2016-07-11T09:38:57Z</time>
      </trkpt>
      <trkpt lat="43.1364" lon="-6.98472">
        <ele>1002</ele>
        <time>2016-07-11T09:39:04Z</time>
      </trkpt>
      <trkpt lat="43.13635" lon="-6.98484">
        <ele>1001.3</ele>
        <time>2016-07-11T09:39:11Z</time>
      </trkpt>
      <trkpt lat="43.13631" lon="-6.98495">
        <ele>1001</ele>
        <time>2016-07-11T09:39:18Z</time>
      </trkpt>
      <trkpt lat="43.13627" lon="-6.98506">
        <ele>1000.7</ele>
        <time>2016-07-11T09:39:25Z</time>
      </trkpt>
      <trkpt lat="43.13624" lon="-6.98518">
        <ele>1000.3</ele>
        <time>2016-07-11T09:39:32Z</time>
      </trkpt>
      <trkpt lat="43.1362" lon="-6.98532">
        <ele>1000</ele>
        <time>2016-07-11T09:39:40Z</time>
      </trkpt>
      <trkpt lat="43.13618" lon="-6.98544">
        <ele>999.8</ele>
        <time>2016-07-11T09:39:47Z</time>
      </trkpt>
      <trkpt lat="43.13616" lon="-6.98556">
        <ele>999</ele>
        <time>2016-07-11T09:39:54Z</time>
      </trkpt>
      <trkpt lat="43.13614" lon="-6.98568">
        <ele>998.5</ele>
        <time>2016-07-11T09:40:01Z</time>
      </trkpt>
      <trkpt lat="43.13612" lon="-6.98581">
        <ele>998.2</ele>
        <time>2016-07-11T09:40:08Z</time>
      </trkpt>
      <trkpt lat="43.13611" lon="-6.98594">
        <ele>997.9</ele>
        <time>2016-07-11T09:40:23Z</time>
      </trkpt>
      <trkpt lat="43.1361" lon="-6.98608">
        <ele>997.8</ele>
        <time>2016-07-11T09:40:33Z</time>
      </trkpt>
      <trkpt lat="43.13611" lon="-6.9862">
        <ele>997.5</ele>
        <time>2016-07-11T09:40:42Z</time>
      </trkpt>
      <trkpt lat="43.13613" lon="-6.98634">
        <ele>997.3</ele>
        <time>2016-07-11T09:40:51Z</time>
      </trkpt>
      <trkpt lat="43.13615" lon="-6.98647">
        <ele>997.1</ele>
        <time>2016-07-11T09:40:59Z</time>
      </trkpt>
      <trkpt lat="43.13615" lon="-6.9866">
        <ele>996.7</ele>
        <time>2016-07-11T09:41:08Z</time>
      </trkpt>
      <trkpt lat="43.13617" lon="-6.98672">
        <ele>996.8</ele>
        <time>2016-07-11T09:41:17Z</time>
      </trkpt>
      <trkpt lat="43.13616" lon="-6.98685">
        <ele>997</ele>
        <time>2016-07-11T09:41:25Z</time>
      </trkpt>
      <trkpt lat="43.13616" lon="-6.98697">
        <ele>997</ele>
        <time>2016-07-11T09:41:33Z</time>
      </trkpt>
      <trkpt lat="43.13619" lon="-6.9871">
        <ele>997.8</ele>
        <time>2016-07-11T09:41:41Z</time>
      </trkpt>
      <trkpt lat="43.13624" lon="-6.9872">
        <ele>998.1</ele>
        <time>2016-07-11T09:41:49Z</time>
      </trkpt>
      <trkpt lat="43.1363" lon="-6.98731">
        <ele>998.7</ele>
        <time>2016-07-11T09:41:57Z</time>
      </trkpt>
      <trkpt lat="43.13635" lon="-6.98741">
        <ele>998.8</ele>
        <time>2016-07-11T09:42:05Z</time>
      </trkpt>
      <trkpt lat="43.13639" lon="-6.98752">
        <ele>998.8</ele>
        <time>2016-07-11T09:42:13Z</time>
      </trkpt>
      <trkpt lat="43.13644" lon="-6.98763">
        <ele>999.2</ele>
        <time>2016-07-11T09:42:21Z</time>
      </trkpt>
      <trkpt lat="43.13649" lon="-6.98774">
        <ele>999.1</ele>
        <time>2016-07-11T09:42:29Z</time>
      </trkpt>
      <trkpt lat="43.13654" lon="-6.98785">
        <ele>998.9</ele>
        <time>2016-07-11T09:42:38Z</time>
      </trkpt>
      <trkpt lat="43.13658" lon="-6.98797">
        <ele>998.8</ele>
        <time>2016-07-11T09:42:47Z</time>
      </trkpt>
      <trkpt lat="43.13664" lon="-6.98807">
        <ele>999.1</ele>
        <time>2016-07-11T09:42:58Z</time>
      </trkpt>
      <trkpt lat="43.13668" lon="-6.98819">
        <ele>999.1</ele>
        <time>2016-07-11T09:43:07Z</time>
      </trkpt>
      <trkpt lat="43.13672" lon="-6.98831">
        <ele>999.2</ele>
        <time>2016-07-11T09:43:15Z</time>
      </trkpt>
      <trkpt lat="43.13676" lon="-6.98843">
        <ele>999.2</ele>
        <time>2016-07-11T09:43:24Z</time>
      </trkpt>
      <trkpt lat="43.1368" lon="-6.98855">
        <ele>999.3</ele>
        <time>2016-07-11T09:43:33Z</time>
      </trkpt>
      <trkpt lat="43.13685" lon="-6.98866">
        <ele>999.2</ele>
        <time>2016-07-11T09:43:41Z</time>
      </trkpt>
      <trkpt lat="43.13691" lon="-6.98876">
        <ele>999.6</ele>
        <time>2016-07-11T09:43:50Z</time>
      </trkpt>
      <trkpt lat="43.13696" lon="-6.98887">
        <ele>999.6</ele>
        <time>2016-07-11T09:43:58Z</time>
      </trkpt>
      <trkpt lat="43.13703" lon="-6.98898">
        <ele>999.6</ele>
        <time>2016-07-11T09:44:06Z</time>
      </trkpt>
      <trkpt lat="43.13707" lon="-6.98909">
        <ele>999.6</ele>
        <time>2016-07-11T09:44:13Z</time>
      </trkpt>
      <trkpt lat="43.13714" lon="-6.98918">
        <ele>999.6</ele>
        <time>2016-07-11T09:44:21Z</time>
      </trkpt>
      <trkpt lat="43.1372" lon="-6.98929">
        <ele>999.5</ele>
        <time>2016-07-11T09:44:29Z</time>
      </trkpt>
      <trkpt lat="43.13727" lon="-6.98938">
        <ele>999.2</ele>
        <time>2016-07-11T09:44:38Z</time>
      </trkpt>
      <trkpt lat="43.13734" lon="-6.98947">
        <ele>999</ele>
        <time>2016-07-11T09:44:47Z</time>
      </trkpt>
      <trkpt lat="43.13741" lon="-6.98956">
        <ele>999.3</ele>
        <time>2016-07-11T09:44:56Z</time>
      </trkpt>
      <trkpt lat="43.13749" lon="-6.98964">
        <ele>999.5</ele>
        <time>2016-07-11T09:45:03Z</time>
      </trkpt>
      <trkpt lat="43.13756" lon="-6.98972">
        <ele>999.8</ele>
        <time>2016-07-11T09:45:10Z</time>
      </trkpt>
      <trkpt lat="43.13764" lon="-6.98979">
        <ele>1000.3</ele>
        <time>2016-07-11T09:45:18Z</time>
      </trkpt>
      <trkpt lat="43.13772" lon="-6.98987">
        <ele>1000.5</ele>
        <time>2016-07-11T09:45:26Z</time>
      </trkpt>
      <trkpt lat="43.13779" lon="-6.98995">
        <ele>1001</ele>
        <time>2016-07-11T09:45:35Z</time>
      </trkpt>
      <trkpt lat="43.13787" lon="-6.99004">
        <ele>1001.4</ele>
        <time>2016-07-11T09:45:44Z</time>
      </trkpt>
      <trkpt lat="43.13795" lon="-6.99011">
        <ele>1001.5</ele>
        <time>2016-07-11T09:45:52Z</time>
      </trkpt>
      <trkpt lat="43.13802" lon="-6.9902">
        <ele>1001.5</ele>
        <time>2016-07-11T09:46:00Z</time>
      </trkpt>
      <trkpt lat="43.1381" lon="-6.99028">
        <ele>1001.6</ele>
        <time>2016-07-11T09:46:08Z</time>
      </trkpt>
      <trkpt lat="43.13818" lon="-6.99036">
        <ele>1001.9</ele>
        <time>2016-07-11T09:46:16Z</time>
      </trkpt>
      <trkpt lat="43.13825" lon="-6.99045">
        <ele>1002.1</ele>
        <time>2016-07-11T09:46:23Z</time>
      </trkpt>
      <trkpt lat="43.13831" lon="-6.99054">
        <ele>1002.2</ele>
        <time>2016-07-11T09:46:30Z</time>
      </trkpt>
      <trkpt lat="43.13838" lon="-6.99063">
        <ele>1002.4</ele>
        <time>2016-07-11T09:46:37Z</time>
      </trkpt>
      <trkpt lat="43.13845" lon="-6.99073">
        <ele>1002.4</ele>
        <time>2016-07-11T09:46:44Z</time>
      </trkpt>
      <trkpt lat="43.1385" lon="-6.99085">
        <ele>1002.5</ele>
        <time>2016-07-11T09:46:51Z</time>
      </trkpt>
      <trkpt lat="43.13854" lon="-6.99097">
        <ele>1002.5</ele>
        <time>2016-07-11T09:46:59Z</time>
      </trkpt>
      <trkpt lat="43.13858" lon="-6.99108">
        <ele>1002.6</ele>
        <time>2016-07-11T09:47:08Z</time>
      </trkpt>
      <trkpt lat="43.13861" lon="-6.9912">
        <ele>1002.7</ele>
        <time>2016-07-11T09:47:17Z</time>
      </trkpt>
      <trkpt lat="43.13863" lon="-6.99133">
        <ele>1002.9</ele>
        <time>2016-07-11T09:47:25Z</time>
      </trkpt>
      <trkpt lat="43.13865" lon="-6.99146">
        <ele>1003</ele>
        <time>2016-07-11T09:47:33Z</time>
      </trkpt>
      <trkpt lat="43.13867" lon="-6.99159">
        <ele>1003.7</ele>
        <time>2016-07-11T09:47:41Z</time>
      </trkpt>
      <trkpt lat="43.13867" lon="-6.99172">
        <ele>1004.4</ele>
        <time>2016-07-11T09:47:49Z</time>
      </trkpt>
      <trkpt lat="43.13867" lon="-6.99185">
        <ele>1005</ele>
        <time>2016-07-11T09:47:57Z</time>
      </trkpt>
      <trkpt lat="43.13867" lon="-6.99199">
        <ele>1005.4</ele>
        <time>2016-07-11T09:48:05Z</time>
      </trkpt>
      <trkpt lat="43.13869" lon="-6.99212">
        <ele>1006</ele>
        <time>2016-07-11T09:48:14Z</time>
      </trkpt>
      <trkpt lat="43.13871" lon="-6.99224">
        <ele>1006.7</ele>
        <time>2016-07-11T09:48:22Z</time>
      </trkpt>
      <trkpt lat="43.13875" lon="-6.99237">
        <ele>1007.3</ele>
        <time>2016-07-11T09:48:30Z</time>
      </trkpt>
      <trkpt lat="43.13877" lon="-6.99249">
        <ele>1007.4</ele>
        <time>2016-07-11T09:48:37Z</time>
      </trkpt>
      <trkpt lat="43.1388" lon="-6.99261">
        <ele>1007.2</ele>
        <time>2016-07-11T09:48:45Z</time>
      </trkpt>
      <trkpt lat="43.13883" lon="-6.99274">
        <ele>1007.1</ele>
        <time>2016-07-11T09:48:53Z</time>
      </trkpt>
      <trkpt lat="43.13886" lon="-6.99286">
        <ele>1007</ele>
        <time>2016-07-11T09:49:01Z</time>
      </trkpt>
      <trkpt lat="43.13888" lon="-6.99298">
        <ele>1007.4</ele>
        <time>2016-07-11T09:49:09Z</time>
      </trkpt>
      <trkpt lat="43.1389" lon="-6.9931">
        <ele>1007.8</ele>
        <time>2016-07-11T09:49:17Z</time>
      </trkpt>
      <trkpt lat="43.13895" lon="-6.99322">
        <ele>1008</ele>
        <time>2016-07-11T09:49:25Z</time>
      </trkpt>
      <trkpt lat="43.13899" lon="-6.99333">
        <ele>1008.2</ele>
        <time>2016-07-11T09:49:33Z</time>
      </trkpt>
      <trkpt lat="43.13903" lon="-6.99345">
        <ele>1008.2</ele>
        <time>2016-07-11T09:49:41Z</time>
      </trkpt>
      <trkpt lat="43.13907" lon="-6.99358">
        <ele>1008.6</ele>
        <time>2016-07-11T09:49:50Z</time>
      </trkpt>
      <trkpt lat="43.13911" lon="-6.9937">
        <ele>1009.2</ele>
        <time>2016-07-11T09:49:59Z</time>
      </trkpt>
      <trkpt lat="43.13913" lon="-6.99383">
        <ele>1009.5</ele>
        <time>2016-07-11T09:50:08Z</time>
      </trkpt>
      <trkpt lat="43.13915" lon="-6.99397">
        <ele>1009.8</ele>
        <time>2016-07-11T09:50:17Z</time>
      </trkpt>
      <trkpt lat="43.13919" lon="-6.9941">
        <ele>1010.1</ele>
        <time>2016-07-11T09:50:25Z</time>
      </trkpt>
      <trkpt lat="43.13924" lon="-6.99422">
        <ele>1010.4</ele>
        <time>2016-07-11T09:50:32Z</time>
      </trkpt>
      <trkpt lat="43.13927" lon="-6.99433">
        <ele>1010.7</ele>
        <time>2016-07-11T09:50:39Z</time>
      </trkpt>
      <trkpt lat="43.13931" lon="-6.99445">
        <ele>1011.2</ele>
        <time>2016-07-11T09:50:47Z</time>
      </trkpt>
      <trkpt lat="43.13934" lon="-6.99458">
        <ele>1011.6</ele>
        <time>2016-07-11T09:50:55Z</time>
      </trkpt>
      <trkpt lat="43.13944" lon="-6.9946">
        <ele>1012.6</ele>
        <time>2016-07-11T09:51:16Z</time>
      </trkpt>
      <trkpt lat="43.13954" lon="-6.99461">
        <ele>1012.2</ele>
        <time>2016-07-11T09:51:25Z</time>
      </trkpt>
      <trkpt lat="43.13963" lon="-6.99463">
        <ele>1011.7</ele>
        <time>2016-07-11T09:51:37Z</time>
      </trkpt>
      <trkpt lat="43.13972" lon="-6.99465">
        <ele>1010.8</ele>
        <time>2016-07-11T09:51:46Z</time>
      </trkpt>
      <trkpt lat="43.13982" lon="-6.99469">
        <ele>1010.2</ele>
        <time>2016-07-11T09:51:54Z</time>
      </trkpt>
      <trkpt lat="43.13991" lon="-6.99473">
        <ele>1009.8</ele>
        <time>2016-07-11T09:52:02Z</time>
      </trkpt>
      <trkpt lat="43.13999" lon="-6.99479">
        <ele>1008.7</ele>
        <time>2016-07-11T09:52:12Z</time>
      </trkpt>
      <trkpt lat="43.14007" lon="-6.99484">
        <ele>1009.3</ele>
        <time>2016-07-11T09:52:22Z</time>
      </trkpt>
      <trkpt lat="43.14016" lon="-6.9949">
        <ele>1009</ele>
        <time>2016-07-11T09:52:31Z</time>
      </trkpt>
      <trkpt lat="43.14025" lon="-6.99497">
        <ele>1008.3</ele>
        <time>2016-07-11T09:52:41Z</time>
      </trkpt>
      <trkpt lat="43.14033" lon="-6.99504">
        <ele>1007.5</ele>
        <time>2016-07-11T09:52:49Z</time>
      </trkpt>
      <trkpt lat="43.14041" lon="-6.99512">
        <ele>1006.7</ele>
        <time>2016-07-11T09:52:57Z</time>
      </trkpt>
      <trkpt lat="43.14049" lon="-6.99522">
        <ele>1006.3</ele>
        <time>2016-07-11T09:53:04Z</time>
      </trkpt>
      <trkpt lat="43.14057" lon="-6.9953">
        <ele>1005.8</ele>
        <time>2016-07-11T09:53:11Z</time>
      </trkpt>
      <trkpt lat="43.14064" lon="-6.99539">
        <ele>1005.4</ele>
        <time>2016-07-11T09:53:18Z</time>
      </trkpt>
      <trkpt lat="43.1407" lon="-6.99549">
        <ele>1005.1</ele>
        <time>2016-07-11T09:53:25Z</time>
      </trkpt>
      <trkpt lat="43.14077" lon="-6.9956">
        <ele>1004.9</ele>
        <time>2016-07-11T09:53:32Z</time>
      </trkpt>
      <trkpt lat="43.14083" lon="-6.9957">
        <ele>1004.5</ele>
        <time>2016-07-11T09:53:39Z</time>
      </trkpt>
      <trkpt lat="43.1409" lon="-6.9958">
        <ele>1004.2</ele>
        <time>2016-07-11T09:53:47Z</time>
      </trkpt>
      <trkpt lat="43.14096" lon="-6.9959">
        <ele>1004.1</ele>
        <time>2016-07-11T09:53:54Z</time>
      </trkpt>
      <trkpt lat="43.14103" lon="-6.99599">
        <ele>1004.2</ele>
        <time>2016-07-11T09:54:02Z</time>
      </trkpt>
      <trkpt lat="43.14111" lon="-6.99605">
        <ele>1003.7</ele>
        <time>2016-07-11T09:54:10Z</time>
      </trkpt>
      <trkpt lat="43.1412" lon="-6.99611">
        <ele>1003.4</ele>
        <time>2016-07-11T09:54:19Z</time>
      </trkpt>
      <trkpt lat="43.14129" lon="-6.99614">
        <ele>1003</ele>
        <time>2016-07-11T09:54:26Z</time>
      </trkpt>
      <trkpt lat="43.14139" lon="-6.99617">
        <ele>1002.4</ele>
        <time>2016-07-11T09:54:34Z</time>
      </trkpt>
      <trkpt lat="43.14149" lon="-6.99619">
        <ele>1002</ele>
        <time>2016-07-11T09:54:42Z</time>
      </trkpt>
      <trkpt lat="43.14158" lon="-6.99622">
        <ele>1001.6</ele>
        <time>2016-07-11T09:54:50Z</time>
      </trkpt>
      <trkpt lat="43.14167" lon="-6.99625">
        <ele>1000.9</ele>
        <time>2016-07-11T09:54:58Z</time>
      </trkpt>
      <trkpt lat="43.14176" lon="-6.99629">
        <ele>1000.1</ele>
        <time>2016-07-11T09:55:05Z</time>
      </trkpt>
      <trkpt lat="43.14186" lon="-6.99634">
        <ele>999.4</ele>
        <time>2016-07-11T09:55:12Z</time>
      </trkpt>
      <trkpt lat="43.14195" lon="-6.99639">
        <ele>998.8</ele>
        <time>2016-07-11T09:55:19Z</time>
      </trkpt>
      <trkpt lat="43.14203" lon="-6.99646">
        <ele>997.3</ele>
        <time>2016-07-11T09:55:27Z</time>
      </trkpt>
      <trkpt lat="43.14211" lon="-6.99654">
        <ele>996.1</ele>
        <time>2016-07-11T09:55:35Z</time>
      </trkpt>
      <trkpt lat="43.1422" lon="-6.9966">
        <ele>995</ele>
        <time>2016-07-11T09:55:43Z</time>
      </trkpt>
      <trkpt lat="43.14228" lon="-6.99667">
        <ele>994.2</ele>
        <time>2016-07-11T09:55:50Z</time>
      </trkpt>
      <trkpt lat="43.14236" lon="-6.99673">
        <ele>993.1</ele>
        <time>2016-07-11T09:55:58Z</time>
      </trkpt>
      <trkpt lat="43.14244" lon="-6.99678">
        <ele>992.4</ele>
        <time>2016-07-11T09:56:06Z</time>
      </trkpt>
      <trkpt lat="43.14253" lon="-6.99683">
        <ele>992</ele>
        <time>2016-07-11T09:56:15Z</time>
      </trkpt>
      <trkpt lat="43.14262" lon="-6.9969">
        <ele>991.8</ele>
        <time>2016-07-11T09:56:23Z</time>
      </trkpt>
      <trkpt lat="43.1427" lon="-6.99698">
        <ele>991.8</ele>
        <time>2016-07-11T09:56:30Z</time>
      </trkpt>
      <trkpt lat="43.14277" lon="-6.99705">
        <ele>991.7</ele>
        <time>2016-07-11T09:56:37Z</time>
      </trkpt>
      <trkpt lat="43.14285" lon="-6.99712">
        <ele>991.7</ele>
        <time>2016-07-11T09:56:45Z</time>
      </trkpt>
      <trkpt lat="43.14293" lon="-6.99718">
        <ele>991.5</ele>
        <time>2016-07-11T09:56:52Z</time>
      </trkpt>
      <trkpt lat="43.14302" lon="-6.99724">
        <ele>990.9</ele>
        <time>2016-07-11T09:57:00Z</time>
      </trkpt>
      <trkpt lat="43.1431" lon="-6.99729">
        <ele>990.4</ele>
        <time>2016-07-11T09:57:14Z</time>
      </trkpt>
      <trkpt lat="43.1432" lon="-6.99734">
        <ele>989.8</ele>
        <time>2016-07-11T09:57:23Z</time>
      </trkpt>
      <trkpt lat="43.14329" lon="-6.99738">
        <ele>989.3</ele>
        <time>2016-07-11T09:57:31Z</time>
      </trkpt>
      <trkpt lat="43.14338" lon="-6.99742">
        <ele>989</ele>
        <time>2016-07-11T09:57:38Z</time>
      </trkpt>
      <trkpt lat="43.14347" lon="-6.99746">
        <ele>988.3</ele>
        <time>2016-07-11T09:57:46Z</time>
      </trkpt>
      <trkpt lat="43.14356" lon="-6.9975">
        <ele>987.6</ele>
        <time>2016-07-11T09:57:54Z</time>
      </trkpt>
      <trkpt lat="43.14365" lon="-6.99751">
        <ele>987.1</ele>
        <time>2016-07-11T09:58:02Z</time>
      </trkpt>
      <trkpt lat="43.14374" lon="-6.99754">
        <ele>986.1</ele>
        <time>2016-07-11T09:58:09Z</time>
      </trkpt>
      <trkpt lat="43.14384" lon="-6.99758">
        <ele>985.3</ele>
        <time>2016-07-11T09:58:15Z</time>
      </trkpt>
      <trkpt lat="43.14393" lon="-6.99761">
        <ele>985</ele>
        <time>2016-07-11T09:58:22Z</time>
      </trkpt>
      <trkpt lat="43.14402" lon="-6.99767">
        <ele>983.9</ele>
        <time>2016-07-11T09:58:48Z</time>
      </trkpt>
      <trkpt lat="43.14411" lon="-6.9977">
        <ele>983.5</ele>
        <time>2016-07-11T09:58:57Z</time>
      </trkpt>
      <trkpt lat="43.1442" lon="-6.99772">
        <ele>983</ele>
        <time>2016-07-11T09:59:04Z</time>
      </trkpt>
      <trkpt lat="43.1443" lon="-6.99774">
        <ele>982.6</ele>
        <time>2016-07-11T09:59:11Z</time>
      </trkpt>
      <trkpt lat="43.1444" lon="-6.99776">
        <ele>982</ele>
        <time>2016-07-11T09:59:19Z</time>
      </trkpt>
      <trkpt lat="43.14449" lon="-6.99777">
        <ele>981.6</ele>
        <time>2016-07-11T09:59:26Z</time>
      </trkpt>
      <trkpt lat="43.14458" lon="-6.99779">
        <ele>981.5</ele>
        <time>2016-07-11T09:59:33Z</time>
      </trkpt>
      <trkpt lat="43.14468" lon="-6.99781">
        <ele>981.3</ele>
        <time>2016-07-11T09:59:40Z</time>
      </trkpt>
      <trkpt lat="43.14477" lon="-6.99782">
        <ele>980.8</ele>
        <time>2016-07-11T09:59:47Z</time>
      </trkpt>
      <trkpt lat="43.14486" lon="-6.99784">
        <ele>980.4</ele>
        <time>2016-07-11T09:59:55Z</time>
      </trkpt>
      <trkpt lat="43.14496" lon="-6.99788">
        <ele>979.8</ele>
        <time>2016-07-11T10:00:03Z</time>
      </trkpt>
      <trkpt lat="43.14505" lon="-6.9979">
        <ele>979.1</ele>
        <time>2016-07-11T10:00:11Z</time>
      </trkpt>
      <trkpt lat="43.14515" lon="-6.99792">
        <ele>978.1</ele>
        <time>2016-07-11T10:00:19Z</time>
      </trkpt>
      <trkpt lat="43.14525" lon="-6.99795">
        <ele>977.3</ele>
        <time>2016-07-11T10:00:26Z</time>
      </trkpt>
      <trkpt lat="43.14534" lon="-6.99797">
        <ele>976.5</ele>
        <time>2016-07-11T10:00:33Z</time>
      </trkpt>
      <trkpt lat="43.14544" lon="-6.99799">
        <ele>975.8</ele>
        <time>2016-07-11T10:00:41Z</time>
      </trkpt>
      <trkpt lat="43.14555" lon="-6.99802">
        <ele>975.4</ele>
        <time>2016-07-11T10:00:48Z</time>
      </trkpt>
      <trkpt lat="43.14565" lon="-6.99804">
        <ele>974.8</ele>
        <time>2016-07-11T10:00:56Z</time>
      </trkpt>
      <trkpt lat="43.14575" lon="-6.99804">
        <ele>974.3</ele>
        <time>2016-07-11T10:01:04Z</time>
      </trkpt>
      <trkpt lat="43.14585" lon="-6.99805">
        <ele>974</ele>
        <time>2016-07-11T10:01:13Z</time>
      </trkpt>
      <trkpt lat="43.14595" lon="-6.99806">
        <ele>974.1</ele>
        <time>2016-07-11T10:01:21Z</time>
      </trkpt>
      <trkpt lat="43.14604" lon="-6.99807">
        <ele>974.1</ele>
        <time>2016-07-11T10:01:28Z</time>
      </trkpt>
      <trkpt lat="43.14614" lon="-6.99808">
        <ele>974.1</ele>
        <time>2016-07-11T10:01:36Z</time>
      </trkpt>
      <trkpt lat="43.14624" lon="-6.99809">
        <ele>974.1</ele>
        <time>2016-07-11T10:01:44Z</time>
      </trkpt>
      <trkpt lat="43.14633" lon="-6.99809">
        <ele>974.1</ele>
        <time>2016-07-11T10:01:51Z</time>
      </trkpt>
      <trkpt lat="43.14643" lon="-6.9981">
        <ele>974.3</ele>
        <time>2016-07-11T10:01:59Z</time>
      </trkpt>
      <trkpt lat="43.14653" lon="-6.9981">
        <ele>974.4</ele>
        <time>2016-07-11T10:02:07Z</time>
      </trkpt>
      <trkpt lat="43.14663" lon="-6.99811">
        <ele>974.4</ele>
        <time>2016-07-11T10:02:15Z</time>
      </trkpt>
      <trkpt lat="43.14672" lon="-6.99813">
        <ele>974.7</ele>
        <time>2016-07-11T10:02:23Z</time>
      </trkpt>
      <trkpt lat="43.14682" lon="-6.99816">
        <ele>975</ele>
        <time>2016-07-11T10:02:31Z</time>
      </trkpt>
      <trkpt lat="43.14691" lon="-6.9982">
        <ele>974.9</ele>
        <time>2016-07-11T10:02:39Z</time>
      </trkpt>
      <trkpt lat="43.14701" lon="-6.99824">
        <ele>974.4</ele>
        <time>2016-07-11T10:02:47Z</time>
      </trkpt>
      <trkpt lat="43.1471" lon="-6.99827">
        <ele>973.8</ele>
        <time>2016-07-11T10:02:54Z</time>
      </trkpt>
      <trkpt lat="43.14719" lon="-6.99831">
        <ele>973.2</ele>
        <time>2016-07-11T10:03:04Z</time>
      </trkpt>
      <trkpt lat="43.14728" lon="-6.99837">
        <ele>972.8</ele>
        <time>2016-07-11T10:03:13Z</time>
      </trkpt>
      <trkpt lat="43.14736" lon="-6.99842">
        <ele>972.2</ele>
        <time>2016-07-11T10:03:20Z</time>
      </trkpt>
      <trkpt lat="43.14743" lon="-6.9985">
        <ele>971.7</ele>
        <time>2016-07-11T10:03:28Z</time>
      </trkpt>
      <trkpt lat="43.14749" lon="-6.99861">
        <ele>971</ele>
        <time>2016-07-11T10:03:37Z</time>
      </trkpt>
      <trkpt lat="43.14755" lon="-6.99871">
        <ele>969.8</ele>
        <time>2016-07-11T10:03:45Z</time>
      </trkpt>
      <trkpt lat="43.1475" lon="-6.99883">
        <ele>967.8</ele>
        <time>2016-07-11T10:03:57Z</time>
      </trkpt>
      <trkpt lat="43.14755" lon="-6.99894">
        <ele>964.3</ele>
        <time>2016-07-11T10:04:15Z</time>
      </trkpt>
      <trkpt lat="43.14764" lon="-6.99895">
        <ele>962.7</ele>
        <time>2016-07-11T10:04:27Z</time>
      </trkpt>
      <trkpt lat="43.14772" lon="-6.99903">
        <ele>962</ele>
        <time>2016-07-11T10:04:36Z</time>
      </trkpt>
      <trkpt lat="43.14771" lon="-6.99916">
        <ele>961.5</ele>
        <time>2016-07-11T10:04:45Z</time>
      </trkpt>
      <trkpt lat="43.14771" lon="-6.99929">
        <ele>960.7</ele>
        <time>2016-07-11T10:04:53Z</time>
      </trkpt>
      <trkpt lat="43.14774" lon="-6.99942">
        <ele>959.9</ele>
        <time>2016-07-11T10:05:01Z</time>
      </trkpt>
      <trkpt lat="43.14779" lon="-6.99953">
        <ele>959.1</ele>
        <time>2016-07-11T10:05:08Z</time>
      </trkpt>
      <trkpt lat="43.14785" lon="-6.99964">
        <ele>958.4</ele>
        <time>2016-07-11T10:05:16Z</time>
      </trkpt>
      <trkpt lat="43.1479" lon="-6.99974">
        <ele>958</ele>
        <time>2016-07-11T10:05:23Z</time>
      </trkpt>
      <trkpt lat="43.14795" lon="-6.99985">
        <ele>957.5</ele>
        <time>2016-07-11T10:05:31Z</time>
      </trkpt>
      <trkpt lat="43.14801" lon="-6.99996">
        <ele>957.1</ele>
        <time>2016-07-11T10:05:39Z</time>
      </trkpt>
      <trkpt lat="43.14807" lon="-7.00008">
        <ele>957</ele>
        <time>2016-07-11T10:05:47Z</time>
      </trkpt>
      <trkpt lat="43.14813" lon="-7.00018">
        <ele>956.9</ele>
        <time>2016-07-11T10:05:55Z</time>
      </trkpt>
      <trkpt lat="43.14819" lon="-7.00028">
        <ele>956.5</ele>
        <time>2016-07-11T10:06:03Z</time>
      </trkpt>
      <trkpt lat="43.14824" lon="-7.0004">
        <ele>955.9</ele>
        <time>2016-07-11T10:06:11Z</time>
      </trkpt>
      <trkpt lat="43.14827" lon="-7.00053">
        <ele>955.5</ele>
        <time>2016-07-11T10:06:19Z</time>
      </trkpt>
      <trkpt lat="43.14829" lon="-7.00065">
        <ele>955.6</ele>
        <time>2016-07-11T10:06:26Z</time>
      </trkpt>
      <trkpt lat="43.1483" lon="-7.00078">
        <ele>955.8</ele>
        <time>2016-07-11T10:06:33Z</time>
      </trkpt>
      <trkpt lat="43.1483" lon="-7.0009">
        <ele>955.9</ele>
        <time>2016-07-11T10:06:40Z</time>
      </trkpt>
      <trkpt lat="43.1483" lon="-7.00104">
        <ele>956</ele>
        <time>2016-07-11T10:06:49Z</time>
      </trkpt>
      <trkpt lat="43.14832" lon="-7.00116">
        <ele>956</ele>
        <time>2016-07-11T10:06:57Z</time>
      </trkpt>
      <trkpt lat="43.14836" lon="-7.00128">
        <ele>956.3</ele>
        <time>2016-07-11T10:07:06Z</time>
      </trkpt>
      <trkpt lat="43.14833" lon="-7.0014">
        <ele>957.9</ele>
        <time>2016-07-11T10:07:50Z</time>
      </trkpt>
      <trkpt lat="43.14842" lon="-7.0014">
        <ele>958.2</ele>
        <time>2016-07-11T10:09:40Z</time>
      </trkpt>
      <trkpt lat="43.1485" lon="-7.00147">
        <ele>958</ele>
        <time>2016-07-11T10:09:59Z</time>
      </trkpt>
      <trkpt lat="43.14841" lon="-7.00151">
        <ele>959.6</ele>
        <time>2016-07-11T10:10:38Z</time>
      </trkpt>
      <trkpt lat="43.14834" lon="-7.00141">
        <ele>959.2</ele>
        <time>2016-07-11T10:15:01Z</time>
      </trkpt>
      <trkpt lat="43.14842" lon="-7.00135">
        <ele>959.4</ele>
        <time>2016-07-11T10:15:52Z</time>
      </trkpt>
      <trkpt lat="43.14834" lon="-7.00138">
        <ele>960.4</ele>
        <time>2016-07-11T10:17:47Z</time>
      </trkpt>
      <trkpt lat="43.14843" lon="-7.0014">
        <ele>961.3</ele>
        <time>2016-07-11T10:22:22Z</time>
      </trkpt>
      <trkpt lat="43.1483" lon="-7.00144">
        <ele>959</ele>
        <time>2016-07-11T10:25:27Z</time>
      </trkpt>
      <trkpt lat="43.14836" lon="-7.00135">
        <ele>957.5</ele>
        <time>2016-07-11T10:26:12Z</time>
      </trkpt>
      <trkpt lat="43.14841" lon="-7.00146">
        <ele>962</ele>
        <time>2016-07-11T10:29:43Z</time>
      </trkpt>
      <trkpt lat="43.14845" lon="-7.00134">
        <ele>959.7</ele>
        <time>2016-07-11T10:33:02Z</time>
      </trkpt>
      <trkpt lat="43.14838" lon="-7.00143">
        <ele>958.9</ele>
        <time>2016-07-11T10:36:10Z</time>
      </trkpt>
      <trkpt lat="43.14839" lon="-7.00156">
        <ele>959.4</ele>
        <time>2016-07-11T10:42:11Z</time>
      </trkpt>
      <trkpt lat="43.14842" lon="-7.00168">
        <ele>959.3</ele>
        <time>2016-07-11T10:42:24Z</time>
      </trkpt>
      <trkpt lat="43.14842" lon="-7.00182">
        <ele>959.4</ele>
        <time>2016-07-11T10:42:33Z</time>
      </trkpt>
      <trkpt lat="43.14844" lon="-7.00195">
        <ele>959.8</ele>
        <time>2016-07-11T10:42:42Z</time>
      </trkpt>
      <trkpt lat="43.14846" lon="-7.00208">
        <ele>959.7</ele>
        <time>2016-07-11T10:42:52Z</time>
      </trkpt>
      <trkpt lat="43.1485" lon="-7.0022">
        <ele>960.6</ele>
        <time>2016-07-11T10:43:05Z</time>
      </trkpt>
      <trkpt lat="43.14854" lon="-7.00232">
        <ele>960.4</ele>
        <time>2016-07-11T10:43:15Z</time>
      </trkpt>
      <trkpt lat="43.14859" lon="-7.00244">
        <ele>960.2</ele>
        <time>2016-07-11T10:43:24Z</time>
      </trkpt>
      <trkpt lat="43.14866" lon="-7.00252">
        <ele>960.4</ele>
        <time>2016-07-11T10:43:34Z</time>
      </trkpt>
      <trkpt lat="43.14873" lon="-7.00263">
        <ele>960.7</ele>
        <time>2016-07-11T10:43:44Z</time>
      </trkpt>
      <trkpt lat="43.14879" lon="-7.00272">
        <ele>960.9</ele>
        <time>2016-07-11T10:43:51Z</time>
      </trkpt>
      <trkpt lat="43.14886" lon="-7.00281">
        <ele>960.9</ele>
        <time>2016-07-11T10:43:59Z</time>
      </trkpt>
      <trkpt lat="43.14891" lon="-7.00292">
        <ele>961.2</ele>
        <time>2016-07-11T10:44:08Z</time>
      </trkpt>
      <trkpt lat="43.14894" lon="-7.00304">
        <ele>961.4</ele>
        <time>2016-07-11T10:44:16Z</time>
      </trkpt>
      <trkpt lat="43.14899" lon="-7.00315">
        <ele>961.4</ele>
        <time>2016-07-11T10:44:23Z</time>
      </trkpt>
      <trkpt lat="43.14903" lon="-7.00326">
        <ele>961.5</ele>
        <time>2016-07-11T10:44:30Z</time>
      </trkpt>
      <trkpt lat="43.14907" lon="-7.00339">
        <ele>961.4</ele>
        <time>2016-07-11T10:44:38Z</time>
      </trkpt>
      <trkpt lat="43.14911" lon="-7.00351">
        <ele>961.3</ele>
        <time>2016-07-11T10:44:53Z</time>
      </trkpt>
      <trkpt lat="43.14916" lon="-7.00363">
        <ele>961.2</ele>
        <time>2016-07-11T10:45:01Z</time>
      </trkpt>
      <trkpt lat="43.14921" lon="-7.00374">
        <ele>960.7</ele>
        <time>2016-07-11T10:45:15Z</time>
      </trkpt>
      <trkpt lat="43.14925" lon="-7.00387">
        <ele>960.6</ele>
        <time>2016-07-11T10:45:29Z</time>
      </trkpt>
      <trkpt lat="43.14929" lon="-7.00399">
        <ele>960.7</ele>
        <time>2016-07-11T10:45:38Z</time>
      </trkpt>
      <trkpt lat="43.14933" lon="-7.00412">
        <ele>960.8</ele>
        <time>2016-07-11T10:45:46Z</time>
      </trkpt>
      <trkpt lat="43.14938" lon="-7.00423">
        <ele>960.8</ele>
        <time>2016-07-11T10:45:53Z</time>
      </trkpt>
      <trkpt lat="43.14943" lon="-7.00434">
        <ele>960.8</ele>
        <time>2016-07-11T10:46:00Z</time>
      </trkpt>
      <trkpt lat="43.14948" lon="-7.00445">
        <ele>960.4</ele>
        <time>2016-07-11T10:46:08Z</time>
      </trkpt>
      <trkpt lat="43.14951" lon="-7.00457">
        <ele>960.3</ele>
        <time>2016-07-11T10:46:15Z</time>
      </trkpt>
      <trkpt lat="43.14952" lon="-7.00471">
        <ele>960.2</ele>
        <time>2016-07-11T10:46:23Z</time>
      </trkpt>
      <trkpt lat="43.14952" lon="-7.00484">
        <ele>960.3</ele>
        <time>2016-07-11T10:46:31Z</time>
      </trkpt>
      <trkpt lat="43.14951" lon="-7.00498">
        <ele>960.4</ele>
        <time>2016-07-11T10:46:39Z</time>
      </trkpt>
      <trkpt lat="43.1495" lon="-7.00511">
        <ele>960.5</ele>
        <time>2016-07-11T10:46:47Z</time>
      </trkpt>
      <trkpt lat="43.14949" lon="-7.00525">
        <ele>961.3</ele>
        <time>2016-07-11T10:47:01Z</time>
      </trkpt>
      <trkpt lat="43.14949" lon="-7.00538">
        <ele>961.8</ele>
        <time>2016-07-11T10:47:11Z</time>
      </trkpt>
      <trkpt lat="43.14948" lon="-7.0055">
        <ele>962</ele>
        <time>2016-07-11T10:47:20Z</time>
      </trkpt>
      <trkpt lat="43.14946" lon="-7.00563">
        <ele>963.5</ele>
        <time>2016-07-11T10:47:46Z</time>
      </trkpt>
      <trkpt lat="43.14945" lon="-7.00576">
        <ele>963.6</ele>
        <time>2016-07-11T10:47:56Z</time>
      </trkpt>
      <trkpt lat="43.14944" lon="-7.00589">
        <ele>963.9</ele>
        <time>2016-07-11T10:48:13Z</time>
      </trkpt>
      <trkpt lat="43.1494" lon="-7.00601">
        <ele>963.8</ele>
        <time>2016-07-11T10:48:22Z</time>
      </trkpt>
      <trkpt lat="43.14935" lon="-7.00613">
        <ele>963.7</ele>
        <time>2016-07-11T10:48:30Z</time>
      </trkpt>
      <trkpt lat="43.14932" lon="-7.00625">
        <ele>963.8</ele>
        <time>2016-07-11T10:48:38Z</time>
      </trkpt>
      <trkpt lat="43.14927" lon="-7.00637">
        <ele>963.7</ele>
        <time>2016-07-11T10:48:46Z</time>
      </trkpt>
      <trkpt lat="43.14923" lon="-7.00649">
        <ele>963.7</ele>
        <time>2016-07-11T10:48:54Z</time>
      </trkpt>
      <trkpt lat="43.14919" lon="-7.00661">
        <ele>963.8</ele>
        <time>2016-07-11T10:49:02Z</time>
      </trkpt>
      <trkpt lat="43.14915" lon="-7.00673">
        <ele>963.9</ele>
        <time>2016-07-11T10:49:10Z</time>
      </trkpt>
      <trkpt lat="43.1491" lon="-7.00684">
        <ele>964.2</ele>
        <time>2016-07-11T10:49:19Z</time>
      </trkpt>
      <trkpt lat="43.14905" lon="-7.00696">
        <ele>964.3</ele>
        <time>2016-07-11T10:49:28Z</time>
      </trkpt>
      <trkpt lat="43.149" lon="-7.00707">
        <ele>964.4</ele>
        <time>2016-07-11T10:49:36Z</time>
      </trkpt>
      <trkpt lat="43.14894" lon="-7.00717">
        <ele>964.4</ele>
        <time>2016-07-11T10:49:45Z</time>
      </trkpt>
      <trkpt lat="43.14887" lon="-7.00725">
        <ele>964.5</ele>
        <time>2016-07-11T10:49:55Z</time>
      </trkpt>
      <trkpt lat="43.14879" lon="-7.00732">
        <ele>965.4</ele>
        <time>2016-07-11T10:50:54Z</time>
      </trkpt>
      <trkpt lat="43.14873" lon="-7.00742">
        <ele>965.1</ele>
        <time>2016-07-11T10:52:05Z</time>
      </trkpt>
      <trkpt lat="43.14867" lon="-7.00751">
        <ele>965.4</ele>
        <time>2016-07-11T10:52:16Z</time>
      </trkpt>
      <trkpt lat="43.14859" lon="-7.0076">
        <ele>965.4</ele>
        <time>2016-07-11T10:52:26Z</time>
      </trkpt>
      <trkpt lat="43.14854" lon="-7.0077">
        <ele>965.5</ele>
        <time>2016-07-11T10:52:34Z</time>
      </trkpt>
      <trkpt lat="43.14848" lon="-7.00781">
        <ele>965.8</ele>
        <time>2016-07-11T10:52:43Z</time>
      </trkpt>
      <trkpt lat="43.14842" lon="-7.00792">
        <ele>966.1</ele>
        <time>2016-07-11T10:52:52Z</time>
      </trkpt>
      <trkpt lat="43.14835" lon="-7.00801">
        <ele>966.6</ele>
        <time>2016-07-11T10:53:00Z</time>
      </trkpt>
      <trkpt lat="43.14829" lon="-7.00812">
        <ele>967.1</ele>
        <time>2016-07-11T10:53:09Z</time>
      </trkpt>
      <trkpt lat="43.14823" lon="-7.00823">
        <ele>967.3</ele>
        <time>2016-07-11T10:53:17Z</time>
      </trkpt>
      <trkpt lat="43.14816" lon="-7.00831">
        <ele>967.8</ele>
        <time>2016-07-11T10:53:25Z</time>
      </trkpt>
      <trkpt lat="43.14808" lon="-7.00838">
        <ele>968.2</ele>
        <time>2016-07-11T10:53:33Z</time>
      </trkpt>
      <trkpt lat="43.148" lon="-7.00846">
        <ele>968.4</ele>
        <time>2016-07-11T10:53:40Z</time>
      </trkpt>
      <trkpt lat="43.14792" lon="-7.00852">
        <ele>968.6</ele>
        <time>2016-07-11T10:53:47Z</time>
      </trkpt>
      <trkpt lat="43.14783" lon="-7.00859">
        <ele>969.1</ele>
        <time>2016-07-11T10:53:54Z</time>
      </trkpt>
      <trkpt lat="43.14775" lon="-7.00865">
        <ele>969.4</ele>
        <time>2016-07-11T10:54:01Z</time>
      </trkpt>
      <trkpt lat="43.14767" lon="-7.00873">
        <ele>969.5</ele>
        <time>2016-07-11T10:54:09Z</time>
      </trkpt>
      <trkpt lat="43.14759" lon="-7.00881">
        <ele>969.6</ele>
        <time>2016-07-11T10:54:16Z</time>
      </trkpt>
      <trkpt lat="43.14752" lon="-7.00889">
        <ele>969.7</ele>
        <time>2016-07-11T10:54:23Z</time>
      </trkpt>
      <trkpt lat="43.14745" lon="-7.00898">
        <ele>969.8</ele>
        <time>2016-07-11T10:54:30Z</time>
      </trkpt>
      <trkpt lat="43.14738" lon="-7.00906">
        <ele>969.9</ele>
        <time>2016-07-11T10:54:37Z</time>
      </trkpt>
      <trkpt lat="43.1473" lon="-7.00915">
        <ele>970.3</ele>
        <time>2016-07-11T10:54:45Z</time>
      </trkpt>
      <trkpt lat="43.14723" lon="-7.00923">
        <ele>970.9</ele>
        <time>2016-07-11T10:54:53Z</time>
      </trkpt>
      <trkpt lat="43.14716" lon="-7.00932">
        <ele>971.2</ele>
        <time>2016-07-11T10:55:01Z</time>
      </trkpt>
      <trkpt lat="43.14711" lon="-7.00943">
        <ele>971.5</ele>
        <time>2016-07-11T10:55:10Z</time>
      </trkpt>
      <trkpt lat="43.14707" lon="-7.00956">
        <ele>972.3</ele>
        <time>2016-07-11T10:55:19Z</time>
      </trkpt>
      <trkpt lat="43.14704" lon="-7.00968">
        <ele>973.1</ele>
        <time>2016-07-11T10:55:27Z</time>
      </trkpt>
      <trkpt lat="43.14701" lon="-7.00981">
        <ele>973.9</ele>
        <time>2016-07-11T10:55:36Z</time>
      </trkpt>
      <trkpt lat="43.14698" lon="-7.00993">
        <ele>974.3</ele>
        <time>2016-07-11T10:55:45Z</time>
      </trkpt>
      <trkpt lat="43.14693" lon="-7.01004">
        <ele>974.5</ele>
        <time>2016-07-11T10:55:54Z</time>
      </trkpt>
      <trkpt lat="43.14687" lon="-7.01015">
        <ele>974.8</ele>
        <time>2016-07-11T10:56:03Z</time>
      </trkpt>
      <trkpt lat="43.14683" lon="-7.01026">
        <ele>975.1</ele>
        <time>2016-07-11T10:56:11Z</time>
      </trkpt>
      <trkpt lat="43.14677" lon="-7.01037">
        <ele>975.3</ele>
        <time>2016-07-11T10:56:20Z</time>
      </trkpt>
      <trkpt lat="43.14673" lon="-7.01048">
        <ele>975.2</ele>
        <time>2016-07-11T10:56:29Z</time>
      </trkpt>
      <trkpt lat="43.14668" lon="-7.0106">
        <ele>975.4</ele>
        <time>2016-07-11T10:56:37Z</time>
      </trkpt>
      <trkpt lat="43.14664" lon="-7.01072">
        <ele>975</ele>
        <time>2016-07-11T10:56:46Z</time>
      </trkpt>
      <trkpt lat="43.14661" lon="-7.01084">
        <ele>974.8</ele>
        <time>2016-07-11T10:56:54Z</time>
      </trkpt>
      <trkpt lat="43.14658" lon="-7.01097">
        <ele>974.7</ele>
        <time>2016-07-11T10:57:02Z</time>
      </trkpt>
      <trkpt lat="43.14655" lon="-7.0111">
        <ele>974.6</ele>
        <time>2016-07-11T10:57:09Z</time>
      </trkpt>
      <trkpt lat="43.14652" lon="-7.01123">
        <ele>974.9</ele>
        <time>2016-07-11T10:57:17Z</time>
      </trkpt>
      <trkpt lat="43.14651" lon="-7.01136">
        <ele>975.1</ele>
        <time>2016-07-11T10:57:25Z</time>
      </trkpt>
      <trkpt lat="43.1465" lon="-7.0115">
        <ele>975.2</ele>
        <time>2016-07-11T10:57:34Z</time>
      </trkpt>
      <trkpt lat="43.14648" lon="-7.01163">
        <ele>975.4</ele>
        <time>2016-07-11T10:57:42Z</time>
      </trkpt>
      <trkpt lat="43.14647" lon="-7.01176">
        <ele>975.5</ele>
        <time>2016-07-11T10:57:49Z</time>
      </trkpt>
      <trkpt lat="43.14647" lon="-7.01189">
        <ele>975.6</ele>
        <time>2016-07-11T10:57:57Z</time>
      </trkpt>
      <trkpt lat="43.14648" lon="-7.01203">
        <ele>975.7</ele>
        <time>2016-07-11T10:58:06Z</time>
      </trkpt>
      <trkpt lat="43.14649" lon="-7.01215">
        <ele>976</ele>
        <time>2016-07-11T10:58:14Z</time>
      </trkpt>
      <trkpt lat="43.14652" lon="-7.01228">
        <ele>976.3</ele>
        <time>2016-07-11T10:58:24Z</time>
      </trkpt>
      <trkpt lat="43.14656" lon="-7.01241">
        <ele>976.3</ele>
        <time>2016-07-11T10:58:32Z</time>
      </trkpt>
      <trkpt lat="43.14659" lon="-7.01254">
        <ele>976.3</ele>
        <time>2016-07-11T10:58:40Z</time>
      </trkpt>
      <trkpt lat="43.14663" lon="-7.01265">
        <ele>976.3</ele>
        <time>2016-07-11T10:58:49Z</time>
      </trkpt>
      <trkpt lat="43.14668" lon="-7.01277">
        <ele>976.1</ele>
        <time>2016-07-11T10:58:58Z</time>
      </trkpt>
      <trkpt lat="43.14672" lon="-7.01289">
        <ele>975.8</ele>
        <time>2016-07-11T10:59:07Z</time>
      </trkpt>
      <trkpt lat="43.14676" lon="-7.01302">
        <ele>975</ele>
        <time>2016-07-11T10:59:15Z</time>
      </trkpt>
      <trkpt lat="43.1468" lon="-7.01314">
        <ele>973.8</ele>
        <time>2016-07-11T10:59:23Z</time>
      </trkpt>
      <trkpt lat="43.14685" lon="-7.01325">
        <ele>972.6</ele>
        <time>2016-07-11T10:59:30Z</time>
      </trkpt>
      <trkpt lat="43.14691" lon="-7.01334">
        <ele>971.8</ele>
        <time>2016-07-11T10:59:37Z</time>
      </trkpt>
      <trkpt lat="43.14698" lon="-7.01344">
        <ele>970.4</ele>
        <time>2016-07-11T10:59:45Z</time>
      </trkpt>
      <trkpt lat="43.14705" lon="-7.01354">
        <ele>968.5</ele>
        <time>2016-07-11T10:59:53Z</time>
      </trkpt>
      <trkpt lat="43.14713" lon="-7.01363">
        <ele>966.4</ele>
        <time>2016-07-11T11:00:02Z</time>
      </trkpt>
      <trkpt lat="43.14718" lon="-7.01373">
        <ele>964.6</ele>
        <time>2016-07-11T11:00:11Z</time>
      </trkpt>
      <trkpt lat="43.14726" lon="-7.01382">
        <ele>963</ele>
        <time>2016-07-11T11:00:19Z</time>
      </trkpt>
      <trkpt lat="43.14733" lon="-7.01392">
        <ele>961.5</ele>
        <time>2016-07-11T11:00:28Z</time>
      </trkpt>
      <trkpt lat="43.14739" lon="-7.01403">
        <ele>960.4</ele>
        <time>2016-07-11T11:00:36Z</time>
      </trkpt>
      <trkpt lat="43.14746" lon="-7.01412">
        <ele>959.2</ele>
        <time>2016-07-11T11:00:43Z</time>
      </trkpt>
      <trkpt lat="43.14752" lon="-7.01422">
        <ele>958.2</ele>
        <time>2016-07-11T11:00:50Z</time>
      </trkpt>
      <trkpt lat="43.14758" lon="-7.01432">
        <ele>957.2</ele>
        <time>2016-07-11T11:00:57Z</time>
      </trkpt>
      <trkpt lat="43.14765" lon="-7.01442">
        <ele>956.4</ele>
        <time>2016-07-11T11:01:04Z</time>
      </trkpt>
      <trkpt lat="43.14771" lon="-7.01452">
        <ele>955.7</ele>
        <time>2016-07-11T11:01:11Z</time>
      </trkpt>
      <trkpt lat="43.14777" lon="-7.01463">
        <ele>954.7</ele>
        <time>2016-07-11T11:01:18Z</time>
      </trkpt>
      <trkpt lat="43.14784" lon="-7.01472">
        <ele>953.8</ele>
        <time>2016-07-11T11:01:25Z</time>
      </trkpt>
      <trkpt lat="43.14789" lon="-7.01482">
        <ele>953</ele>
        <time>2016-07-11T11:01:32Z</time>
      </trkpt>
      <trkpt lat="43.14794" lon="-7.01493">
        <ele>952.1</ele>
        <time>2016-07-11T11:01:40Z</time>
      </trkpt>
      <trkpt lat="43.14798" lon="-7.01505">
        <ele>951.2</ele>
        <time>2016-07-11T11:01:48Z</time>
      </trkpt>
      <trkpt lat="43.14801" lon="-7.01517">
        <ele>950.4</ele>
        <time>2016-07-11T11:01:56Z</time>
      </trkpt>
      <trkpt lat="43.14805" lon="-7.01529">
        <ele>949.3</ele>
        <time>2016-07-11T11:02:05Z</time>
      </trkpt>
      <trkpt lat="43.14808" lon="-7.01542">
        <ele>948.3</ele>
        <time>2016-07-11T11:02:14Z</time>
      </trkpt>
      <trkpt lat="43.14812" lon="-7.01553">
        <ele>947.5</ele>
        <time>2016-07-11T11:02:22Z</time>
      </trkpt>
      <trkpt lat="43.14818" lon="-7.01564">
        <ele>946.7</ele>
        <time>2016-07-11T11:02:30Z</time>
      </trkpt>
      <trkpt lat="43.14823" lon="-7.01575">
        <ele>946.1</ele>
        <time>2016-07-11T11:02:38Z</time>
      </trkpt>
      <trkpt lat="43.14829" lon="-7.01586">
        <ele>945.3</ele>
        <time>2016-07-11T11:02:46Z</time>
      </trkpt>
      <trkpt lat="43.14834" lon="-7.01597">
        <ele>944.5</ele>
        <time>2016-07-11T11:02:53Z</time>
      </trkpt>
      <trkpt lat="43.14839" lon="-7.01607">
        <ele>944</ele>
        <time>2016-07-11T11:03:00Z</time>
      </trkpt>
      <trkpt lat="43.14845" lon="-7.01618">
        <ele>943.5</ele>
        <time>2016-07-11T11:03:08Z</time>
      </trkpt>
      <trkpt lat="43.14851" lon="-7.01629">
        <ele>943.1</ele>
        <time>2016-07-11T11:03:16Z</time>
      </trkpt>
      <trkpt lat="43.14857" lon="-7.01641">
        <ele>942.5</ele>
        <time>2016-07-11T11:03:24Z</time>
      </trkpt>
      <trkpt lat="43.14862" lon="-7.01651">
        <ele>942.2</ele>
        <time>2016-07-11T11:03:31Z</time>
      </trkpt>
      <trkpt lat="43.14867" lon="-7.01662">
        <ele>941.6</ele>
        <time>2016-07-11T11:03:39Z</time>
      </trkpt>
      <trkpt lat="43.14873" lon="-7.01672">
        <ele>941.1</ele>
        <time>2016-07-11T11:03:46Z</time>
      </trkpt>
      <trkpt lat="43.14879" lon="-7.01682">
        <ele>940.7</ele>
        <time>2016-07-11T11:03:54Z</time>
      </trkpt>
      <trkpt lat="43.14884" lon="-7.01692">
        <ele>940.2</ele>
        <time>2016-07-11T11:04:01Z</time>
      </trkpt>
      <trkpt lat="43.1489" lon="-7.01704">
        <ele>939.5</ele>
        <time>2016-07-11T11:04:09Z</time>
      </trkpt>
      <trkpt lat="43.14895" lon="-7.01715">
        <ele>938.9</ele>
        <time>2016-07-11T11:04:16Z</time>
      </trkpt>
      <trkpt lat="43.149" lon="-7.01726">
        <ele>938.6</ele>
        <time>2016-07-11T11:04:23Z</time>
      </trkpt>
      <trkpt lat="43.14904" lon="-7.01738">
        <ele>938.2</ele>
        <time>2016-07-11T11:04:31Z</time>
      </trkpt>
      <trkpt lat="43.14904" lon="-7.01752">
        <ele>937.7</ele>
        <time>2016-07-11T11:04:39Z</time>
      </trkpt>
      <trkpt lat="43.14899" lon="-7.01762">
        <ele>937.4</ele>
        <time>2016-07-11T11:04:46Z</time>
      </trkpt>
      <trkpt lat="43.14894" lon="-7.01774">
        <ele>936.9</ele>
        <time>2016-07-11T11:04:53Z</time>
      </trkpt>
      <trkpt lat="43.14889" lon="-7.01784">
        <ele>936.6</ele>
        <time>2016-07-11T11:05:00Z</time>
      </trkpt>
      <trkpt lat="43.14883" lon="-7.01794">
        <ele>936.5</ele>
        <time>2016-07-11T11:05:07Z</time>
      </trkpt>
      <trkpt lat="43.14879" lon="-7.01805">
        <ele>936.4</ele>
        <time>2016-07-11T11:05:14Z</time>
      </trkpt>
      <trkpt lat="43.14874" lon="-7.01816">
        <ele>936.2</ele>
        <time>2016-07-11T11:05:21Z</time>
      </trkpt>
      <trkpt lat="43.14872" lon="-7.01829">
        <ele>936.1</ele>
        <time>2016-07-11T11:05:28Z</time>
      </trkpt>
      <trkpt lat="43.14877" lon="-7.01841">
        <ele>935.8</ele>
        <time>2016-07-11T11:05:36Z</time>
      </trkpt>
      <trkpt lat="43.14881" lon="-7.01852">
        <ele>935.7</ele>
        <time>2016-07-11T11:05:43Z</time>
      </trkpt>
      <trkpt lat="43.14881" lon="-7.01865">
        <ele>935.6</ele>
        <time>2016-07-11T11:05:51Z</time>
      </trkpt>
      <trkpt lat="43.14876" lon="-7.01876">
        <ele>935.5</ele>
        <time>2016-07-11T11:05:59Z</time>
      </trkpt>
      <trkpt lat="43.14872" lon="-7.01889">
        <ele>935.4</ele>
        <time>2016-07-11T11:06:08Z</time>
      </trkpt>
      <trkpt lat="43.14868" lon="-7.01901">
        <ele>935.5</ele>
        <time>2016-07-11T11:06:15Z</time>
      </trkpt>
      <trkpt lat="43.14864" lon="-7.01913">
        <ele>935.8</ele>
        <time>2016-07-11T11:06:23Z</time>
      </trkpt>
      <trkpt lat="43.1486" lon="-7.01924">
        <ele>936.3</ele>
        <time>2016-07-11T11:06:30Z</time>
      </trkpt>
      <trkpt lat="43.14855" lon="-7.01936">
        <ele>936.7</ele>
        <time>2016-07-11T11:06:38Z</time>
      </trkpt>
      <trkpt lat="43.14849" lon="-7.01947">
        <ele>936.9</ele>
        <time>2016-07-11T11:06:46Z</time>
      </trkpt>
      <trkpt lat="43.14844" lon="-7.0196">
        <ele>937</ele>
        <time>2016-07-11T11:06:54Z</time>
      </trkpt>
      <trkpt lat="43.1484" lon="-7.01972">
        <ele>937.1</ele>
        <time>2016-07-11T11:07:02Z</time>
      </trkpt>
      <trkpt lat="43.14836" lon="-7.01985">
        <ele>937.1</ele>
        <time>2016-07-11T11:07:10Z</time>
      </trkpt>
      <trkpt lat="43.14832" lon="-7.01997">
        <ele>937</ele>
        <time>2016-07-11T11:07:18Z</time>
      </trkpt>
      <trkpt lat="43.14828" lon="-7.02007">
        <ele>936.9</ele>
        <time>2016-07-11T11:07:25Z</time>
      </trkpt>
      <trkpt lat="43.14825" lon="-7.02019">
        <ele>936.8</ele>
        <time>2016-07-11T11:07:32Z</time>
      </trkpt>
      <trkpt lat="43.14821" lon="-7.02032">
        <ele>936.5</ele>
        <time>2016-07-11T11:07:40Z</time>
      </trkpt>
      <trkpt lat="43.14818" lon="-7.02045">
        <ele>936.2</ele>
        <time>2016-07-11T11:07:48Z</time>
      </trkpt>
      <trkpt lat="43.14814" lon="-7.02056">
        <ele>935.9</ele>
        <time>2016-07-11T11:07:56Z</time>
      </trkpt>
      <trkpt lat="43.14811" lon="-7.02069">
        <ele>936.1</ele>
        <time>2016-07-11T11:08:04Z</time>
      </trkpt>
      <trkpt lat="43.14807" lon="-7.0208">
        <ele>936.6</ele>
        <time>2016-07-11T11:08:12Z</time>
      </trkpt>
      <trkpt lat="43.14803" lon="-7.02093">
        <ele>936.9</ele>
        <time>2016-07-11T11:08:20Z</time>
      </trkpt>
      <trkpt lat="43.14799" lon="-7.02104">
        <ele>937.1</ele>
        <time>2016-07-11T11:08:28Z</time>
      </trkpt>
      <trkpt lat="43.14795" lon="-7.02116">
        <ele>937.4</ele>
        <time>2016-07-11T11:08:36Z</time>
      </trkpt>
      <trkpt lat="43.14789" lon="-7.02127">
        <ele>937.5</ele>
        <time>2016-07-11T11:08:44Z</time>
      </trkpt>
      <trkpt lat="43.14784" lon="-7.02137">
        <ele>937.5</ele>
        <time>2016-07-11T11:08:52Z</time>
      </trkpt>
      <trkpt lat="43.14778" lon="-7.02147">
        <ele>937.3</ele>
        <time>2016-07-11T11:09:00Z</time>
      </trkpt>
      <trkpt lat="43.14771" lon="-7.02157">
        <ele>937.3</ele>
        <time>2016-07-11T11:09:07Z</time>
      </trkpt>
      <trkpt lat="43.14765" lon="-7.02167">
        <ele>937.6</ele>
        <time>2016-07-11T11:09:15Z</time>
      </trkpt>
      <trkpt lat="43.14758" lon="-7.02175">
        <ele>937.7</ele>
        <time>2016-07-11T11:09:23Z</time>
      </trkpt>
      <trkpt lat="43.14749" lon="-7.0218">
        <ele>937.6</ele>
        <time>2016-07-11T11:09:31Z</time>
      </trkpt>
      <trkpt lat="43.14746" lon="-7.02192">
        <ele>932.4</ele>
        <time>2016-07-11T11:10:42Z</time>
      </trkpt>
      <trkpt lat="43.14741" lon="-7.02203">
        <ele>932.1</ele>
        <time>2016-07-11T11:10:50Z</time>
      </trkpt>
      <trkpt lat="43.14737" lon="-7.02216">
        <ele>932.1</ele>
        <time>2016-07-11T11:10:57Z</time>
      </trkpt>
      <trkpt lat="43.14735" lon="-7.02229">
        <ele>931.7</ele>
        <time>2016-07-11T11:11:05Z</time>
      </trkpt>
      <trkpt lat="43.14733" lon="-7.02242">
        <ele>931.6</ele>
        <time>2016-07-11T11:11:12Z</time>
      </trkpt>
      <trkpt lat="43.1473" lon="-7.02255">
        <ele>931.5</ele>
        <time>2016-07-11T11:11:19Z</time>
      </trkpt>
      <trkpt lat="43.14727" lon="-7.02268">
        <ele>931</ele>
        <time>2016-07-11T11:11:27Z</time>
      </trkpt>
      <trkpt lat="43.14724" lon="-7.02281">
        <ele>930.9</ele>
        <time>2016-07-11T11:11:35Z</time>
      </trkpt>
      <trkpt lat="43.14722" lon="-7.02293">
        <ele>930.8</ele>
        <time>2016-07-11T11:11:42Z</time>
      </trkpt>
      <trkpt lat="43.14722" lon="-7.02306">
        <ele>930.7</ele>
        <time>2016-07-11T11:11:50Z</time>
      </trkpt>
      <trkpt lat="43.14722" lon="-7.0232">
        <ele>930.7</ele>
        <time>2016-07-11T11:11:58Z</time>
      </trkpt>
      <trkpt lat="43.14717" lon="-7.02332">
        <ele>930.3</ele>
        <time>2016-07-11T11:12:06Z</time>
      </trkpt>
      <trkpt lat="43.14711" lon="-7.02343">
        <ele>929.8</ele>
        <time>2016-07-11T11:12:13Z</time>
      </trkpt>
      <trkpt lat="43.14706" lon="-7.02355">
        <ele>929.5</ele>
        <time>2016-07-11T11:12:20Z</time>
      </trkpt>
      <trkpt lat="43.14702" lon="-7.02367">
        <ele>929.3</ele>
        <time>2016-07-11T11:12:27Z</time>
      </trkpt>
      <trkpt lat="43.14698" lon="-7.02379">
        <ele>929.4</ele>
        <time>2016-07-11T11:12:34Z</time>
      </trkpt>
      <trkpt lat="43.14695" lon="-7.02392">
        <ele>929.3</ele>
        <time>2016-07-11T11:12:41Z</time>
      </trkpt>
      <trkpt lat="43.14691" lon="-7.02404">
        <ele>928.8</ele>
        <time>2016-07-11T11:12:50Z</time>
      </trkpt>
      <trkpt lat="43.14689" lon="-7.02417">
        <ele>928.7</ele>
        <time>2016-07-11T11:12:58Z</time>
      </trkpt>
      <trkpt lat="43.14686" lon="-7.0243">
        <ele>928.8</ele>
        <time>2016-07-11T11:13:06Z</time>
      </trkpt>
      <trkpt lat="43.14683" lon="-7.02441">
        <ele>928.8</ele>
        <time>2016-07-11T11:13:13Z</time>
      </trkpt>
      <trkpt lat="43.14679" lon="-7.02454">
        <ele>928.9</ele>
        <time>2016-07-11T11:13:20Z</time>
      </trkpt>
      <trkpt lat="43.14675" lon="-7.02466">
        <ele>928.9</ele>
        <time>2016-07-11T11:13:27Z</time>
      </trkpt>
      <trkpt lat="43.14671" lon="-7.02479">
        <ele>928.7</ele>
        <time>2016-07-11T11:13:35Z</time>
      </trkpt>
      <trkpt lat="43.14669" lon="-7.02491">
        <ele>928.5</ele>
        <time>2016-07-11T11:13:42Z</time>
      </trkpt>
      <trkpt lat="43.14667" lon="-7.02504">
        <ele>928.4</ele>
        <time>2016-07-11T11:13:50Z</time>
      </trkpt>
      <trkpt lat="43.14664" lon="-7.02517">
        <ele>928.2</ele>
        <time>2016-07-11T11:13:58Z</time>
      </trkpt>
      <trkpt lat="43.14661" lon="-7.0253">
        <ele>927.6</ele>
        <time>2016-07-11T11:14:06Z</time>
      </trkpt>
      <trkpt lat="43.14658" lon="-7.02542">
        <ele>927</ele>
        <time>2016-07-11T11:14:14Z</time>
      </trkpt>
      <trkpt lat="43.14655" lon="-7.02554">
        <ele>926.3</ele>
        <time>2016-07-11T11:14:21Z</time>
      </trkpt>
      <trkpt lat="43.14651" lon="-7.02567">
        <ele>925.5</ele>
        <time>2016-07-11T11:14:28Z</time>
      </trkpt>
      <trkpt lat="43.14647" lon="-7.02579">
        <ele>924.6</ele>
        <time>2016-07-11T11:14:35Z</time>
      </trkpt>
      <trkpt lat="43.14643" lon="-7.0259">
        <ele>922.5</ele>
        <time>2016-07-11T11:15:04Z</time>
      </trkpt>
      <trkpt lat="43.14638" lon="-7.02601">
        <ele>922</ele>
        <time>2016-07-11T11:15:13Z</time>
      </trkpt>
      <trkpt lat="43.14633" lon="-7.02613">
        <ele>921.3</ele>
        <time>2016-07-11T11:15:21Z</time>
      </trkpt>
      <trkpt lat="43.1463" lon="-7.02624">
        <ele>920.4</ele>
        <time>2016-07-11T11:15:30Z</time>
      </trkpt>
      <trkpt lat="43.14627" lon="-7.02637">
        <ele>919.5</ele>
        <time>2016-07-11T11:15:39Z</time>
      </trkpt>
      <trkpt lat="43.14624" lon="-7.02649">
        <ele>918.7</ele>
        <time>2016-07-11T11:15:47Z</time>
      </trkpt>
      <trkpt lat="43.14621" lon="-7.02662">
        <ele>918</ele>
        <time>2016-07-11T11:15:55Z</time>
      </trkpt>
      <trkpt lat="43.14617" lon="-7.02674">
        <ele>916.8</ele>
        <time>2016-07-11T11:16:03Z</time>
      </trkpt>
      <trkpt lat="43.14613" lon="-7.02687">
        <ele>915.7</ele>
        <time>2016-07-11T11:16:11Z</time>
      </trkpt>
      <trkpt lat="43.1461" lon="-7.02699">
        <ele>914.5</ele>
        <time>2016-07-11T11:16:18Z</time>
      </trkpt>
      <trkpt lat="43.14605" lon="-7.02711">
        <ele>913.8</ele>
        <time>2016-07-11T11:16:25Z</time>
      </trkpt>
      <trkpt lat="43.146" lon="-7.02723">
        <ele>912.9</ele>
        <time>2016-07-11T11:16:32Z</time>
      </trkpt>
      <trkpt lat="43.14596" lon="-7.02736">
        <ele>912.2</ele>
        <time>2016-07-11T11:16:39Z</time>
      </trkpt>
      <trkpt lat="43.14592" lon="-7.02748">
        <ele>911.6</ele>
        <time>2016-07-11T11:16:46Z</time>
      </trkpt>
      <trkpt lat="43.14587" lon="-7.0276">
        <ele>911</ele>
        <time>2016-07-11T11:16:53Z</time>
      </trkpt>
      <trkpt lat="43.14581" lon="-7.0277">
        <ele>910.3</ele>
        <time>2016-07-11T11:17:00Z</time>
      </trkpt>
      <trkpt lat="43.14575" lon="-7.02779">
        <ele>909.6</ele>
        <time>2016-07-11T11:17:07Z</time>
      </trkpt>
      <trkpt lat="43.14568" lon="-7.02787">
        <ele>909.1</ele>
        <time>2016-07-11T11:17:14Z</time>
      </trkpt>
      <trkpt lat="43.1456" lon="-7.02794">
        <ele>908.4</ele>
        <time>2016-07-11T11:17:21Z</time>
      </trkpt>
      <trkpt lat="43.14554" lon="-7.02804">
        <ele>907.7</ele>
        <time>2016-07-11T11:17:29Z</time>
      </trkpt>
      <trkpt lat="43.14547" lon="-7.02812">
        <ele>907.3</ele>
        <time>2016-07-11T11:17:36Z</time>
      </trkpt>
      <trkpt lat="43.14539" lon="-7.0282">
        <ele>907.1</ele>
        <time>2016-07-11T11:17:43Z</time>
      </trkpt>
      <trkpt lat="43.14531" lon="-7.02827">
        <ele>906.7</ele>
        <time>2016-07-11T11:17:51Z</time>
      </trkpt>
      <trkpt lat="43.14522" lon="-7.02834">
        <ele>906.2</ele>
        <time>2016-07-11T11:17:59Z</time>
      </trkpt>
      <trkpt lat="43.14513" lon="-7.02838">
        <ele>905.9</ele>
        <time>2016-07-11T11:18:08Z</time>
      </trkpt>
      <trkpt lat="43.14504" lon="-7.02842">
        <ele>905.7</ele>
        <time>2016-07-11T11:18:16Z</time>
      </trkpt>
      <trkpt lat="43.14496" lon="-7.0285">
        <ele>905.3</ele>
        <time>2016-07-11T11:18:24Z</time>
      </trkpt>
      <trkpt lat="43.14488" lon="-7.02856">
        <ele>905.1</ele>
        <time>2016-07-11T11:18:31Z</time>
      </trkpt>
      <trkpt lat="43.14479" lon="-7.02859">
        <ele>904.7</ele>
        <time>2016-07-11T11:18:38Z</time>
      </trkpt>
      <trkpt lat="43.14469" lon="-7.02859">
        <ele>903.7</ele>
        <time>2016-07-11T11:18:49Z</time>
      </trkpt>
      <trkpt lat="43.1446" lon="-7.02864">
        <ele>902.8</ele>
        <time>2016-07-11T11:18:56Z</time>
      </trkpt>
      <trkpt lat="43.14451" lon="-7.02871">
        <ele>902</ele>
        <time>2016-07-11T11:19:04Z</time>
      </trkpt>
      <trkpt lat="43.14444" lon="-7.02879">
        <ele>901.9</ele>
        <time>2016-07-11T11:19:11Z</time>
      </trkpt>
      <trkpt lat="43.14437" lon="-7.02887">
        <ele>901.7</ele>
        <time>2016-07-11T11:19:18Z</time>
      </trkpt>
      <trkpt lat="43.14429" lon="-7.02895">
        <ele>901.5</ele>
        <time>2016-07-11T11:19:32Z</time>
      </trkpt>
      <trkpt lat="43.14421" lon="-7.02904">
        <ele>901.2</ele>
        <time>2016-07-11T11:19:40Z</time>
      </trkpt>
      <trkpt lat="43.14415" lon="-7.02914">
        <ele>900.9</ele>
        <time>2016-07-11T11:19:48Z</time>
      </trkpt>
      <trkpt lat="43.14407" lon="-7.02921">
        <ele>900.7</ele>
        <time>2016-07-11T11:19:56Z</time>
      </trkpt>
      <trkpt lat="43.14399" lon="-7.02927">
        <ele>900.5</ele>
        <time>2016-07-11T11:20:04Z</time>
      </trkpt>
      <trkpt lat="43.1439" lon="-7.02932">
        <ele>900.1</ele>
        <time>2016-07-11T11:20:12Z</time>
      </trkpt>
      <trkpt lat="43.14382" lon="-7.02937">
        <ele>899.8</ele>
        <time>2016-07-11T11:20:21Z</time>
      </trkpt>
      <trkpt lat="43.14373" lon="-7.02942">
        <ele>899.6</ele>
        <time>2016-07-11T11:20:29Z</time>
      </trkpt>
      <trkpt lat="43.14365" lon="-7.02948">
        <ele>899</ele>
        <time>2016-07-11T11:20:38Z</time>
      </trkpt>
      <trkpt lat="43.14356" lon="-7.02953">
        <ele>897.9</ele>
        <time>2016-07-11T11:20:48Z</time>
      </trkpt>
      <trkpt lat="43.14347" lon="-7.02958">
        <ele>896.6</ele>
        <time>2016-07-11T11:20:57Z</time>
      </trkpt>
      <trkpt lat="43.14338" lon="-7.02964">
        <ele>895</ele>
        <time>2016-07-11T11:21:06Z</time>
      </trkpt>
      <trkpt lat="43.14329" lon="-7.02971">
        <ele>893.1</ele>
        <time>2016-07-11T11:21:14Z</time>
      </trkpt>
      <trkpt lat="43.14321" lon="-7.02979">
        <ele>892</ele>
        <time>2016-07-11T11:21:22Z</time>
      </trkpt>
      <trkpt lat="43.14315" lon="-7.0299">
        <ele>887.7</ele>
        <time>2016-07-11T11:21:30Z</time>
      </trkpt>
      <trkpt lat="43.14309" lon="-7.03">
        <ele>887.5</ele>
        <time>2016-07-11T11:21:39Z</time>
      </trkpt>
      <trkpt lat="43.14303" lon="-7.0301">
        <ele>887.4</ele>
        <time>2016-07-11T11:21:47Z</time>
      </trkpt>
      <trkpt lat="43.14297" lon="-7.03021">
        <ele>887.1</ele>
        <time>2016-07-11T11:21:54Z</time>
      </trkpt>
      <trkpt lat="43.14291" lon="-7.03032">
        <ele>886.4</ele>
        <time>2016-07-11T11:22:02Z</time>
      </trkpt>
      <trkpt lat="43.14288" lon="-7.03044">
        <ele>885.6</ele>
        <time>2016-07-11T11:22:10Z</time>
      </trkpt>
      <trkpt lat="43.14285" lon="-7.03056">
        <ele>884.8</ele>
        <time>2016-07-11T11:22:18Z</time>
      </trkpt>
      <trkpt lat="43.14285" lon="-7.03069">
        <ele>884.4</ele>
        <time>2016-07-11T11:22:25Z</time>
      </trkpt>
      <trkpt lat="43.14286" lon="-7.03083">
        <ele>884</ele>
        <time>2016-07-11T11:22:33Z</time>
      </trkpt>
      <trkpt lat="43.14285" lon="-7.03096">
        <ele>883.5</ele>
        <time>2016-07-11T11:22:41Z</time>
      </trkpt>
      <trkpt lat="43.14284" lon="-7.03109">
        <ele>882.9</ele>
        <time>2016-07-11T11:22:48Z</time>
      </trkpt>
      <trkpt lat="43.14284" lon="-7.03123">
        <ele>882.4</ele>
        <time>2016-07-11T11:22:55Z</time>
      </trkpt>
      <trkpt lat="43.14285" lon="-7.03136">
        <ele>881.3</ele>
        <time>2016-07-11T11:23:02Z</time>
      </trkpt>
      <trkpt lat="43.14286" lon="-7.03149">
        <ele>880.7</ele>
        <time>2016-07-11T11:23:09Z</time>
      </trkpt>
      <trkpt lat="43.14287" lon="-7.03162">
        <ele>880.2</ele>
        <time>2016-07-11T11:23:16Z</time>
      </trkpt>
      <trkpt lat="43.14289" lon="-7.03175">
        <ele>879.9</ele>
        <time>2016-07-11T11:23:24Z</time>
      </trkpt>
      <trkpt lat="43.14291" lon="-7.03189">
        <ele>879.6</ele>
        <time>2016-07-11T11:23:32Z</time>
      </trkpt>
      <trkpt lat="43.14293" lon="-7.03201">
        <ele>879.2</ele>
        <time>2016-07-11T11:23:39Z</time>
      </trkpt>
      <trkpt lat="43.14296" lon="-7.03213">
        <ele>878.8</ele>
        <time>2016-07-11T11:23:46Z</time>
      </trkpt>
      <trkpt lat="43.14297" lon="-7.03226">
        <ele>878.4</ele>
        <time>2016-07-11T11:23:57Z</time>
      </trkpt>
      <trkpt lat="43.14288" lon="-7.03231">
        <ele>878.1</ele>
        <time>2016-07-11T11:24:13Z</time>
      </trkpt>
      <trkpt lat="43.14282" lon="-7.03241">
        <ele>877.9</ele>
        <time>2016-07-11T11:24:22Z</time>
      </trkpt>
      <trkpt lat="43.14284" lon="-7.03254">
        <ele>878.1</ele>
        <time>2016-07-11T11:24:30Z</time>
      </trkpt>
      <trkpt lat="43.14287" lon="-7.03267">
        <ele>877.9</ele>
        <time>2016-07-11T11:24:38Z</time>
      </trkpt>
      <trkpt lat="43.14287" lon="-7.03279">
        <ele>877.7</ele>
        <time>2016-07-11T11:24:45Z</time>
      </trkpt>
      <trkpt lat="43.14286" lon="-7.03291">
        <ele>877.5</ele>
        <time>2016-07-11T11:24:53Z</time>
      </trkpt>
      <trkpt lat="43.14286" lon="-7.03304">
        <ele>877.4</ele>
        <time>2016-07-11T11:25:01Z</time>
      </trkpt>
      <trkpt lat="43.14285" lon="-7.03317">
        <ele>877.4</ele>
        <time>2016-07-11T11:25:09Z</time>
      </trkpt>
      <trkpt lat="43.14285" lon="-7.0333">
        <ele>877.5</ele>
        <time>2016-07-11T11:25:17Z</time>
      </trkpt>
      <trkpt lat="43.14286" lon="-7.03343">
        <ele>877.8</ele>
        <time>2016-07-11T11:25:25Z</time>
      </trkpt>
      <trkpt lat="43.14286" lon="-7.03355">
        <ele>878</ele>
        <time>2016-07-11T11:25:33Z</time>
      </trkpt>
      <trkpt lat="43.14286" lon="-7.03368">
        <ele>878.2</ele>
        <time>2016-07-11T11:25:41Z</time>
      </trkpt>
      <trkpt lat="43.14285" lon="-7.03381">
        <ele>878.3</ele>
        <time>2016-07-11T11:25:49Z</time>
      </trkpt>
      <trkpt lat="43.14285" lon="-7.03395">
        <ele>878.5</ele>
        <time>2016-07-11T11:25:59Z</time>
      </trkpt>
      <trkpt lat="43.14285" lon="-7.03408">
        <ele>879</ele>
        <time>2016-07-11T11:26:07Z</time>
      </trkpt>
      <trkpt lat="43.14282" lon="-7.0342">
        <ele>879.3</ele>
        <time>2016-07-11T11:26:15Z</time>
      </trkpt>
      <trkpt lat="43.14275" lon="-7.03428">
        <ele>879.5</ele>
        <time>2016-07-11T11:26:24Z</time>
      </trkpt>
      <trkpt lat="43.14266" lon="-7.03426">
        <ele>879.8</ele>
        <time>2016-07-11T11:26:35Z</time>
      </trkpt>
      <trkpt lat="43.14258" lon="-7.03432">
        <ele>880</ele>
        <time>2016-07-11T11:26:46Z</time>
      </trkpt>
      <trkpt lat="43.14256" lon="-7.03445">
        <ele>880.2</ele>
        <time>2016-07-11T11:26:57Z</time>
      </trkpt>
      <trkpt lat="43.1425" lon="-7.03455">
        <ele>880.3</ele>
        <time>2016-07-11T11:27:05Z</time>
      </trkpt>
      <trkpt lat="43.14244" lon="-7.03466">
        <ele>880.5</ele>
        <time>2016-07-11T11:27:14Z</time>
      </trkpt>
      <trkpt lat="43.14237" lon="-7.03476">
        <ele>880.7</ele>
        <time>2016-07-11T11:27:24Z</time>
      </trkpt>
      <trkpt lat="43.14229" lon="-7.03483">
        <ele>881</ele>
        <time>2016-07-11T11:27:32Z</time>
      </trkpt>
      <trkpt lat="43.1422" lon="-7.03491">
        <ele>881</ele>
        <time>2016-07-11T11:27:40Z</time>
      </trkpt>
      <trkpt lat="43.14212" lon="-7.03497">
        <ele>881.6</ele>
        <time>2016-07-11T11:27:58Z</time>
      </trkpt>
      <trkpt lat="43.14207" lon="-7.03507">
        <ele>882.5</ele>
        <time>2016-07-11T11:28:55Z</time>
      </trkpt>
      <trkpt lat="43.14199" lon="-7.03514">
        <ele>882</ele>
        <time>2016-07-11T11:29:15Z</time>
      </trkpt>
      <trkpt lat="43.14191" lon="-7.03519">
        <ele>881.9</ele>
        <time>2016-07-11T11:29:28Z</time>
      </trkpt>
      <trkpt lat="43.14181" lon="-7.03521">
        <ele>882.5</ele>
        <time>2016-07-11T11:29:43Z</time>
      </trkpt>
      <trkpt lat="43.14171" lon="-7.03523">
        <ele>883.3</ele>
        <time>2016-07-11T11:29:54Z</time>
      </trkpt>
      <trkpt lat="43.14163" lon="-7.03528">
        <ele>884.7</ele>
        <time>2016-07-11T11:30:03Z</time>
      </trkpt>
      <trkpt lat="43.14155" lon="-7.03535">
        <ele>886.1</ele>
        <time>2016-07-11T11:30:14Z</time>
      </trkpt>
      <trkpt lat="43.14146" lon="-7.03541">
        <ele>887.2</ele>
        <time>2016-07-11T11:30:23Z</time>
      </trkpt>
      <trkpt lat="43.14137" lon="-7.03544">
        <ele>888</ele>
        <time>2016-07-11T11:30:33Z</time>
      </trkpt>
      <trkpt lat="43.14129" lon="-7.03552">
        <ele>888.9</ele>
        <time>2016-07-11T11:30:43Z</time>
      </trkpt>
      <trkpt lat="43.14121" lon="-7.03559">
        <ele>890.4</ele>
        <time>2016-07-11T11:30:52Z</time>
      </trkpt>
      <trkpt lat="43.14113" lon="-7.03566">
        <ele>891.4</ele>
        <time>2016-07-11T11:31:02Z</time>
      </trkpt>
      <trkpt lat="43.14105" lon="-7.03571">
        <ele>893</ele>
        <time>2016-07-11T11:31:12Z</time>
      </trkpt>
      <trkpt lat="43.14096" lon="-7.03576">
        <ele>894.4</ele>
        <time>2016-07-11T11:31:22Z</time>
      </trkpt>
      <trkpt lat="43.14087" lon="-7.0358">
        <ele>898.2</ele>
        <time>2016-07-11T11:31:53Z</time>
      </trkpt>
      <trkpt lat="43.14079" lon="-7.03587">
        <ele>898.6</ele>
        <time>2016-07-11T11:32:09Z</time>
      </trkpt>
      <trkpt lat="43.14072" lon="-7.03596">
        <ele>898.8</ele>
        <time>2016-07-11T11:32:19Z</time>
      </trkpt>
      <trkpt lat="43.14066" lon="-7.03606">
        <ele>899.3</ele>
        <time>2016-07-11T11:32:28Z</time>
      </trkpt>
      <trkpt lat="43.14061" lon="-7.03617">
        <ele>899.7</ele>
        <time>2016-07-11T11:32:38Z</time>
      </trkpt>
      <trkpt lat="43.14055" lon="-7.03626">
        <ele>900.3</ele>
        <time>2016-07-11T11:32:49Z</time>
      </trkpt>
      <trkpt lat="43.14045" lon="-7.03631">
        <ele>901.3</ele>
        <time>2016-07-11T11:33:00Z</time>
      </trkpt>
      <trkpt lat="43.14036" lon="-7.0363">
        <ele>902.2</ele>
        <time>2016-07-11T11:33:08Z</time>
      </trkpt>
      <trkpt lat="43.14027" lon="-7.03636">
        <ele>903</ele>
        <time>2016-07-11T11:33:18Z</time>
      </trkpt>
      <trkpt lat="43.14018" lon="-7.03641">
        <ele>903.4</ele>
        <time>2016-07-11T11:33:28Z</time>
      </trkpt>
      <trkpt lat="43.14009" lon="-7.03645">
        <ele>903.9</ele>
        <time>2016-07-11T11:33:37Z</time>
      </trkpt>
      <trkpt lat="43.14" lon="-7.03651">
        <ele>905</ele>
        <time>2016-07-11T11:33:46Z</time>
      </trkpt>
      <trkpt lat="43.13992" lon="-7.03656">
        <ele>906</ele>
        <time>2016-07-11T11:33:54Z</time>
      </trkpt>
      <trkpt lat="43.13983" lon="-7.03664">
        <ele>906.9</ele>
        <time>2016-07-11T11:34:03Z</time>
      </trkpt>
      <trkpt lat="43.13976" lon="-7.03671">
        <ele>907.5</ele>
        <time>2016-07-11T11:34:12Z</time>
      </trkpt>
      <trkpt lat="43.13967" lon="-7.03678">
        <ele>907.9</ele>
        <time>2016-07-11T11:34:21Z</time>
      </trkpt>
      <trkpt lat="43.13959" lon="-7.03684">
        <ele>908.1</ele>
        <time>2016-07-11T11:34:30Z</time>
      </trkpt>
      <trkpt lat="43.1395" lon="-7.0369">
        <ele>908.8</ele>
        <time>2016-07-11T11:34:38Z</time>
      </trkpt>
      <trkpt lat="43.13941" lon="-7.03697">
        <ele>909.7</ele>
        <time>2016-07-11T11:34:47Z</time>
      </trkpt>
      <trkpt lat="43.13933" lon="-7.03704">
        <ele>910.5</ele>
        <time>2016-07-11T11:34:56Z</time>
      </trkpt>
      <trkpt lat="43.13925" lon="-7.03712">
        <ele>911</ele>
        <time>2016-07-11T11:35:05Z</time>
      </trkpt>
      <trkpt lat="43.13917" lon="-7.0372">
        <ele>911.3</ele>
        <time>2016-07-11T11:35:14Z</time>
      </trkpt>
      <trkpt lat="43.13909" lon="-7.03727">
        <ele>911.3</ele>
        <time>2016-07-11T11:35:22Z</time>
      </trkpt>
      <trkpt lat="43.13902" lon="-7.03734">
        <ele>911.3</ele>
        <time>2016-07-11T11:35:29Z</time>
      </trkpt>
      <trkpt lat="43.13894" lon="-7.03741">
        <ele>910.9</ele>
        <time>2016-07-11T11:35:36Z</time>
      </trkpt>
      <trkpt lat="43.13887" lon="-7.03749">
        <ele>910.2</ele>
        <time>2016-07-11T11:35:44Z</time>
      </trkpt>
      <trkpt lat="43.13879" lon="-7.03757">
        <ele>909.3</ele>
        <time>2016-07-11T11:35:52Z</time>
      </trkpt>
      <trkpt lat="43.13873" lon="-7.03767">
        <ele>908.7</ele>
        <time>2016-07-11T11:36:00Z</time>
      </trkpt>
      <trkpt lat="43.13866" lon="-7.03776">
        <ele>907.7</ele>
        <time>2016-07-11T11:36:08Z</time>
      </trkpt>
      <trkpt lat="43.13858" lon="-7.03784">
        <ele>906.8</ele>
        <time>2016-07-11T11:36:16Z</time>
      </trkpt>
      <trkpt lat="43.13851" lon="-7.03792">
        <ele>905.8</ele>
        <time>2016-07-11T11:36:24Z</time>
      </trkpt>
      <trkpt lat="43.13844" lon="-7.03799">
        <ele>904.7</ele>
        <time>2016-07-11T11:36:32Z</time>
      </trkpt>
      <trkpt lat="43.13836" lon="-7.03808">
        <ele>903.9</ele>
        <time>2016-07-11T11:36:40Z</time>
      </trkpt>
      <trkpt lat="43.13828" lon="-7.03814">
        <ele>903.3</ele>
        <time>2016-07-11T11:36:47Z</time>
      </trkpt>
      <trkpt lat="43.13819" lon="-7.03821">
        <ele>902.4</ele>
        <time>2016-07-11T11:36:55Z</time>
      </trkpt>
      <trkpt lat="43.13811" lon="-7.03828">
        <ele>901.7</ele>
        <time>2016-07-11T11:37:02Z</time>
      </trkpt>
      <trkpt lat="43.13803" lon="-7.03836">
        <ele>900.7</ele>
        <time>2016-07-11T11:37:10Z</time>
      </trkpt>
      <trkpt lat="43.13796" lon="-7.03846">
        <ele>899.9</ele>
        <time>2016-07-11T11:37:18Z</time>
      </trkpt>
      <trkpt lat="43.1379" lon="-7.03855">
        <ele>899.5</ele>
        <time>2016-07-11T11:37:25Z</time>
      </trkpt>
      <trkpt lat="43.13784" lon="-7.03865">
        <ele>899.2</ele>
        <time>2016-07-11T11:37:31Z</time>
      </trkpt>
      <trkpt lat="43.13777" lon="-7.03875">
        <ele>898.9</ele>
        <time>2016-07-11T11:37:38Z</time>
      </trkpt>
      <trkpt lat="43.1377" lon="-7.03885">
        <ele>898.5</ele>
        <time>2016-07-11T11:37:46Z</time>
      </trkpt>
      <trkpt lat="43.13762" lon="-7.03893">
        <ele>898.2</ele>
        <time>2016-07-11T11:37:54Z</time>
      </trkpt>
      <trkpt lat="43.13754" lon="-7.03902">
        <ele>898</ele>
        <time>2016-07-11T11:38:02Z</time>
      </trkpt>
      <trkpt lat="43.13747" lon="-7.03909">
        <ele>897.9</ele>
        <time>2016-07-11T11:38:09Z</time>
      </trkpt>
      <trkpt lat="43.13739" lon="-7.03917">
        <ele>897.8</ele>
        <time>2016-07-11T11:38:17Z</time>
      </trkpt>
      <trkpt lat="43.13731" lon="-7.03925">
        <ele>897.5</ele>
        <time>2016-07-11T11:38:25Z</time>
      </trkpt>
      <trkpt lat="43.13725" lon="-7.03935">
        <ele>897.3</ele>
        <time>2016-07-11T11:38:34Z</time>
      </trkpt>
      <trkpt lat="43.1372" lon="-7.03947">
        <ele>897.1</ele>
        <time>2016-07-11T11:38:43Z</time>
      </trkpt>
      <trkpt lat="43.13714" lon="-7.03957">
        <ele>896.9</ele>
        <time>2016-07-11T11:38:52Z</time>
      </trkpt>
      <trkpt lat="43.1371" lon="-7.03969">
        <ele>896.8</ele>
        <time>2016-07-11T11:39:00Z</time>
      </trkpt>
      <trkpt lat="43.13707" lon="-7.03981">
        <ele>896.9</ele>
        <time>2016-07-11T11:39:09Z</time>
      </trkpt>
      <trkpt lat="43.13703" lon="-7.03993">
        <ele>897</ele>
        <time>2016-07-11T11:39:18Z</time>
      </trkpt>
      <trkpt lat="43.13702" lon="-7.04006">
        <ele>897</ele>
        <time>2016-07-11T11:39:30Z</time>
      </trkpt>
      <trkpt lat="43.137" lon="-7.04019">
        <ele>896.9</ele>
        <time>2016-07-11T11:39:39Z</time>
      </trkpt>
      <trkpt lat="43.13698" lon="-7.04032">
        <ele>896.8</ele>
        <time>2016-07-11T11:39:48Z</time>
      </trkpt>
      <trkpt lat="43.13696" lon="-7.04046">
        <ele>896.8</ele>
        <time>2016-07-11T11:39:56Z</time>
      </trkpt>
      <trkpt lat="43.13695" lon="-7.04058">
        <ele>896.8</ele>
        <time>2016-07-11T11:40:04Z</time>
      </trkpt>
      <trkpt lat="43.13696" lon="-7.04072">
        <ele>897</ele>
        <time>2016-07-11T11:40:12Z</time>
      </trkpt>
      <trkpt lat="43.13697" lon="-7.04084">
        <ele>897.4</ele>
        <time>2016-07-11T11:40:19Z</time>
      </trkpt>
      <trkpt lat="43.13697" lon="-7.04097">
        <ele>897.7</ele>
        <time>2016-07-11T11:40:27Z</time>
      </trkpt>
      <trkpt lat="43.13697" lon="-7.0411">
        <ele>897.9</ele>
        <time>2016-07-11T11:40:35Z</time>
      </trkpt>
      <trkpt lat="43.13696" lon="-7.04124">
        <ele>898.3</ele>
        <time>2016-07-11T11:40:44Z</time>
      </trkpt>
      <trkpt lat="43.13696" lon="-7.04138">
        <ele>899.2</ele>
        <time>2016-07-11T11:40:53Z</time>
      </trkpt>
      <trkpt lat="43.13688" lon="-7.04144">
        <ele>900.1</ele>
        <time>2016-07-11T11:41:33Z</time>
      </trkpt>
      <trkpt lat="43.1369" lon="-7.04158">
        <ele>899.2</ele>
        <time>2016-07-11T11:42:33Z</time>
      </trkpt>
      <trkpt lat="43.13692" lon="-7.04172">
        <ele>899.1</ele>
        <time>2016-07-11T11:42:41Z</time>
      </trkpt>
      <trkpt lat="43.13692" lon="-7.04185">
        <ele>899.1</ele>
        <time>2016-07-11T11:42:49Z</time>
      </trkpt>
      <trkpt lat="43.13693" lon="-7.04199">
        <ele>899.1</ele>
        <time>2016-07-11T11:42:57Z</time>
      </trkpt>
      <trkpt lat="43.13693" lon="-7.04212">
        <ele>899.2</ele>
        <time>2016-07-11T11:43:05Z</time>
      </trkpt>
      <trkpt lat="43.13691" lon="-7.04225">
        <ele>899.3</ele>
        <time>2016-07-11T11:43:12Z</time>
      </trkpt>
      <trkpt lat="43.1369" lon="-7.04239">
        <ele>899.2</ele>
        <time>2016-07-11T11:43:20Z</time>
      </trkpt>
      <trkpt lat="43.13688" lon="-7.04252">
        <ele>898.9</ele>
        <time>2016-07-11T11:43:27Z</time>
      </trkpt>
      <trkpt lat="43.13687" lon="-7.04264">
        <ele>898.6</ele>
        <time>2016-07-11T11:43:34Z</time>
      </trkpt>
      <trkpt lat="43.13688" lon="-7.04277">
        <ele>898.4</ele>
        <time>2016-07-11T11:43:43Z</time>
      </trkpt>
      <trkpt lat="43.13686" lon="-7.04291">
        <ele>898.2</ele>
        <time>2016-07-11T11:43:51Z</time>
      </trkpt>
      <trkpt lat="43.13685" lon="-7.04304">
        <ele>898.1</ele>
        <time>2016-07-11T11:43:59Z</time>
      </trkpt>
      <trkpt lat="43.13685" lon="-7.04317">
        <ele>898.2</ele>
        <time>2016-07-11T11:44:07Z</time>
      </trkpt>
      <trkpt lat="43.13685" lon="-7.04331">
        <ele>898.4</ele>
        <time>2016-07-11T11:44:15Z</time>
      </trkpt>
      <trkpt lat="43.13684" lon="-7.04343">
        <ele>898.9</ele>
        <time>2016-07-11T11:44:23Z</time>
      </trkpt>
      <trkpt lat="43.13683" lon="-7.04356">
        <ele>899.2</ele>
        <time>2016-07-11T11:44:31Z</time>
      </trkpt>
      <trkpt lat="43.13683" lon="-7.04368">
        <ele>899.5</ele>
        <time>2016-07-11T11:44:39Z</time>
      </trkpt>
      <trkpt lat="43.13683" lon="-7.04381">
        <ele>899.7</ele>
        <time>2016-07-11T11:44:47Z</time>
      </trkpt>
      <trkpt lat="43.13684" lon="-7.04394">
        <ele>899.9</ele>
        <time>2016-07-11T11:44:55Z</time>
      </trkpt>
      <trkpt lat="43.13686" lon="-7.04406">
        <ele>900.3</ele>
        <time>2016-07-11T11:45:03Z</time>
      </trkpt>
      <trkpt lat="43.13687" lon="-7.04419">
        <ele>900.8</ele>
        <time>2016-07-11T11:45:11Z</time>
      </trkpt>
      <trkpt lat="43.13686" lon="-7.04432">
        <ele>901.8</ele>
        <time>2016-07-11T11:45:21Z</time>
      </trkpt>
      <trkpt lat="43.13687" lon="-7.04445">
        <ele>903.3</ele>
        <time>2016-07-11T11:45:33Z</time>
      </trkpt>
      <trkpt lat="43.13689" lon="-7.04457">
        <ele>905.5</ele>
        <time>2016-07-11T11:45:45Z</time>
      </trkpt>
      <trkpt lat="43.13693" lon="-7.0447">
        <ele>907.7</ele>
        <time>2016-07-11T11:46:01Z</time>
      </trkpt>
      <trkpt lat="43.13701" lon="-7.04475">
        <ele>910.9</ele>
        <time>2016-07-11T11:46:35Z</time>
      </trkpt>
      <trkpt lat="43.13706" lon="-7.04486">
        <ele>911.2</ele>
        <time>2016-07-11T11:46:47Z</time>
      </trkpt>
      <trkpt lat="43.13706" lon="-7.04499">
        <ele>911.3</ele>
        <time>2016-07-11T11:46:57Z</time>
      </trkpt>
      <trkpt lat="43.13709" lon="-7.04511">
        <ele>911.7</ele>
        <time>2016-07-11T11:47:06Z</time>
      </trkpt>
      <trkpt lat="43.13714" lon="-7.04523">
        <ele>912.1</ele>
        <time>2016-07-11T11:47:15Z</time>
      </trkpt>
      <trkpt lat="43.13719" lon="-7.04534">
        <ele>912.3</ele>
        <time>2016-07-11T11:47:23Z</time>
      </trkpt>
      <trkpt lat="43.13722" lon="-7.04546">
        <ele>912.2</ele>
        <time>2016-07-11T11:47:31Z</time>
      </trkpt>
      <trkpt lat="43.13726" lon="-7.04558">
        <ele>912.1</ele>
        <time>2016-07-11T11:47:39Z</time>
      </trkpt>
      <trkpt lat="43.13729" lon="-7.0457">
        <ele>912.1</ele>
        <time>2016-07-11T11:47:47Z</time>
      </trkpt>
      <trkpt lat="43.13732" lon="-7.04583">
        <ele>912.2</ele>
        <time>2016-07-11T11:47:55Z</time>
      </trkpt>
      <trkpt lat="43.13735" lon="-7.04595">
        <ele>912.6</ele>
        <time>2016-07-11T11:48:02Z</time>
      </trkpt>
      <trkpt lat="43.13736" lon="-7.04608">
        <ele>913</ele>
        <time>2016-07-11T11:48:09Z</time>
      </trkpt>
      <trkpt lat="43.13737" lon="-7.04621">
        <ele>913.2</ele>
        <time>2016-07-11T11:48:16Z</time>
      </trkpt>
      <trkpt lat="43.13737" lon="-7.04634">
        <ele>913.4</ele>
        <time>2016-07-11T11:48:24Z</time>
      </trkpt>
      <trkpt lat="43.13735" lon="-7.04647">
        <ele>913.8</ele>
        <time>2016-07-11T11:48:32Z</time>
      </trkpt>
      <trkpt lat="43.13733" lon="-7.04659">
        <ele>914.2</ele>
        <time>2016-07-11T11:48:40Z</time>
      </trkpt>
      <trkpt lat="43.13729" lon="-7.04671">
        <ele>914.4</ele>
        <time>2016-07-11T11:48:48Z</time>
      </trkpt>
      <trkpt lat="43.13725" lon="-7.04683">
        <ele>914.4</ele>
        <time>2016-07-11T11:48:56Z</time>
      </trkpt>
      <trkpt lat="43.13719" lon="-7.04693">
        <ele>914.4</ele>
        <time>2016-07-11T11:49:04Z</time>
      </trkpt>
      <trkpt lat="43.13712" lon="-7.04704">
        <ele>914.4</ele>
        <time>2016-07-11T11:49:12Z</time>
      </trkpt>
      <trkpt lat="43.13705" lon="-7.04713">
        <ele>913.9</ele>
        <time>2016-07-11T11:49:19Z</time>
      </trkpt>
      <trkpt lat="43.13698" lon="-7.04721">
        <ele>913.3</ele>
        <time>2016-07-11T11:49:26Z</time>
      </trkpt>
      <trkpt lat="43.13689" lon="-7.04728">
        <ele>912.7</ele>
        <time>2016-07-11T11:49:35Z</time>
      </trkpt>
      <trkpt lat="43.1368" lon="-7.04735">
        <ele>912.3</ele>
        <time>2016-07-11T11:49:43Z</time>
      </trkpt>
      <trkpt lat="43.13672" lon="-7.04741">
        <ele>911.3</ele>
        <time>2016-07-11T11:49:52Z</time>
      </trkpt>
      <trkpt lat="43.13663" lon="-7.04749">
        <ele>910.7</ele>
        <time>2016-07-11T11:50:00Z</time>
      </trkpt>
      <trkpt lat="43.13655" lon="-7.04755">
        <ele>909.5</ele>
        <time>2016-07-11T11:50:09Z</time>
      </trkpt>
      <trkpt lat="43.13646" lon="-7.04761">
        <ele>908.8</ele>
        <time>2016-07-11T11:50:16Z</time>
      </trkpt>
      <trkpt lat="43.13638" lon="-7.04765">
        <ele>907.9</ele>
        <time>2016-07-11T11:50:24Z</time>
      </trkpt>
      <trkpt lat="43.13628" lon="-7.04767">
        <ele>907.3</ele>
        <time>2016-07-11T11:50:32Z</time>
      </trkpt>
      <trkpt lat="43.13618" lon="-7.04768">
        <ele>906.9</ele>
        <time>2016-07-11T11:50:40Z</time>
      </trkpt>
      <trkpt lat="43.13609" lon="-7.04768">
        <ele>906.7</ele>
        <time>2016-07-11T11:50:48Z</time>
      </trkpt>
      <trkpt lat="43.136" lon="-7.04771">
        <ele>906.5</ele>
        <time>2016-07-11T11:50:56Z</time>
      </trkpt>
      <trkpt lat="43.13591" lon="-7.04773">
        <ele>906.5</ele>
        <time>2016-07-11T11:51:03Z</time>
      </trkpt>
      <trkpt lat="43.13581" lon="-7.04775">
        <ele>906.4</ele>
        <time>2016-07-11T11:51:11Z</time>
      </trkpt>
      <trkpt lat="43.13572" lon="-7.04778">
        <ele>906.3</ele>
        <time>2016-07-11T11:51:18Z</time>
      </trkpt>
      <trkpt lat="43.13563" lon="-7.04782">
        <ele>906.2</ele>
        <time>2016-07-11T11:51:25Z</time>
      </trkpt>
      <trkpt lat="43.13554" lon="-7.04785">
        <ele>906</ele>
        <time>2016-07-11T11:51:33Z</time>
      </trkpt>
      <trkpt lat="43.13545" lon="-7.0479">
        <ele>905.5</ele>
        <time>2016-07-11T11:51:41Z</time>
      </trkpt>
      <trkpt lat="43.13536" lon="-7.04794">
        <ele>905.1</ele>
        <time>2016-07-11T11:51:50Z</time>
      </trkpt>
      <trkpt lat="43.13529" lon="-7.04803">
        <ele>904.4</ele>
        <time>2016-07-11T11:51:58Z</time>
      </trkpt>
      <trkpt lat="43.13522" lon="-7.04813">
        <ele>903.5</ele>
        <time>2016-07-11T11:52:06Z</time>
      </trkpt>
      <trkpt lat="43.13515" lon="-7.04821">
        <ele>902.4</ele>
        <time>2016-07-11T11:52:15Z</time>
      </trkpt>
      <trkpt lat="43.13507" lon="-7.04828">
        <ele>901.1</ele>
        <time>2016-07-11T11:52:23Z</time>
      </trkpt>
      <trkpt lat="43.135" lon="-7.04838">
        <ele>900</ele>
        <time>2016-07-11T11:52:31Z</time>
      </trkpt>
      <trkpt lat="43.13494" lon="-7.04849">
        <ele>899</ele>
        <time>2016-07-11T11:52:39Z</time>
      </trkpt>
      <trkpt lat="43.1349" lon="-7.0486">
        <ele>898.2</ele>
        <time>2016-07-11T11:52:46Z</time>
      </trkpt>
      <trkpt lat="43.13486" lon="-7.04871">
        <ele>897.5</ele>
        <time>2016-07-11T11:52:53Z</time>
      </trkpt>
      <trkpt lat="43.13483" lon="-7.04885">
        <ele>896.7</ele>
        <time>2016-07-11T11:53:01Z</time>
      </trkpt>
      <trkpt lat="43.13478" lon="-7.04897">
        <ele>896.3</ele>
        <time>2016-07-11T11:53:08Z</time>
      </trkpt>
      <trkpt lat="43.13475" lon="-7.0491">
        <ele>895.9</ele>
        <time>2016-07-11T11:53:16Z</time>
      </trkpt>
      <trkpt lat="43.13471" lon="-7.04922">
        <ele>895.4</ele>
        <time>2016-07-11T11:53:23Z</time>
      </trkpt>
      <trkpt lat="43.13469" lon="-7.04935">
        <ele>895</ele>
        <time>2016-07-11T11:53:30Z</time>
      </trkpt>
      <trkpt lat="43.13468" lon="-7.04947">
        <ele>894.4</ele>
        <time>2016-07-11T11:53:37Z</time>
      </trkpt>
      <trkpt lat="43.1347" lon="-7.04961">
        <ele>893.9</ele>
        <time>2016-07-11T11:53:45Z</time>
      </trkpt>
      <trkpt lat="43.13475" lon="-7.04971">
        <ele>893.5</ele>
        <time>2016-07-11T11:53:55Z</time>
      </trkpt>
      <trkpt lat="43.13479" lon="-7.04984">
        <ele>893.3</ele>
        <time>2016-07-11T11:54:04Z</time>
      </trkpt>
      <trkpt lat="43.13481" lon="-7.04997">
        <ele>893.1</ele>
        <time>2016-07-11T11:54:11Z</time>
      </trkpt>
      <trkpt lat="43.13486" lon="-7.05008">
        <ele>892.8</ele>
        <time>2016-07-11T11:54:18Z</time>
      </trkpt>
      <trkpt lat="43.13491" lon="-7.05019">
        <ele>892.6</ele>
        <time>2016-07-11T11:54:25Z</time>
      </trkpt>
      <trkpt lat="43.13496" lon="-7.0503">
        <ele>892.3</ele>
        <time>2016-07-11T11:54:33Z</time>
      </trkpt>
      <trkpt lat="43.135" lon="-7.05041">
        <ele>891.8</ele>
        <time>2016-07-11T11:54:41Z</time>
      </trkpt>
      <trkpt lat="43.13506" lon="-7.0505">
        <ele>891.5</ele>
        <time>2016-07-11T11:54:48Z</time>
      </trkpt>
      <trkpt lat="43.13513" lon="-7.05059">
        <ele>891.3</ele>
        <time>2016-07-11T11:54:55Z</time>
      </trkpt>
      <trkpt lat="43.1352" lon="-7.05069">
        <ele>891.2</ele>
        <time>2016-07-11T11:55:02Z</time>
      </trkpt>
      <trkpt lat="43.13527" lon="-7.05079">
        <ele>891.1</ele>
        <time>2016-07-11T11:55:11Z</time>
      </trkpt>
      <trkpt lat="43.13534" lon="-7.05088">
        <ele>891.1</ele>
        <time>2016-07-11T11:55:19Z</time>
      </trkpt>
      <trkpt lat="43.13541" lon="-7.05096">
        <ele>890.9</ele>
        <time>2016-07-11T11:55:28Z</time>
      </trkpt>
      <trkpt lat="43.13549" lon="-7.05102">
        <ele>890.6</ele>
        <time>2016-07-11T11:55:36Z</time>
      </trkpt>
      <trkpt lat="43.13558" lon="-7.05106">
        <ele>890.6</ele>
        <time>2016-07-11T11:55:44Z</time>
      </trkpt>
      <trkpt lat="43.13567" lon="-7.05108">
        <ele>890.3</ele>
        <time>2016-07-11T11:55:53Z</time>
      </trkpt>
      <trkpt lat="43.13576" lon="-7.05114">
        <ele>890.1</ele>
        <time>2016-07-11T11:56:00Z</time>
      </trkpt>
      <trkpt lat="43.13584" lon="-7.05119">
        <ele>890</ele>
        <time>2016-07-11T11:56:08Z</time>
      </trkpt>
      <trkpt lat="43.13592" lon="-7.05128">
        <ele>890</ele>
        <time>2016-07-11T11:56:17Z</time>
      </trkpt>
      <trkpt lat="43.136" lon="-7.05134">
        <ele>889.8</ele>
        <time>2016-07-11T11:56:24Z</time>
      </trkpt>
      <trkpt lat="43.13609" lon="-7.05137">
        <ele>889.7</ele>
        <time>2016-07-11T11:56:31Z</time>
      </trkpt>
      <trkpt lat="43.13617" lon="-7.05143">
        <ele>889.6</ele>
        <time>2016-07-11T11:56:38Z</time>
      </trkpt>
      <trkpt lat="43.13627" lon="-7.05147">
        <ele>889.5</ele>
        <time>2016-07-11T11:56:46Z</time>
      </trkpt>
      <trkpt lat="43.13635" lon="-7.05153">
        <ele>889.2</ele>
        <time>2016-07-11T11:56:53Z</time>
      </trkpt>
      <trkpt lat="43.13643" lon="-7.05159">
        <ele>888.8</ele>
        <time>2016-07-11T11:57:01Z</time>
      </trkpt>
      <trkpt lat="43.13652" lon="-7.05164">
        <ele>888.8</ele>
        <time>2016-07-11T11:57:09Z</time>
      </trkpt>
      <trkpt lat="43.1366" lon="-7.05171">
        <ele>889.4</ele>
        <time>2016-07-11T11:57:17Z</time>
      </trkpt>
      <trkpt lat="43.13668" lon="-7.05177">
        <ele>891</ele>
        <time>2016-07-11T11:57:55Z</time>
      </trkpt>
      <trkpt lat="43.13677" lon="-7.05184">
        <ele>891.2</ele>
        <time>2016-07-11T11:58:05Z</time>
      </trkpt>
      <trkpt lat="43.13684" lon="-7.05193">
        <ele>891.4</ele>
        <time>2016-07-11T11:58:13Z</time>
      </trkpt>
      <trkpt lat="43.13688" lon="-7.05205">
        <ele>891.7</ele>
        <time>2016-07-11T11:58:21Z</time>
      </trkpt>
      <trkpt lat="43.13685" lon="-7.05218">
        <ele>891.8</ele>
        <time>2016-07-11T11:58:29Z</time>
      </trkpt>
      <trkpt lat="43.1368" lon="-7.05229">
        <ele>891.8</ele>
        <time>2016-07-11T11:58:36Z</time>
      </trkpt>
      <trkpt lat="43.13673" lon="-7.05238">
        <ele>891.4</ele>
        <time>2016-07-11T11:58:44Z</time>
      </trkpt>
      <trkpt lat="43.13665" lon="-7.05246">
        <ele>891.1</ele>
        <time>2016-07-11T11:58:52Z</time>
      </trkpt>
      <trkpt lat="43.13658" lon="-7.05254">
        <ele>890.3</ele>
        <time>2016-07-11T11:59:00Z</time>
      </trkpt>
      <trkpt lat="43.1365" lon="-7.05263">
        <ele>889.8</ele>
        <time>2016-07-11T11:59:08Z</time>
      </trkpt>
      <trkpt lat="43.13643" lon="-7.05273">
        <ele>888.9</ele>
        <time>2016-07-11T11:59:16Z</time>
      </trkpt>
      <trkpt lat="43.13636" lon="-7.05281">
        <ele>888.2</ele>
        <time>2016-07-11T11:59:23Z</time>
      </trkpt>
      <trkpt lat="43.13629" lon="-7.05291">
        <ele>887.2</ele>
        <time>2016-07-11T11:59:31Z</time>
      </trkpt>
      <trkpt lat="43.13622" lon="-7.05301">
        <ele>886.2</ele>
        <time>2016-07-11T11:59:39Z</time>
      </trkpt>
      <trkpt lat="43.13616" lon="-7.0531">
        <ele>885.3</ele>
        <time>2016-07-11T11:59:48Z</time>
      </trkpt>
      <trkpt lat="43.13608" lon="-7.05318">
        <ele>884.5</ele>
        <time>2016-07-11T11:59:57Z</time>
      </trkpt>
      <trkpt lat="43.13601" lon="-7.05328">
        <ele>883.2</ele>
        <time>2016-07-11T12:00:07Z</time>
      </trkpt>
      <trkpt lat="43.13594" lon="-7.05336">
        <ele>881.7</ele>
        <time>2016-07-11T12:00:15Z</time>
      </trkpt>
      <trkpt lat="43.13587" lon="-7.05345">
        <ele>880.5</ele>
        <time>2016-07-11T12:00:24Z</time>
      </trkpt>
      <trkpt lat="43.1358" lon="-7.05353">
        <ele>879.7</ele>
        <time>2016-07-11T12:00:33Z</time>
      </trkpt>
      <trkpt lat="43.13573" lon="-7.05363">
        <ele>878.8</ele>
        <time>2016-07-11T12:00:41Z</time>
      </trkpt>
      <trkpt lat="43.13567" lon="-7.05373">
        <ele>877.7</ele>
        <time>2016-07-11T12:00:50Z</time>
      </trkpt>
      <trkpt lat="43.13562" lon="-7.05383">
        <ele>876.7</ele>
        <time>2016-07-11T12:00:58Z</time>
      </trkpt>
      <trkpt lat="43.13555" lon="-7.05394">
        <ele>875.1</ele>
        <time>2016-07-11T12:01:07Z</time>
      </trkpt>
      <trkpt lat="43.13549" lon="-7.05403">
        <ele>873.8</ele>
        <time>2016-07-11T12:01:16Z</time>
      </trkpt>
      <trkpt lat="43.13543" lon="-7.05413">
        <ele>872.9</ele>
        <time>2016-07-11T12:01:24Z</time>
      </trkpt>
      <trkpt lat="43.13538" lon="-7.05424">
        <ele>871.9</ele>
        <time>2016-07-11T12:01:31Z</time>
      </trkpt>
      <trkpt lat="43.13533" lon="-7.05434">
        <ele>870.7</ele>
        <time>2016-07-11T12:01:40Z</time>
      </trkpt>
      <trkpt lat="43.13528" lon="-7.05445">
        <ele>869.5</ele>
        <time>2016-07-11T12:01:49Z</time>
      </trkpt>
      <trkpt lat="43.13523" lon="-7.05457">
        <ele>868.1</ele>
        <time>2016-07-11T12:01:58Z</time>
      </trkpt>
      <trkpt lat="43.13518" lon="-7.05468">
        <ele>866.9</ele>
        <time>2016-07-11T12:02:07Z</time>
      </trkpt>
      <trkpt lat="43.13512" lon="-7.05479">
        <ele>866.1</ele>
        <time>2016-07-11T12:02:16Z</time>
      </trkpt>
      <trkpt lat="43.13505" lon="-7.05489">
        <ele>864.5</ele>
        <time>2016-07-11T12:02:26Z</time>
      </trkpt>
      <trkpt lat="43.135" lon="-7.055">
        <ele>863.7</ele>
        <time>2016-07-11T12:02:33Z</time>
      </trkpt>
      <trkpt lat="43.13495" lon="-7.05511">
        <ele>863.1</ele>
        <time>2016-07-11T12:02:39Z</time>
      </trkpt>
      <trkpt lat="43.13491" lon="-7.05523">
        <ele>862.7</ele>
        <time>2016-07-11T12:02:45Z</time>
      </trkpt>
      <trkpt lat="43.13491" lon="-7.05535">
        <ele>861.9</ele>
        <time>2016-07-11T12:02:52Z</time>
      </trkpt>
      <trkpt lat="43.13492" lon="-7.05549">
        <ele>861</ele>
        <time>2016-07-11T12:03:01Z</time>
      </trkpt>
      <trkpt lat="43.13495" lon="-7.05562">
        <ele>860.1</ele>
        <time>2016-07-11T12:03:09Z</time>
      </trkpt>
      <trkpt lat="43.13497" lon="-7.05575">
        <ele>859.4</ele>
        <time>2016-07-11T12:03:17Z</time>
      </trkpt>
      <trkpt lat="43.13498" lon="-7.05589">
        <ele>858.6</ele>
        <time>2016-07-11T12:03:25Z</time>
      </trkpt>
      <trkpt lat="43.13497" lon="-7.05602">
        <ele>858.1</ele>
        <time>2016-07-11T12:03:33Z</time>
      </trkpt>
      <trkpt lat="43.13495" lon="-7.05615">
        <ele>857.7</ele>
        <time>2016-07-11T12:03:40Z</time>
      </trkpt>
      <trkpt lat="43.13494" lon="-7.05627">
        <ele>857</ele>
        <time>2016-07-11T12:03:56Z</time>
      </trkpt>
      <trkpt lat="43.13496" lon="-7.05639">
        <ele>856.7</ele>
        <time>2016-07-11T12:04:07Z</time>
      </trkpt>
      <trkpt lat="43.13497" lon="-7.05653">
        <ele>856.2</ele>
        <time>2016-07-11T12:04:18Z</time>
      </trkpt>
      <trkpt lat="43.13495" lon="-7.05666">
        <ele>855.8</ele>
        <time>2016-07-11T12:04:26Z</time>
      </trkpt>
      <trkpt lat="43.13494" lon="-7.05679">
        <ele>855.7</ele>
        <time>2016-07-11T12:04:33Z</time>
      </trkpt>
      <trkpt lat="43.13493" lon="-7.05692">
        <ele>855.3</ele>
        <time>2016-07-11T12:04:41Z</time>
      </trkpt>
      <trkpt lat="43.13492" lon="-7.05705">
        <ele>855.1</ele>
        <time>2016-07-11T12:04:49Z</time>
      </trkpt>
      <trkpt lat="43.1349" lon="-7.05718">
        <ele>855</ele>
        <time>2016-07-11T12:04:57Z</time>
      </trkpt>
      <trkpt lat="43.13486" lon="-7.05731">
        <ele>855.1</ele>
        <time>2016-07-11T12:05:05Z</time>
      </trkpt>
      <trkpt lat="43.13485" lon="-7.05744">
        <ele>855.4</ele>
        <time>2016-07-11T12:05:13Z</time>
      </trkpt>
      <trkpt lat="43.13484" lon="-7.05757">
        <ele>855.8</ele>
        <time>2016-07-11T12:05:21Z</time>
      </trkpt>
      <trkpt lat="43.13483" lon="-7.05769">
        <ele>856.4</ele>
        <time>2016-07-11T12:05:29Z</time>
      </trkpt>
      <trkpt lat="43.1348" lon="-7.05782">
        <ele>856.8</ele>
        <time>2016-07-11T12:05:37Z</time>
      </trkpt>
      <trkpt lat="43.13478" lon="-7.05795">
        <ele>857.3</ele>
        <time>2016-07-11T12:05:46Z</time>
      </trkpt>
      <trkpt lat="43.13475" lon="-7.05808">
        <ele>858</ele>
        <time>2016-07-11T12:05:55Z</time>
      </trkpt>
      <trkpt lat="43.13473" lon="-7.05821">
        <ele>858.7</ele>
        <time>2016-07-11T12:06:04Z</time>
      </trkpt>
      <trkpt lat="43.13471" lon="-7.05834">
        <ele>859.2</ele>
        <time>2016-07-11T12:06:13Z</time>
      </trkpt>
      <trkpt lat="43.13466" lon="-7.05846">
        <ele>859.8</ele>
        <time>2016-07-11T12:06:22Z</time>
      </trkpt>
      <trkpt lat="43.13461" lon="-7.05857">
        <ele>860.9</ele>
        <time>2016-07-11T12:06:31Z</time>
      </trkpt>
      <trkpt lat="43.13454" lon="-7.05867">
        <ele>862.7</ele>
        <time>2016-07-11T12:06:47Z</time>
      </trkpt>
      <trkpt lat="43.13454" lon="-7.0588">
        <ele>863.3</ele>
        <time>2016-07-11T12:06:57Z</time>
      </trkpt>
      <trkpt lat="43.1345" lon="-7.05891">
        <ele>864.3</ele>
        <time>2016-07-11T12:07:08Z</time>
      </trkpt>
      <trkpt lat="43.13448" lon="-7.05904">
        <ele>865</ele>
        <time>2016-07-11T12:07:22Z</time>
      </trkpt>
      <trkpt lat="43.13445" lon="-7.05916">
        <ele>867.5</ele>
        <time>2016-07-11T12:07:40Z</time>
      </trkpt>
      <trkpt lat="43.13441" lon="-7.05927">
        <ele>869</ele>
        <time>2016-07-11T12:08:02Z</time>
      </trkpt>
      <trkpt lat="43.13442" lon="-7.05939">
        <ele>869.2</ele>
        <time>2016-07-11T12:08:14Z</time>
      </trkpt>
      <trkpt lat="43.13444" lon="-7.05952">
        <ele>870</ele>
        <time>2016-07-11T12:08:28Z</time>
      </trkpt>
      <trkpt lat="43.13445" lon="-7.05964">
        <ele>872</ele>
        <time>2016-07-11T12:08:42Z</time>
      </trkpt>
      <trkpt lat="43.13445" lon="-7.05977">
        <ele>874</ele>
        <time>2016-07-11T12:08:56Z</time>
      </trkpt>
      <trkpt lat="43.13446" lon="-7.0599">
        <ele>875.7</ele>
        <time>2016-07-11T12:09:07Z</time>
      </trkpt>
      <trkpt lat="43.13446" lon="-7.06003">
        <ele>877.8</ele>
        <time>2016-07-11T12:09:19Z</time>
      </trkpt>
      <trkpt lat="43.13448" lon="-7.06015">
        <ele>879.5</ele>
        <time>2016-07-11T12:09:30Z</time>
      </trkpt>
      <trkpt lat="43.13451" lon="-7.06027">
        <ele>881.1</ele>
        <time>2016-07-11T12:09:40Z</time>
      </trkpt>
      <trkpt lat="43.13455" lon="-7.06039">
        <ele>882.3</ele>
        <time>2016-07-11T12:09:51Z</time>
      </trkpt>
      <trkpt lat="43.13462" lon="-7.06048">
        <ele>883.6</ele>
        <time>2016-07-11T12:10:06Z</time>
      </trkpt>
      <trkpt lat="43.13468" lon="-7.06058">
        <ele>884.9</ele>
        <time>2016-07-11T12:10:18Z</time>
      </trkpt>
      <trkpt lat="43.13473" lon="-7.0607">
        <ele>886.7</ele>
        <time>2016-07-11T12:10:35Z</time>
      </trkpt>
      <trkpt lat="43.1348" lon="-7.06078">
        <ele>887.6</ele>
        <time>2016-07-11T12:10:45Z</time>
      </trkpt>
      <trkpt lat="43.13486" lon="-7.06089">
        <ele>889.1</ele>
        <time>2016-07-11T12:10:58Z</time>
      </trkpt>
      <trkpt lat="43.1349" lon="-7.061">
        <ele>890</ele>
        <time>2016-07-11T12:11:08Z</time>
      </trkpt>
      <trkpt lat="43.13494" lon="-7.06111">
        <ele>891.2</ele>
        <time>2016-07-11T12:11:17Z</time>
      </trkpt>
      <trkpt lat="43.13499" lon="-7.06122">
        <ele>892.4</ele>
        <time>2016-07-11T12:11:27Z</time>
      </trkpt>
      <trkpt lat="43.13504" lon="-7.06133">
        <ele>893.3</ele>
        <time>2016-07-11T12:11:36Z</time>
      </trkpt>
      <trkpt lat="43.1351" lon="-7.06142">
        <ele>894.1</ele>
        <time>2016-07-11T12:11:45Z</time>
      </trkpt>
      <trkpt lat="43.13516" lon="-7.06153">
        <ele>895</ele>
        <time>2016-07-11T12:11:56Z</time>
      </trkpt>
      <trkpt lat="43.13521" lon="-7.06165">
        <ele>895.7</ele>
        <time>2016-07-11T12:12:07Z</time>
      </trkpt>
      <trkpt lat="43.13526" lon="-7.06176">
        <ele>896.4</ele>
        <time>2016-07-11T12:12:16Z</time>
      </trkpt>
      <trkpt lat="43.13531" lon="-7.06187">
        <ele>897.4</ele>
        <time>2016-07-11T12:12:25Z</time>
      </trkpt>
      <trkpt lat="43.13535" lon="-7.06198">
        <ele>898.3</ele>
        <time>2016-07-11T12:12:34Z</time>
      </trkpt>
      <trkpt lat="43.13537" lon="-7.06211">
        <ele>899.2</ele>
        <time>2016-07-11T12:12:44Z</time>
      </trkpt>
      <trkpt lat="43.13536" lon="-7.06224">
        <ele>900.9</ele>
        <time>2016-07-11T12:13:02Z</time>
      </trkpt>
      <trkpt lat="43.13537" lon="-7.06237">
        <ele>902</ele>
        <time>2016-07-11T12:13:32Z</time>
      </trkpt>
      <trkpt lat="43.1354" lon="-7.0625">
        <ele>901.6</ele>
        <time>2016-07-11T12:13:43Z</time>
      </trkpt>
      <trkpt lat="43.13541" lon="-7.06264">
        <ele>901.6</ele>
        <time>2016-07-11T12:13:54Z</time>
      </trkpt>
      <trkpt lat="43.13541" lon="-7.06277">
        <ele>902</ele>
        <time>2016-07-11T12:14:04Z</time>
      </trkpt>
      <trkpt lat="43.13542" lon="-7.0629">
        <ele>902.6</ele>
        <time>2016-07-11T12:14:14Z</time>
      </trkpt>
      <trkpt lat="43.13543" lon="-7.06303">
        <ele>903.7</ele>
        <time>2016-07-11T12:14:24Z</time>
      </trkpt>
      <trkpt lat="43.13545" lon="-7.06316">
        <ele>904.9</ele>
        <time>2016-07-11T12:14:34Z</time>
      </trkpt>
      <trkpt lat="43.13547" lon="-7.06329">
        <ele>905.9</ele>
        <time>2016-07-11T12:14:44Z</time>
      </trkpt>
      <trkpt lat="43.13547" lon="-7.06341">
        <ele>906.6</ele>
        <time>2016-07-11T12:14:53Z</time>
      </trkpt>
      <trkpt lat="43.13549" lon="-7.06355">
        <ele>907.1</ele>
        <time>2016-07-11T12:15:03Z</time>
      </trkpt>
      <trkpt lat="43.1355" lon="-7.06367">
        <ele>907.7</ele>
        <time>2016-07-11T12:15:12Z</time>
      </trkpt>
      <trkpt lat="43.1355" lon="-7.0638">
        <ele>908.3</ele>
        <time>2016-07-11T12:15:21Z</time>
      </trkpt>
      <trkpt lat="43.1355" lon="-7.06393">
        <ele>909.2</ele>
        <time>2016-07-11T12:15:32Z</time>
      </trkpt>
      <trkpt lat="43.13549" lon="-7.06406">
        <ele>910.2</ele>
        <time>2016-07-11T12:15:41Z</time>
      </trkpt>
      <trkpt lat="43.13547" lon="-7.06418">
        <ele>911.2</ele>
        <time>2016-07-11T12:15:51Z</time>
      </trkpt>
      <trkpt lat="43.13545" lon="-7.06431">
        <ele>911.9</ele>
        <time>2016-07-11T12:16:00Z</time>
      </trkpt>
      <trkpt lat="43.13546" lon="-7.06444">
        <ele>913</ele>
        <time>2016-07-11T12:16:09Z</time>
      </trkpt>
      <trkpt lat="43.13546" lon="-7.06457">
        <ele>914.2</ele>
        <time>2016-07-11T12:16:19Z</time>
      </trkpt>
      <trkpt lat="43.13545" lon="-7.0647">
        <ele>915.2</ele>
        <time>2016-07-11T12:16:29Z</time>
      </trkpt>
      <trkpt lat="43.13544" lon="-7.06484">
        <ele>916.1</ele>
        <time>2016-07-11T12:16:39Z</time>
      </trkpt>
      <trkpt lat="43.13543" lon="-7.06496">
        <ele>917.1</ele>
        <time>2016-07-11T12:16:49Z</time>
      </trkpt>
      <trkpt lat="43.1354" lon="-7.06509">
        <ele>918.6</ele>
        <time>2016-07-11T12:17:03Z</time>
      </trkpt>
      <trkpt lat="43.13538" lon="-7.06521">
        <ele>919.5</ele>
        <time>2016-07-11T12:17:12Z</time>
      </trkpt>
      <trkpt lat="43.13535" lon="-7.06533">
        <ele>920.1</ele>
        <time>2016-07-11T12:17:21Z</time>
      </trkpt>
      <trkpt lat="43.1353" lon="-7.06544">
        <ele>920.4</ele>
        <time>2016-07-11T12:17:30Z</time>
      </trkpt>
      <trkpt lat="43.13524" lon="-7.06555">
        <ele>920.7</ele>
        <time>2016-07-11T12:17:39Z</time>
      </trkpt>
      <trkpt lat="43.13522" lon="-7.06567">
        <ele>920.9</ele>
        <time>2016-07-11T12:17:48Z</time>
      </trkpt>
      <trkpt lat="43.13515" lon="-7.06577">
        <ele>920.9</ele>
        <time>2016-07-11T12:17:57Z</time>
      </trkpt>
      <trkpt lat="43.13507" lon="-7.06585">
        <ele>920.8</ele>
        <time>2016-07-11T12:18:05Z</time>
      </trkpt>
      <trkpt lat="43.13499" lon="-7.06592">
        <ele>920.8</ele>
        <time>2016-07-11T12:18:12Z</time>
      </trkpt>
      <trkpt lat="43.13491" lon="-7.06598">
        <ele>920.8</ele>
        <time>2016-07-11T12:18:19Z</time>
      </trkpt>
      <trkpt lat="43.13483" lon="-7.06605">
        <ele>920.9</ele>
        <time>2016-07-11T12:18:26Z</time>
      </trkpt>
      <trkpt lat="43.13474" lon="-7.06611">
        <ele>921.4</ele>
        <time>2016-07-11T12:18:35Z</time>
      </trkpt>
      <trkpt lat="43.13465" lon="-7.06616">
        <ele>922</ele>
        <time>2016-07-11T12:18:43Z</time>
      </trkpt>
      <trkpt lat="43.13457" lon="-7.0662">
        <ele>922.4</ele>
        <time>2016-07-11T12:18:51Z</time>
      </trkpt>
      <trkpt lat="43.13448" lon="-7.06626">
        <ele>922.8</ele>
        <time>2016-07-11T12:18:59Z</time>
      </trkpt>
      <trkpt lat="43.13439" lon="-7.06633">
        <ele>923.3</ele>
        <time>2016-07-11T12:19:09Z</time>
      </trkpt>
      <trkpt lat="43.13431" lon="-7.06639">
        <ele>923.6</ele>
        <time>2016-07-11T12:19:17Z</time>
      </trkpt>
      <trkpt lat="43.13423" lon="-7.06646">
        <ele>923.9</ele>
        <time>2016-07-11T12:19:25Z</time>
      </trkpt>
      <trkpt lat="43.13414" lon="-7.06652">
        <ele>924.2</ele>
        <time>2016-07-11T12:19:32Z</time>
      </trkpt>
      <trkpt lat="43.13405" lon="-7.06658">
        <ele>924.6</ele>
        <time>2016-07-11T12:19:40Z</time>
      </trkpt>
      <trkpt lat="43.13396" lon="-7.0666">
        <ele>925.6</ele>
        <time>2016-07-11T12:19:56Z</time>
      </trkpt>
      <trkpt lat="43.13387" lon="-7.06663">
        <ele>926.1</ele>
        <time>2016-07-11T12:20:06Z</time>
      </trkpt>
      <trkpt lat="43.13377" lon="-7.06665">
        <ele>926.4</ele>
        <time>2016-07-11T12:20:15Z</time>
      </trkpt>
      <trkpt lat="43.13369" lon="-7.06669">
        <ele>927.1</ele>
        <time>2016-07-11T12:20:25Z</time>
      </trkpt>
      <trkpt lat="43.13359" lon="-7.06668">
        <ele>928.3</ele>
        <time>2016-07-11T12:20:37Z</time>
      </trkpt>
      <trkpt lat="43.13351" lon="-7.06661">
        <ele>930</ele>
        <time>2016-07-11T12:20:49Z</time>
      </trkpt>
      <trkpt lat="43.13345" lon="-7.06651">
        <ele>930.6</ele>
        <time>2016-07-11T12:20:59Z</time>
      </trkpt>
      <trkpt lat="43.13339" lon="-7.06641">
        <ele>931.6</ele>
        <time>2016-07-11T12:21:09Z</time>
      </trkpt>
      <trkpt lat="43.13334" lon="-7.0663">
        <ele>933.1</ele>
        <time>2016-07-11T12:21:21Z</time>
      </trkpt>
      <trkpt lat="43.13329" lon="-7.06619">
        <ele>934.2</ele>
        <time>2016-07-11T12:21:32Z</time>
      </trkpt>
      <trkpt lat="43.13326" lon="-7.06607">
        <ele>935</ele>
        <time>2016-07-11T12:21:42Z</time>
      </trkpt>
      <trkpt lat="43.1332" lon="-7.06597">
        <ele>936.1</ele>
        <time>2016-07-11T12:21:51Z</time>
      </trkpt>
      <trkpt lat="43.13313" lon="-7.06588">
        <ele>938</ele>
        <time>2016-07-11T12:22:04Z</time>
      </trkpt>
      <trkpt lat="43.13306" lon="-7.06578">
        <ele>939</ele>
        <time>2016-07-11T12:22:23Z</time>
      </trkpt>
      <trkpt lat="43.133" lon="-7.06569">
        <ele>939.2</ele>
        <time>2016-07-11T12:22:35Z</time>
      </trkpt>
      <trkpt lat="43.13292" lon="-7.06563">
        <ele>939.5</ele>
        <time>2016-07-11T12:22:45Z</time>
      </trkpt>
      <trkpt lat="43.13283" lon="-7.06558">
        <ele>940.7</ele>
        <time>2016-07-11T12:23:00Z</time>
      </trkpt>
      <trkpt lat="43.13275" lon="-7.06551">
        <ele>941.4</ele>
        <time>2016-07-11T12:23:11Z</time>
      </trkpt>
      <trkpt lat="43.13266" lon="-7.06547">
        <ele>942.4</ele>
        <time>2016-07-11T12:23:20Z</time>
      </trkpt>
      <trkpt lat="43.13256" lon="-7.06545">
        <ele>942.9</ele>
        <time>2016-07-11T12:23:29Z</time>
      </trkpt>
      <trkpt lat="43.13246" lon="-7.06543">
        <ele>943.6</ele>
        <time>2016-07-11T12:23:37Z</time>
      </trkpt>
      <trkpt lat="43.13236" lon="-7.06542">
        <ele>944.1</ele>
        <time>2016-07-11T12:23:45Z</time>
      </trkpt>
      <trkpt lat="43.13227" lon="-7.06545">
        <ele>945.4</ele>
        <time>2016-07-11T12:25:45Z</time>
      </trkpt>
      <trkpt lat="43.13231" lon="-7.06557">
        <ele>945.2</ele>
        <time>2016-07-11T12:27:08Z</time>
      </trkpt>
      <trkpt lat="43.13237" lon="-7.06566">
        <ele>945.6</ele>
        <time>2016-07-11T12:27:19Z</time>
      </trkpt>
      <trkpt lat="43.13243" lon="-7.06575">
        <ele>946</ele>
        <time>2016-07-11T12:27:28Z</time>
      </trkpt>
      <trkpt lat="43.1325" lon="-7.06586">
        <ele>946.4</ele>
        <time>2016-07-11T12:27:37Z</time>
      </trkpt>
      <trkpt lat="43.13253" lon="-7.06598">
        <ele>946.7</ele>
        <time>2016-07-11T12:27:47Z</time>
      </trkpt>
      <trkpt lat="43.13249" lon="-7.0661">
        <ele>947.6</ele>
        <time>2016-07-11T12:28:02Z</time>
      </trkpt>
      <trkpt lat="43.1324" lon="-7.06613">
        <ele>948.4</ele>
        <time>2016-07-11T12:28:11Z</time>
      </trkpt>
      <trkpt lat="43.1323" lon="-7.06618">
        <ele>949.4</ele>
        <time>2016-07-11T12:28:20Z</time>
      </trkpt>
      <trkpt lat="43.13221" lon="-7.06619">
        <ele>950.2</ele>
        <time>2016-07-11T12:28:32Z</time>
      </trkpt>
      <trkpt lat="43.13212" lon="-7.06623">
        <ele>950.2</ele>
        <time>2016-07-11T12:28:55Z</time>
      </trkpt>
      <trkpt lat="43.13202" lon="-7.06625">
        <ele>951.5</ele>
        <time>2016-07-11T12:29:05Z</time>
      </trkpt>
      <trkpt lat="43.13193" lon="-7.06629">
        <ele>951.9</ele>
        <time>2016-07-11T12:29:17Z</time>
      </trkpt>
      <trkpt lat="43.13184" lon="-7.06629">
        <ele>952.1</ele>
        <time>2016-07-11T12:29:27Z</time>
      </trkpt>
      <trkpt lat="43.13175" lon="-7.0663">
        <ele>952.5</ele>
        <time>2016-07-11T12:29:37Z</time>
      </trkpt>
      <trkpt lat="43.13165" lon="-7.06631">
        <ele>953.4</ele>
        <time>2016-07-11T12:29:48Z</time>
      </trkpt>
      <trkpt lat="43.13155" lon="-7.06632">
        <ele>954.2</ele>
        <time>2016-07-11T12:30:06Z</time>
      </trkpt>
      <trkpt lat="43.13154" lon="-7.06616">
        <ele>955</ele>
        <time>2016-07-11T12:30:43Z</time>
      </trkpt>
      <trkpt lat="43.13143" lon="-7.06627">
        <ele>955.5</ele>
        <time>2016-07-11T12:31:19Z</time>
      </trkpt>
      <trkpt lat="43.13143" lon="-7.06606">
        <ele>956</ele>
        <time>2016-07-11T12:33:12Z</time>
      </trkpt>
      <trkpt lat="43.13149" lon="-7.06618">
        <ele>955.5</ele>
        <time>2016-07-11T12:33:22Z</time>
      </trkpt>
      <trkpt lat="43.13158" lon="-7.06614">
        <ele>954</ele>
        <time>2016-07-11T12:33:38Z</time>
      </trkpt>
      <trkpt lat="43.13144" lon="-7.06611">
        <ele>954</ele>
        <time>2016-07-11T12:34:04Z</time>
      </trkpt>
      <trkpt lat="43.13135" lon="-7.06596">
        <ele>954</ele>
        <time>2016-07-11T12:34:11Z</time>
      </trkpt>
      <trkpt lat="43.13137" lon="-7.06578">
        <ele>955</ele>
        <time>2016-07-11T12:34:18Z</time>
      </trkpt>
      <trkpt lat="43.13144" lon="-7.0657">
        <ele>954</ele>
        <time>2016-07-11T12:34:30Z</time>
      </trkpt>
      <trkpt lat="43.1315" lon="-7.06582">
        <ele>954</ele>
        <time>2016-07-11T12:34:42Z</time>
      </trkpt>
      <trkpt lat="43.13161" lon="-7.06566">
        <ele>954</ele>
        <time>2016-07-11T12:34:49Z</time>
      </trkpt>
      <trkpt lat="43.13181" lon="-7.06497">
        <ele>954</ele>
        <time>2016-07-11T12:34:57Z</time>
      </trkpt>
      <trkpt lat="43.13178" lon="-7.06512">
        <ele>954</ele>
        <time>2016-07-11T12:35:05Z</time>
      </trkpt>
      <trkpt lat="43.13173" lon="-7.06526">
        <ele>954</ele>
        <time>2016-07-11T12:35:09Z</time>
      </trkpt>
      <trkpt lat="43.13169" lon="-7.0654">
        <ele>954</ele>
        <time>2016-07-11T12:35:13Z</time>
      </trkpt>
      <trkpt lat="43.13164" lon="-7.06556">
        <ele>954</ele>
        <time>2016-07-11T12:35:21Z</time>
      </trkpt>
      <trkpt lat="43.1315" lon="-7.06599">
        <ele>954</ele>
        <time>2016-07-11T12:35:52Z</time>
      </trkpt>
      <trkpt lat="43.13149" lon="-7.06586">
        <ele>955</ele>
        <time>2016-07-11T12:36:00Z</time>
      </trkpt>
      <trkpt lat="43.13148" lon="-7.06599">
        <ele>955.3</ele>
        <time>2016-07-11T12:36:09Z</time>
      </trkpt>
      <trkpt lat="43.13142" lon="-7.06608">
        <ele>954.3</ele>
        <time>2016-07-11T12:36:25Z</time>
      </trkpt>
    </trkseg>
  </trk>
</gpx>